[[{"header":{"parameterUnit":"m.s-1","parameterCategory":1,"la1":31.0,"la2":29.5877,"lo1":-88.7671,"lo2":-86.6584,"dy":0.0162,"dx":0.0185,"nx":115,"ny":88,"refTime":"2026-04-29T00:00:00:Z","depth":0,"parameterNumber":2,"parameterNumberName":"U-component_of_WINDS"},"data":[0.0,0.0,0.0,0.0,0.0,0.0,0.0,0.0,0.0,0.0,0.0,0.0,0.0,0.0,0.0,0.0,0.0,0.0,0.0,0.0,0.0,0.0,0.0,0.0,0.0,0.0,0.0,0.0,0.0,0.0,0.0,0.0,0.0,0.0,0.0,0.0,0.0,0.0,0.0,0.0,0.0,0.0,0.0,0.0,0.0,0.0,0.0,0.0,0.0,0.0,0.0,0.0,0.0,0.0,0.0,0.0,0.0,0.0,0.0,0.0,0.0,0.0,0.0,0.0,0.0,0.0,0.0,0.0,0.0,0.0,0.0,0.0,0.0,0.0,0.0,0.0,0.0,0.0,0.0,0.0,0.0,0.0,0.0,0.0,0.0,0.0,0.0,0.0,0.0,0.0,0.0,0.0,0.0,0.0,0.0,0.0,0.0,0.0,0.0,0.0,0.0,0.0,0.0,0.0,0.0,0.0,0.0,0.0,0.0,0.0,0.0,0.0,0.0,0.0,0.0,0.0,0.0,0.0,0.0,0.0,0.0,0.0,0.0,0.0,0.0,0.0,0.0,0.0,0.0,0.0,0.0,0.0,0.0,0.0,0.0,0.0,0.0,0.0,0.0,0.0,0.0,0.0,0.0,0.0,0.0,0.0,0.0,0.0,0.0,0.0,0.0,0.0,0.0,0.0,0.0,0.0,0.0,0.0,0.0,0.0,0.0,0.0,0.0,0.0,0.0,0.0,0.0,0.0,0.0,0.0,0.0,0.0,0.0,0.0,0.0,0.0,0.0,0.0,0.0,0.0,0.0,0.0,0.0,0.0,0.0,0.0,0.0,0.0,0.0,0.0,0.0,0.0,0.0,0.0,0.0,0.0,0.0,0.0,0.0,0.0,0.0,0.0,0.0,0.0,0.0,0.0,0.0,0.0,0.0,0.0,0.0,0.0,0.0,0.0,0.0,0.0,0.0,0.0,0.0,0.0,0.0,0.0,0.0,0.0,0.0,0.0,0.0,0.0,0.0,0.0,0.0,0.0,0.0,0.0,0.0,0.0,0.0,0.0,0.0,0.0,0.0,0.0,0.0,0.0,0.0,0.0,0.0,0.0,0.0,0.0,0.0,0.0,0.0,0.0,0.0,0.0,0.0,0.0,0.0,0.0,0.0,0.0,0.0,0.0,0.0,0.0,0.0,0.0,0.0,0.0,0.0,0.0,0.0,0.0,0.0,0.0,0.0,0.0,0.0,0.0,0.0,0.0,0.0,0.0,0.0,0.0,0.0,0.0,0.0,0.0,0.0,0.0,0.0,0.0,0.0,0.0,0.0,0.0,0.0,0.0,0.0,0.0,0.0,0.0,0.0,0.0,0.0,0.0,0.0,0.0,0.0,0.0,0.0,0.0,0.0,0.0,0.0,0.0,0.0,0.0,0.0,0.0,0.0,0.0,0.0,0.0,0.0,0.0,0.0,0.0,0.0,0.0,0.0,0.0,0.0,0.0,0.0,0.0,0.0,0.0,0.0,0.0,0.0,0.0,0.0,0.0,0.0,0.0,0.0,0.0,0.0,0.0,0.0,0.0,0.0,0.0,0.0,0.0,0.0,0.0,0.0,0.0,0.0,0.0,0.0,0.0,0.0,0.0,0.0,0.0,0.0,0.0,0.0,0.0,0.0,0.0,0.0,0.0,0.0,0.0,0.0,0.0,0.0,0.0,0.0,0.0,0.0,0.0,0.0,0.0,0.0,0.0,0.0,0.0,0.0,0.0,0.0,0.0,0.0,0.0,0.0,0.0,0.0,0.0,0.0,0.0,0.0,0.0,0.0,0.0,0.0,0.0,0.0,0.0,0.0,0.0,0.0,0.0,0.0,0.0,0.0,0.0,0.0,0.0,0.0,0.0,0.0,0.0,0.0,0.0,0.0,0.0,0.0,0.0,0.0,0.0,0.0,0.0,0.0,0.0,0.0,0.0,0.0,0.0,0.0,0.0,0.0,0.0,0.0,0.0,0.0,0.0,0.0,0.0,0.0,0.0,0.0,0.0,0.0,0.0,0.0,0.0,0.0,0.0,0.0,0.0,0.0,0.0,0.0,0.0,0.0,0.0,0.0,0.0,0.0,0.0,0.0,0.0,0.0,0.0,0.0,0.0,0.0,0.0,0.0,0.0,0.0,0.0,0.0,0.0,0.0,0.0,0.0,0.0,0.0,0.0,0.0,0.0,0.0,0.0,0.0,0.0,0.0,0.0,0.0,0.0,0.0,0.0,0.0,0.0,0.0,0.0,0.0,0.0,0.0,0.0,0.0,0.0,0.0,0.0,0.0,0.0,0.0,0.0,0.0,0.0,0.0,0.0,0.0,0.0,0.0,0.0,0.0,0.0,0.0,0.0,0.0,0.0,0.0,0.0,0.0,0.0,0.0,0.0,0.0,0.0,0.0,0.0,0.0,0.0,0.0,0.0,0.0,0.0,0.0,0.0,0.0,0.0,0.0,0.0,0.0,0.0,0.0,0.0,0.0,0.0,0.0,0.0,0.0,0.0,0.0,0.0,0.0,0.0,0.0,0.0,0.0,0.0,0.0,0.0,0.0,0.0,0.0,0.0,0.0,0.0,0.0,0.0,0.0,0.0,0.0,0.0,0.0,0.0,0.0,0.0,0.0,0.0,0.0,0.0,0.0,0.0,0.0,0.0,0.0,0.0,0.0,0.0,0.0,0.0,0.0,0.0,0.0,0.0,0.0,0.0,0.0,0.0,0.0,0.0,0.0,0.0,0.0,0.0,0.0,0.0,0.0,0.0,0.0,0.0,0.0,0.0,0.0,0.0,0.0,0.0,0.0,0.0,0.0,0.0,0.0,0.0,0.0,0.0,0.0,0.0,0.0,0.0,0.0,0.0,0.0,0.0,0.0,0.0,0.0,0.0,0.0,0.0,0.0,0.0,0.0,0.0,0.0,0.0,0.0,0.0,0.0,0.0,0.0,0.0,0.0,0.0,0.0,0.0,0.0,0.0,0.0,0.0,0.0,0.0,0.0,0.0,0.0,0.0,0.0,0.0,0.0,0.0,0.0,0.0,0.0,0.0,0.0,0.0,0.0,0.0,0.0,0.0,0.0,0.0,0.0,0.0,0.0,0.0,0.0,0.0,0.0,0.0,0.0,0.0,0.0,0.0,0.0,0.0,0.0,0.0,0.0,0.0,0.0,0.0,0.0,0.0,0.0,0.0,0.0,0.0,0.0,0.0,0.0,0.0,0.0,0.0,0.0,0.0,0.0,0.0,0.0,0.0,0.0,0.0,0.0,0.0,0.0,0.0,0.0,0.0,0.0,0.0,0.0,0.0,0.0,0.0,0.0,0.0,0.0,0.0,0.0,0.0,0.0,0.0,0.0,0.0,0.0,0.0,0.0,0.0,0.0,0.0,0.0,0.0,0.0,0.0,0.0,0.0,0.0,0.0,0.0,0.0,0.0,0.0,0.0,0.0,0.0,0.0,0.0,0.0,0.0,0.0,0.0,0.0,0.0,0.0,0.0,0.0,0.0,0.0,0.0,0.0,0.0,0.0,0.0,0.0,0.0,0.0,0.0,0.0,0.0,0.0,0.0,0.0,0.0,0.0,0.0,0.0,0.0,0.0,0.0,0.0,0.0,0.0,0.0,0.0,0.0,0.0,0.0,0.0,0.0,0.0,0.0,0.0,0.0,0.0,0.0,0.0,0.0,0.0,0.0,0.0,0.0,0.0,0.0,0.0,0.0,0.0,0.0,0.0,0.0,0.0,0.0,0.0,0.0,0.0,0.0,0.0,0.0,0.0,0.0,0.0,0.0,0.0,0.0,0.0,0.0,0.0,0.0,0.0,0.0,0.0,0.0,0.0,0.0,0.0,0.0,0.0,0.0,0.0,0.0,0.0,0.0,0.0,0.0,0.0,0.0,0.0,0.0,0.0,0.0,0.0,0.0,0.0,0.0,0.0,0.0,0.0,0.0,0.0,0.0,0.0,0.0,0.0,0.0,0.0,0.0,0.0,0.0,0.0,0.0,0.0,0.0,0.0,0.0,0.0,0.0,0.0,0.0,0.0,0.0,0.0,0.0,0.0,0.0,0.0,0.0,0.0,0.0,0.0,0.0,0.0,0.0,0.0,0.0,0.0,0.0,0.0,0.0,0.0,0.0,0.0,0.0,0.0,0.0,0.0,0.0,0.0,0.0,0.0,0.0,0.0,0.0,0.0,0.0,0.0,0.0,0.0,0.0,0.0,0.0,0.0,0.0,0.0,0.0,0.0,0.0,0.0,0.0,0.0,2.2246,0.0,0.0,0.0,0.0,0.0,0.0,0.0,0.0,0.0,0.0,0.0,0.0,0.0,0.0,0.0,0.0,0.0,0.0,0.0,0.0,0.0,0.0,0.0,0.0,0.0,0.0,0.0,0.0,0.0,0.0,0.0,0.0,0.0,0.0,0.0,0.0,0.0,0.0,0.0,0.0,0.0,0.0,0.0,0.0,0.0,0.0,0.0,0.0,0.0,0.0,0.0,0.0,0.0,0.0,0.0,0.0,0.0,0.0,0.0,0.0,0.0,0.0,0.0,0.0,0.0,0.0,0.0,0.0,0.0,0.0,0.0,0.0,0.0,0.0,0.0,0.0,0.0,0.0,0.0,0.0,0.0,0.0,0.0,0.0,0.0,0.0,0.0,0.0,0.0,0.0,0.0,0.0,0.0,0.0,0.0,0.0,0.0,0.0,0.0,0.0,0.0,0.0,0.0,0.0,0.0,0.0,0.0,0.0,0.0,0.0,2.4155,2.3521,2.413,2.3627,2.1945,0.0,0.0,0.0,0.0,0.0,0.0,0.0,0.0,0.0,0.0,0.0,0.0,0.0,0.0,0.0,0.0,0.0,0.0,0.0,0.0,0.0,0.0,0.0,0.0,0.0,0.0,0.0,0.0,0.0,0.0,0.0,0.0,0.0,0.0,0.0,0.0,0.0,0.0,0.0,0.0,0.0,0.0,0.0,0.0,0.0,0.0,0.0,0.0,0.0,0.0,0.0,0.0,0.0,0.0,0.0,0.0,0.0,0.0,0.0,0.0,0.0,0.0,0.0,0.0,0.0,0.0,0.0,0.0,0.0,0.0,0.0,0.0,0.0,0.0,0.0,0.0,0.0,0.0,0.0,0.0,0.0,0.0,0.0,0.0,0.0,0.0,0.0,0.0,0.0,0.0,0.0,0.0,0.0,0.0,0.0,0.0,0.0,0.0,0.0,0.0,0.0,0.0,0.0,0.0,0.0,0.0,0.0,0.0,0.0,0.0,0.0,0.0,2.4352,2.3864,2.1832,0.0,0.0,0.0,0.0,0.0,0.0,0.0,0.0,0.0,0.0,0.0,0.0,0.0,0.0,0.0,0.0,0.0,0.0,0.0,0.0,0.0,0.0,0.0,0.0,0.0,0.0,0.0,0.0,0.0,0.0,0.0,0.0,0.0,0.0,0.0,0.0,0.0,0.0,0.0,0.0,0.0,0.0,0.0,0.0,0.0,0.0,0.0,0.0,0.0,0.0,0.0,0.0,0.0,0.0,0.0,0.0,0.0,0.0,0.0,0.0,0.0,0.0,0.0,0.0,0.0,0.0,0.0,0.0,0.0,0.0,0.0,0.0,0.0,0.0,0.0,0.0,0.0,0.0,0.0,0.0,0.0,0.0,0.0,0.0,0.0,0.0,0.0,0.0,0.0,0.0,0.0,0.0,0.0,0.0,0.0,0.0,0.0,0.0,0.0,0.0,0.0,0.0,0.0,0.0,0.0,0.0,0.0,0.0,0.0,0.0,2.4287,2.4823,2.4908,0.0,2.2519,0.0,0.0,0.0,0.0,0.0,0.0,0.0,0.0,0.0,0.0,0.0,0.0,0.0,0.0,0.0,0.0,0.0,0.0,0.0,0.0,0.0,0.0,0.0,0.0,0.0,0.0,0.0,0.0,0.0,0.0,0.0,0.0,0.0,0.0,0.0,0.0,0.0,0.0,0.0,0.0,0.0,0.0,0.0,0.0,0.0,0.0,0.0,0.0,0.0,0.0,0.0,0.0,0.0,0.0,0.0,0.0,0.0,0.0,0.0,0.0,0.0,0.0,0.0,0.0,0.0,0.0,0.0,0.0,0.0,0.0,0.0,0.0,0.0,0.0,0.0,0.0,0.0,0.0,0.0,0.0,0.0,0.0,0.0,0.0,0.0,0.0,0.0,0.0,0.0,0.0,0.0,0.0,0.0,0.0,0.0,0.0,0.0,0.0,0.0,0.0,0.0,0.0,0.0,0.0,0.0,0.0,0.0,0.0,0.0,0.0,2.3966,2.3943,2.3363,2.2726,0.0,0.0,0.0,0.0,0.0,0.0,0.0,0.0,0.0,0.0,0.0,0.0,0.0,0.0,0.0,0.0,0.0,0.0,0.0,0.0,0.0,0.0,0.0,0.0,0.0,0.0,0.0,0.0,0.0,0.0,0.0,0.0,0.0,0.0,0.0,0.0,0.0,0.0,0.0,0.0,0.0,0.0,0.0,0.0,0.0,0.0,0.0,0.0,0.0,0.0,0.0,0.0,0.0,0.0,0.0,0.0,0.0,0.0,0.0,0.0,0.0,0.0,0.0,0.0,0.0,0.0,0.0,0.0,0.0,0.0,0.0,0.0,0.0,0.0,0.0,0.0,0.0,0.0,0.0,0.0,0.0,0.0,0.0,0.0,0.0,0.0,0.0,0.0,0.0,0.0,0.0,0.0,0.0,0.0,0.0,0.0,0.0,0.0,0.0,0.0,0.0,0.0,0.0,0.0,0.0,0.0,0.0,0.0,0.0,0.0,2.3409,0.0,2.3262,2.244,2.1767,2.1239,0.0,0.0,0.0,0.0,0.0,0.0,0.0,0.0,0.0,0.0,0.0,0.0,0.0,0.0,0.0,0.0,0.0,0.0,0.0,0.0,0.0,0.0,0.0,0.0,0.0,0.0,0.0,0.0,0.0,0.0,0.0,0.0,0.0,0.0,0.0,0.0,0.0,0.0,0.0,0.0,0.0,0.0,0.0,0.0,0.0,0.0,0.0,0.0,0.0,0.0,0.0,0.0,0.0,0.0,0.0,0.0,0.0,0.0,0.0,0.0,0.0,0.0,0.0,0.0,0.0,0.0,0.0,0.0,0.0,0.0,0.0,0.0,0.0,0.0,0.0,0.0,0.0,0.0,0.0,0.0,0.0,0.0,0.0,0.0,0.0,0.0,0.0,0.0,0.0,0.0,0.0,0.0,0.0,0.0,0.0,0.0,0.0,0.0,0.0,0.0,0.0,0.0,0.0,0.0,0.0,0.0,0.0,0.0,0.0,2.3503,2.3301,2.346,2.3004,2.1876,0.0,0.0,0.0,0.0,0.0,0.0,0.0,0.0,0.0,0.0,0.0,0.0,0.0,0.0,0.0,0.0,0.0,0.0,0.0,0.0,0.0,0.0,0.0,0.0,0.0,0.0,0.0,0.0,0.0,0.0,0.0,0.0,0.0,0.0,0.0,0.0,0.0,0.0,0.0,0.0,0.0,0.0,0.0,0.0,0.0,0.0,0.0,0.0,0.0,0.0,0.0,0.0,0.0,0.0,0.0,0.0,0.0,0.0,0.0,0.0,0.0,0.0,0.0,0.0,0.0,0.0,0.0,0.0,0.0,0.0,0.0,0.0,0.0,0.0,0.0,0.0,0.0,0.0,0.0,0.0,0.0,0.0,0.0,0.0,0.0,0.0,0.0,0.0,0.0,0.0,0.0,0.0,0.0,0.0,0.0,0.0,0.0,0.0,0.0,0.0,0.0,0.0,0.0,0.0,0.0,0.0,0.0,0.0,0.0,2.1533,2.1754,2.2535,2.3804,2.1954,2.0772,0.0,0.0,0.0,0.0,0.0,0.0,0.0,0.0,0.0,0.0,0.0,0.0,0.0,0.0,0.0,0.0,0.0,0.0,0.0,0.0,0.0,0.0,0.0,0.0,0.0,0.0,0.0,0.0,0.0,0.0,0.0,0.0,0.0,0.0,0.0,0.0,0.0,0.0,0.0,0.0,0.0,0.0,0.0,0.0,0.0,0.0,0.0,0.0,0.0,0.0,0.0,0.0,0.0,0.0,0.0,0.0,0.0,0.0,0.0,0.0,0.0,0.0,0.0,0.0,0.0,0.0,0.0,0.0,0.0,0.0,0.0,0.0,0.0,0.0,0.0,0.0,0.0,0.0,0.0,0.0,0.0,0.0,0.0,0.0,0.0,0.0,0.0,0.0,0.0,0.0,0.0,0.0,0.0,0.0,0.0,0.0,0.0,0.0,0.0,0.0,0.0,0.0,0.0,0.0,0.0,0.0,0.0,0.0,0.0,2.0296,0.0,2.1391,0.0,2.0518,1.9227,0.0,0.0,0.0,0.0,0.0,0.0,0.0,0.0,0.0,0.0,0.0,0.0,0.0,0.0,0.0,0.0,0.0,0.0,0.0,0.0,0.0,0.0,0.0,0.0,0.0,0.0,0.0,0.0,0.0,0.0,0.0,0.0,0.0,0.0,0.0,0.0,0.0,0.0,0.0,0.0,0.0,0.0,0.0,0.0,0.0,0.0,0.0,0.0,0.0,0.0,0.0,0.0,0.0,0.0,0.0,0.0,0.0,0.0,0.0,0.0,0.0,0.0,0.0,0.0,0.0,0.0,0.0,0.0,0.0,0.0,0.0,0.0,0.0,0.0,0.0,0.0,0.0,0.0,0.0,0.0,0.0,0.0,0.0,0.0,0.0,0.0,0.0,0.0,0.0,0.0,0.0,0.0,0.0,0.0,0.0,0.0,0.0,0.0,0.0,0.0,0.0,0.0,0.0,0.0,0.0,0.0,0.0,0.0,1.956,2.0577,2.0346,1.9918,1.9265,1.8793,1.7442,0.0,0.0,0.0,0.0,0.0,0.0,0.0,0.0,0.0,0.0,0.0,0.0,0.0,0.0,0.0,0.0,0.0,0.0,0.0,0.0,0.0,0.0,0.0,0.0,0.0,0.0,0.0,0.0,0.0,0.0,0.0,0.0,0.0,0.0,0.0,0.0,0.0,0.0,0.0,0.0,0.0,0.0,0.0,0.0,0.0,0.0,0.0,0.0,0.0,0.0,0.0,0.0,0.0,0.0,0.0,0.0,0.0,0.0,0.0,0.0,0.0,0.0,0.0,0.0,0.0,0.0,0.0,0.0,0.0,0.0,0.0,0.0,0.0,0.0,0.0,0.0,0.0,0.0,0.0,0.0,0.0,0.0,0.0,0.0,0.0,0.0,0.0,0.0,0.0,0.0,0.0,0.0,0.0,0.0,0.0,0.0,0.0,0.0,0.0,0.0,0.0,0.0,0.0,0.0,0.0,0.0,0.0,0.0,0.0,1.8587,1.8053,1.8238,1.9173,1.7006,1.5901,0.0,0.0,0.0,0.0,0.0,0.0,0.0,0.0,0.0,0.0,0.0,0.0,0.0,0.0,0.0,0.0,0.0,0.0,0.0,0.0,0.0,0.0,0.0,0.0,0.0,0.0,0.0,0.0,0.0,0.0,0.0,0.0,0.0,0.0,0.0,0.0,0.0,0.0,0.0,0.0,0.0,0.0,0.0,0.0,0.0,0.0,0.0,0.0,0.0,0.0,0.0,0.0,0.0,0.0,0.0,0.0,0.0,0.0,0.0,0.0,0.0,0.0,0.0,0.0,0.0,0.0,0.0,0.0,0.0,0.0,0.0,0.0,0.0,0.0,0.0,0.0,0.0,0.0,0.0,0.0,0.0,0.0,0.0,0.0,0.0,0.0,0.0,0.0,0.0,0.0,0.0,0.0,0.0,0.0,0.0,0.0,0.0,0.0,0.0,0.0,0.0,0.0,0.0,0.0,0.0,0.0,0.0,0.0,0.0,1.5262,1.6104,1.6852,1.748,1.5462,1.4413,1.4374,0.0,0.0,0.0,0.0,0.0,0.0,0.0,0.0,0.0,0.0,0.0,0.0,0.0,0.0,0.0,0.0,0.0,0.0,0.0,0.0,0.0,0.0,0.0,0.0,0.0,0.0,0.0,0.0,0.0,0.0,0.0,0.0,0.0,0.0,0.0,0.0,0.0,0.0,0.0,0.0,0.0,0.0,0.0,0.0,0.0,0.0,0.0,0.0,0.0,0.0,0.0,0.0,0.0,0.0,0.0,0.0,0.0,0.0,0.0,0.0,0.0,0.0,0.0,0.0,0.0,0.0,0.0,0.0,0.0,0.0,0.0,0.0,0.0,0.0,0.0,0.0,0.0,0.0,0.0,0.0,0.0,0.0,0.0,0.0,0.0,0.0,0.0,0.0,0.0,0.0,0.0,0.0,0.0,0.0,0.0,0.0,0.0,0.0,0.0,0.0,0.0,0.0,0.0,0.0,0.0,0.0,0.0,0.0,1.0939,1.4201,1.5394,1.4453,1.4016,1.2838,0.0,0.0,0.0,0.0,0.0,0.0,0.0,0.0,0.0,0.0,0.0,0.0,0.0,0.0,0.0,0.0,0.0,0.0,0.0,0.0,0.0,0.0,0.0,0.0,0.0,0.0,0.0,0.0,0.0,0.0,0.0,0.0,0.0,0.0,0.0,0.0,0.0,0.0,0.0,0.0,0.0,0.0,0.0,0.0,0.0,0.0,0.0,0.0,0.0,0.0,0.0,0.0,0.0,0.0,0.0,0.0,0.0,0.0,0.0,0.0,0.0,0.0,0.0,0.0,0.0,0.0,0.0,0.0,0.0,0.0,0.0,0.0,0.0,0.0,0.0,0.0,0.0,0.0,0.0,0.0,0.0,0.0,0.0,0.0,0.0,0.0,0.0,0.0,0.0,0.0,0.0,0.0,0.0,0.0,0.0,0.0,0.0,0.0,0.0,0.0,0.0,0.0,0.0,0.0,0.0,0.0,0.0,0.0,0.0,0.8758,0.9035,1.0293,1.2592,1.1142,1.014,0.0,0.0,0.0,0.0,0.0,0.0,0.0,0.0,0.0,0.0,0.0,0.0,0.0,0.0,0.0,0.0,0.0,0.0,0.0,0.0,0.0,0.0,0.0,0.0,0.0,0.0,0.0,0.0,0.0,0.0,0.0,0.0,0.0,0.0,0.0,0.0,0.0,0.0,0.0,0.0,0.0,0.0,0.0,0.0,0.0,0.0,0.0,0.0,0.0,0.0,0.0,0.0,0.0,0.0,0.0,0.0,0.0,0.0,0.0,0.0,0.0,0.0,0.0,0.0,0.0,0.0,0.0,0.0,0.0,0.0,0.0,0.0,0.0,0.0,0.0,0.0,0.0,0.0,0.0,0.0,0.0,0.0,0.0,0.0,0.0,0.0,0.0,0.0,0.0,0.0,0.0,0.0,0.0,0.0,0.0,0.0,0.0,0.0,0.0,0.0,0.0,0.0,0.0,0.0,0.0,0.0,0.0,0.0,0.5689,0.5402,0.4985,0.5769,0.7877,0.761,0.7206,0.0,0.0,0.0,0.0,0.0,0.0,0.0,0.0,0.0,0.0,0.0,0.0,0.0,0.0,0.0,0.0,0.0,0.0,0.0,0.0,0.0,0.0,0.0,0.0,0.0,0.0,0.0,0.0,0.0,0.0,0.0,0.0,0.0,0.0,0.0,0.0,0.0,0.0,0.0,0.0,0.0,0.0,0.0,0.0,0.0,0.0,0.0,0.0,0.0,0.0,0.0,0.0,0.0,0.0,0.0,0.0,0.0,0.0,0.0,0.0,0.0,0.0,0.0,0.0,0.0,0.0,0.0,0.0,0.0,0.0,0.0,0.0,0.0,0.0,0.0,0.0,0.0,0.0,0.0,0.0,0.0,0.0,0.0,0.0,0.0,0.0,0.0,0.0,0.0,0.0,0.0,0.0,0.0,0.0,0.0,0.0,0.0,0.0,0.0,0.0,0.0,0.0,0.0,0.0,0.0,0.0,0.0,0.0,0.2331,0.1197,0.1234,0.1214,0.1279,0.3697,0.4428,0.0,0.0,0.0,0.0,0.0,0.0,0.0,0.0,0.0,0.0,0.0,0.0,0.0,0.0,0.0,0.0,0.0,0.0,0.0,0.0,0.0,0.0,0.0,0.0,0.0,0.0,0.0,0.0,0.0,0.0,0.0,0.0,0.0,0.0,0.0,0.0,0.0,0.0,0.0,0.0,0.0,0.0,0.0,0.0,0.0,0.0,0.0,0.0,0.0,0.0,0.0,0.0,0.0,0.0,0.0,0.0,0.0,0.0,0.0,0.0,0.0,0.0,0.0,0.0,0.0,0.0,0.0,0.0,0.0,0.0,0.0,0.0,0.0,0.0,0.0,0.0,0.0,0.0,0.0,0.0,0.0,0.0,0.0,0.0,0.0,0.0,0.0,0.0,0.0,0.0,0.0,0.0,0.0,0.0,0.0,0.0,0.0,0.0,0.0,0.0,0.0,0.0,0.0,0.0,0.0,0.0,0.0,0.0,-0.2035,-0.357,-0.4577,-0.5033,-0.4914,0.0065,0.2562,0.0,0.0,0.0,0.0,0.0,0.0,0.0,0.0,0.0,0.0,0.0,0.0,0.0,0.0,0.0,0.0,0.0,0.0,0.0,0.0,0.0,0.0,0.0,0.0,0.0,0.0,0.0,0.0,0.0,0.0,0.0,0.0,0.0,0.0,0.0,0.0,0.0,0.0,0.0,0.0,0.0,0.0,0.0,0.0,0.0,0.0,0.0,0.0,-1.1091,0.0,0.0,0.0,0.0,0.0,0.0,0.0,0.0,0.0,0.0,0.0,0.0,0.0,0.0,0.0,0.0,0.0,0.0,0.0,0.0,0.0,0.0,0.0,0.0,0.0,0.0,0.0,0.0,0.0,0.0,0.0,0.0,0.0,0.0,0.0,0.0,0.0,0.0,0.0,0.0,0.0,0.0,0.0,0.0,0.0,0.0,0.0,0.0,0.0,0.0,0.0,0.0,0.0,0.0,0.0,0.0,0.0,0.0,0.0,-0.5114,-0.6276,-0.7078,-0.7522,-0.7308,-0.4174,-0.1929,0.0,0.0,0.0,0.0,0.0,0.0,0.0,0.0,0.0,0.0,0.0,0.0,0.0,0.0,0.0,0.0,0.0,0.0,0.0,0.0,0.0,0.0,0.0,0.0,0.0,0.0,0.0,0.0,0.0,0.0,0.0,0.0,0.0,0.0,0.0,0.0,0.0,0.0,0.0,0.0,0.0,0.0,0.0,0.0,0.0,0.0,0.0,0.0,0.0,0.0,0.0,0.0,0.0,0.0,0.0,0.0,0.0,0.0,0.0,0.0,0.0,0.0,0.0,0.0,0.0,0.0,0.0,0.0,0.0,0.0,0.0,0.0,0.0,0.0,0.0,0.0,0.0,0.0,0.0,0.0,0.0,0.0,0.0,0.0,0.0,0.0,0.0,0.0,0.0,0.0,0.0,0.0,0.0,0.0,0.0,0.0,0.0,0.0,0.0,0.0,0.0,0.0,0.0,0.0,0.0,0.0,0.0,-0.5829,-0.7431,-0.84,-0.8695,-0.8832,-0.8734,-0.835,-0.695,-0.4545,0.0,0.0,0.0,0.0,0.0,0.0,0.0,0.0,0.0,0.0,0.0,0.0,0.0,0.0,0.0,0.0,0.0,0.0,0.0,0.0,0.0,0.0,0.0,0.0,0.0,0.0,0.0,0.0,0.0,0.0,0.0,0.0,0.0,0.0,0.0,0.0,0.0,0.0,-0.8401,-1.0456,0.0,0.0,0.0,0.0,0.0,0.0,0.0,0.0,-1.3747,0.0,0.0,0.0,0.0,0.0,0.0,0.0,0.0,0.0,0.0,0.0,0.0,0.0,0.0,0.0,0.0,0.0,0.0,0.0,0.0,0.0,0.0,0.0,0.0,0.0,0.0,0.0,0.0,0.0,0.0,0.0,0.0,0.0,0.0,0.0,0.0,0.0,0.0,0.0,0.0,0.0,0.0,0.0,0.0,0.0,0.0,0.0,0.0,0.0,0.0,0.0,0.0,0.0,0.0,0.0,0.0,-0.7006,-0.7703,-0.9162,-1.146,-1.1839,-1.1966,-1.1762,-1.1147,-0.9733,-0.7431,0.0,0.0,0.0,0.0,0.0,0.0,0.0,0.0,0.0,0.0,0.0,0.0,0.0,0.0,0.0,0.0,0.0,0.0,0.0,0.0,0.0,0.0,0.0,0.0,0.0,0.0,0.0,0.0,0.0,0.0,0.0,0.0,0.0,0.0,0.0,0.0,0.0,0.0,0.0,-1.4523,-1.5528,0.0,0.0,0.0,0.0,0.0,0.0,0.0,0.0,-1.6058,0.0,0.0,0.0,0.0,0.0,0.0,0.0,0.0,0.0,0.0,0.0,0.0,0.0,0.0,0.0,0.0,0.0,0.0,0.0,0.0,0.0,0.0,0.0,0.0,0.0,0.0,0.0,0.0,0.0,0.0,0.0,0.0,0.0,0.0,0.0,0.0,0.0,0.0,0.0,0.0,0.0,0.0,0.0,0.0,0.0,0.0,0.0,0.0,0.0,0.0,0.0,0.0,0.0,0.0,0.0,-0.9323,-1.152,-1.3428,-1.5014,-1.5505,-1.5545,-1.5265,-1.4069,-1.2412,0.0,0.0,0.0,0.0,0.0,0.0,0.0,0.0,0.0,0.0,0.0,0.0,0.0,0.0,0.0,0.0,0.0,0.0,0.0,0.0,0.0,0.0,0.0,0.0,0.0,0.0,0.0,0.0,0.0,0.0,0.0,0.0,0.0,0.0,0.0,0.0,0.0,0.0,0.0,0.0,-1.7026,-1.7999,-1.9697,0.0,0.0,0.0,0.0,0.0,0.0,-1.7103,-1.7181,0.0,0.0,0.0,0.0,0.0,0.0,0.0,0.0,0.0,0.0,0.0,0.0,0.0,0.0,0.0,0.0,0.0,0.0,0.0,0.0,0.0,0.0,0.0,0.0,0.0,0.0,0.0,0.0,0.0,0.0,0.0,0.0,0.0,0.0,0.0,0.0,0.0,0.0,0.0,0.0,0.0,0.0,0.0,0.0,0.0,0.0,0.0,0.0,0.0,0.0,0.0,0.0,0.0,0.0,0.0,-1.1147,-1.4779,-1.7063,-1.7859,-1.8295,-1.8404,-1.8074,-1.6389,-1.4573,0.0,0.0,0.0,0.0,0.0,0.0,0.0,0.0,0.0,0.0,0.0,0.0,0.0,0.0,0.0,0.0,0.0,0.0,0.0,0.0,0.0,0.0,0.0,0.0,0.0,0.0,0.0,0.0,0.0,0.0,0.0,0.0,0.0,0.0,0.0,0.0,0.0,0.0,0.0,0.0,0.0,-2.043,-2.1622,-2.0251,0.0,0.0,0.0,0.0,-1.8223,-1.9084,0.0,0.0,0.0,0.0,0.0,0.0,0.0,0.0,0.0,0.0,0.0,0.0,0.0,0.0,0.0,0.0,0.0,0.0,0.0,0.0,0.0,0.0,0.0,0.0,0.0,0.0,0.0,0.0,0.0,0.0,0.0,0.0,0.0,0.0,0.0,0.0,0.0,0.0,0.0,0.0,0.0,0.0,0.0,0.0,0.0,0.0,0.0,0.0,0.0,0.0,0.0,0.0,0.0,0.0,0.0,0.0,-1.2218,-1.5106,-1.7241,-1.8528,-1.8801,-1.8823,-1.8575,-1.7321,-1.5623,0.0,0.0,0.0,0.0,0.0,0.0,0.0,0.0,0.0,0.0,0.0,0.0,0.0,0.0,0.0,0.0,0.0,0.0,0.0,0.0,0.0,0.0,0.0,0.0,0.0,0.0,0.0,0.0,0.0,0.0,0.0,0.0,0.0,0.0,0.0,0.0,0.0,0.0,0.0,0.0,0.0,-2.3392,-2.2584,-2.1704,-2.1232,0.0,0.0,-2.155,-2.33,-2.4482,0.0,0.0,0.0,0.0,0.0,0.0,0.0,0.0,0.0,0.0,0.0,0.0,0.0,0.0,0.0,0.0,0.0,0.0,0.0,0.0,0.0,0.0,0.0,0.0,0.0,0.0,0.0,0.0,0.0,0.0,0.0,0.0,0.0,0.0,0.0,0.0,0.0,0.0,0.0,0.0,0.0,0.0,0.0,0.0,0.0,0.0,0.0,0.0,0.0,0.0,0.0,0.0,0.0,0.0,0.0,-1.2129,-1.3846,-1.7732,-2.0203,-2.1108,-2.143,-2.143,-2.1147,-1.9103,-1.698,0.0,0.0,0.0,0.0,0.0,0.0,0.0,0.0,0.0,0.0,0.0,0.0,0.0,0.0,0.0,0.0,0.0,0.0,0.0,0.0,0.0,0.0,0.0,0.0,0.0,0.0,0.0,0.0,0.0,0.0,0.0,0.0,0.0,0.0,0.0,0.0,0.0,0.0,0.0,0.0,0.0,0.0,-2.4459,-2.41,0.0,0.0,0.0,-2.3725,-2.4741,0.0,0.0,0.0,0.0,0.0,0.0,0.0,0.0,0.0,0.0,0.0,0.0,0.0,0.0,0.0,0.0,0.0,0.0,0.0,0.0,0.0,0.0,0.0,0.0,0.0,0.0,0.0,0.0,0.0,0.0,0.0,0.0,0.0,0.0,0.0,0.0,0.0,0.0,0.0,0.0,0.0,0.0,0.0,0.0,0.0,0.0,0.0,0.0,0.0,0.0,0.0,0.0,0.0,0.0,0.0,0.0,0.0,-1.4963,-1.9739,-2.2539,-2.3162,-2.3403,-2.3417,-2.3148,-2.0755,0.0,0.0,0.0,0.0,0.0,0.0,0.0,0.0,0.0,0.0,0.0,0.0,0.0,0.0,0.0,0.0,0.0,0.0,0.0,0.0,0.0,0.0,0.0,0.0,0.0,0.0,0.0,-0.9353,0.0,0.0,0.0,0.0,0.0,0.0,0.0,0.0,0.0,0.0,0.0,0.0,0.0,0.0,-2.4632,-2.6055,-2.6573,-2.7167,0.0,0.0,-2.6404,-2.6755,-2.7568,-2.6912,0.0,0.0,0.0,0.0,0.0,0.0,0.0,0.0,0.0,0.0,0.0,0.0,0.0,0.0,0.0,0.0,0.0,0.0,0.0,0.0,0.0,0.0,0.0,0.0,0.0,0.0,0.0,0.0,0.0,0.0,0.0,0.0,0.0,0.0,0.0,0.0,0.0,0.0,0.0,0.0,0.0,0.0,0.0,0.0,0.0,0.0,0.0,0.0,0.0,0.0,0.0,0.0,0.0,0.0,0.0,-1.538,-2.0113,-2.285,-2.3539,-2.3583,-2.3583,-2.3539,-2.1934,-1.9899,0.0,0.0,0.0,0.0,0.0,0.0,0.0,0.0,0.0,0.0,0.0,0.0,0.0,0.0,0.0,0.0,0.0,0.0,0.0,0.0,0.0,0.0,0.0,0.0,0.0,0.0,0.0,0.0,0.0,0.0,0.0,0.0,0.0,0.0,0.0,0.0,0.0,0.0,0.0,0.0,0.0,-2.6489,-2.6887,-2.8747,-3.0535,0.0,0.0,-3.0326,-3.1045,-3.2523,-3.1691,-2.599,0.0,0.0,0.0,0.0,0.0,0.0,0.0,0.0,0.0,0.0,0.0,0.0,0.0,0.0,0.0,0.0,0.0,0.0,0.0,0.0,0.0,0.0,0.0,0.0,0.0,0.0,0.0,0.0,0.0,0.0,0.0,0.0,0.0,0.0,0.0,0.0,0.0,0.0,0.0,0.0,0.0,0.0,0.0,0.0,0.0,0.0,0.0,0.0,0.0,0.0,0.0,0.0,0.0,-1.4459,-1.5519,-2.0157,-2.2945,-2.3559,-2.3603,-2.3603,-2.3588,-2.223,-2.0367,0.0,0.0,0.0,0.0,0.0,0.0,0.0,0.0,0.0,0.0,0.0,0.0,0.0,0.0,0.0,0.0,0.0,0.0,0.0,0.0,0.0,0.0,0.0,0.0,0.0,0.0,0.0,0.0,-1.4003,-1.4666,-1.5122,0.0,0.0,0.0,0.0,0.0,0.0,0.0,0.0,0.0,0.0,-2.7864,-2.9896,-3.1216,0.0,0.0,-3.2829,-3.2225,-3.2912,-3.2304,-3.0618,-2.7225,-2.4811,0.0,0.0,0.0,0.0,0.0,0.0,0.0,0.0,0.0,0.0,0.0,0.0,0.0,0.0,0.0,0.0,0.0,0.0,0.0,0.0,0.0,0.0,0.0,0.0,0.0,0.0,0.0,0.0,0.0,0.0,0.0,0.0,0.0,0.0,0.0,0.0,0.0,0.0,0.0,0.0,0.0,0.0,0.0,0.0,0.0,0.0,0.0,0.0,0.0,0.0,0.0,0.0,-1.4799,-1.5821,-2.0402,-2.3106,-2.3758,-2.3773,-2.3773,-2.3729,-2.2617,-2.0973,0.0,0.0,0.0,0.0,0.0,0.0,0.0,0.0,0.0,0.0,0.0,0.0,0.0,0.0,0.0,0.0,0.0,0.0,0.0,0.0,0.0,0.0,0.0,0.0,0.0,0.0,0.0,0.0,-1.5309,-1.5706,-1.5586,0.0,0.0,0.0,0.0,0.0,0.0,0.0,0.0,0.0,0.0,-2.9408,-3.2249,-3.2829,-3.3329,-3.4489,-3.3364,-3.2573,-3.3094,-3.1864,-3.0038,-2.7818,0.0,0.0,0.0,0.0,0.0,0.0,0.0,0.0,0.0,0.0,0.0,0.0,0.0,0.0,0.0,0.0,0.0,0.0,0.0,0.0,0.0,0.0,0.0,0.0,0.0,0.0,0.0,0.0,0.0,0.0,-0.3769,0.0,0.0,0.0,0.0,0.0,0.0,0.0,0.0,0.0,0.0,0.0,0.0,0.0,0.0,0.0,0.0,0.0,0.0,0.0,0.0,0.0,0.0,-1.5312,-1.6437,-2.0837,-2.3444,-2.41,-2.4131,-2.4131,-2.4115,-2.3139,-2.1963,-2.0554,0.0,0.0,0.0,0.0,0.0,0.0,0.0,0.0,0.0,0.0,0.0,0.0,0.0,0.0,0.0,0.0,0.0,0.0,0.0,0.0,0.0,0.0,0.0,0.0,0.0,0.0,-1.5018,-1.5635,-1.5867,0.0,0.0,0.0,0.0,0.0,0.0,0.0,0.0,0.0,0.0,-2.8253,-3.12,-3.3331,-3.3284,-3.3378,-3.4126,-3.2595,-3.1372,-3.1673,-3.1785,-3.0904,0.0,0.0,0.0,0.0,0.0,0.0,0.0,0.0,0.0,0.0,0.0,0.0,0.0,0.0,0.0,0.0,0.0,0.0,0.0,0.0,0.0,0.0,0.0,0.0,0.0,0.0,0.0,-0.6331,-0.6477,0.0,0.0,0.0,0.0,0.0,0.0,0.0,0.0,0.0,0.0,0.0,-1.4008,-1.4162,0.0,0.0,0.0,0.0,0.0,0.0,0.0,0.0,0.0,0.0,0.0,0.0,-1.6058,-1.7336,-2.132,-2.3849,-2.4702,-2.4795,-2.4795,-2.4795,-2.419,-2.2775,-2.0476,0.0,0.0,0.0,0.0,0.0,0.0,0.0,0.0,0.0,0.0,0.0,0.0,0.0,0.0,0.0,0.0,0.0,0.0,0.0,0.0,0.0,0.0,0.0,0.0,0.0,-1.5283,0.0,0.0,0.0,0.0,0.0,0.0,0.0,0.0,0.0,0.0,0.0,-2.3462,-2.5704,-2.914,-3.2014,-3.3623,-3.4065,-3.4589,0.0,0.0,0.0,0.0,0.0,0.0,0.0,0.0,0.0,0.0,0.0,0.0,0.0,0.0,-2.6292,-2.2576,-2.1394,-2.1307,-2.2224,0.0,0.0,0.0,0.0,0.0,0.0,0.0,0.0,0.0,0.0,0.0,0.0,0.0,0.0,-1.0092,0.0,-1.0134,0.0,0.0,0.0,0.0,0.0,0.0,0.0,0.0,-1.5952,-1.6986,-1.7334,-1.7305,-1.6996,0.0,-1.5446,-1.4143,0.0,0.0,0.0,0.0,0.0,0.0,0.0,0.0,-1.6842,-1.8548,-2.2117,-2.4448,-2.5362,-2.5533,-2.5546,-2.54,-2.4828,-2.3445,-2.1187,-1.9788,-1.8118,0.0,0.0,0.0,0.0,0.0,0.0,0.0,0.0,0.0,0.0,0.0,0.0,0.0,0.0,0.0,0.0,0.0,0.0,0.0,0.0,0.0,0.0,0.0,-1.692,0.0,0.0,0.0,0.0,0.0,0.0,0.0,0.0,0.0,-1.8732,-2.2288,-2.5582,-2.7434,-3.0632,-3.3115,-3.3916,0.0,0.0,0.0,0.0,0.0,0.0,0.0,-3.0851,-3.0254,-2.911,-2.8368,-2.8626,-2.9663,-3.0186,-2.929,0.0,0.0,-2.5953,-2.5029,-2.5149,-2.6229,-2.5869,-2.5953,-2.779,-2.789,-2.7951,0.0,0.0,0.0,0.0,0.0,0.0,0.0,0.0,-1.3595,-1.3664,0.0,-1.3813,0.0,0.0,0.0,0.0,0.0,0.0,0.0,0.0,-1.9018,-2.0004,-1.9824,-1.9568,-1.9312,-1.9043,-1.8693,-1.8381,-1.8011,-1.4813,0.0,0.0,0.0,0.0,0.0,0.0,-1.7743,-2.0292,-2.3143,-2.5163,-2.6139,-2.6415,-2.6412,-2.5982,-2.5147,-2.3999,-2.2705,-2.162,-2.0228,-1.8498,-1.6702,0.0,0.0,0.0,0.0,0.0,0.0,0.0,0.0,0.0,0.0,0.0,0.0,0.0,0.0,0.0,0.0,0.0,0.0,0.0,0.0,-1.8244,0.0,0.0,0.0,0.0,0.0,0.0,0.0,0.0,0.0,0.0,-2.1565,-2.4285,-2.7248,-2.9738,0.0,0.0,0.0,0.0,-3.3806,-3.3508,-3.2367,-3.1689,-3.1924,-3.263,-3.3009,-3.2432,0.0,0.0,-3.1864,-3.2098,-3.1753,-2.9204,-2.9987,-3.0865,-3.1248,-3.0195,-2.981,-3.0899,-3.0454,-3.0581,-3.1659,-3.1618,-3.1919,-1.5894,0.0,0.0,0.0,0.0,-1.3849,-1.5466,-1.7939,-1.7872,-1.7772,-1.7692,-1.7146,0.0,0.0,0.0,0.0,0.0,0.0,-1.7805,-1.9262,-2.0112,-2.094,-2.1648,-2.1306,-2.1672,-2.2535,-2.1568,-2.1601,-2.2573,-2.0938,-1.7767,-1.3398,0.0,0.0,0.0,0.0,-2.0362,-2.214,-2.4317,-2.5949,-2.7002,-2.6859,-2.6603,-2.6236,-2.5854,-2.5201,-2.4259,-2.361,-2.2517,-2.0916,-1.9344,0.0,0.0,0.0,0.0,0.0,0.0,0.0,0.0,0.0,0.0,0.0,0.0,0.0,0.0,0.0,0.0,0.0,0.0,0.0,-1.7341,-1.8779,-1.9323,0.0,0.0,0.0,0.0,0.0,0.0,0.0,0.0,0.0,-2.5634,-2.7646,-2.8931,0.0,0.0,-3.3465,-3.2427,-3.3453,-3.455,-3.5132,0.0,0.0,0.0,-3.4364,-3.3912,-3.3806,-3.4511,-3.4893,-3.437,-3.4428,-3.4167,-3.2854,-3.2913,-3.3295,-3.3698,-3.2573,-3.1842,-3.2577,-3.2361,-3.2276,-3.3118,-3.3315,-3.3544,-2.1494,-1.8779,-1.6503,-1.6062,-1.6969,-1.729,-1.898,-2.1459,-2.129,-2.1192,-2.1032,-2.0608,-1.9187,-1.7068,-1.6501,0.0,0.0,0.0,-2.0174,-2.1632,-2.1851,-2.2349,-2.3038,-2.3389,-2.3975,-2.4628,-2.4168,-2.4657,-2.5973,-2.4597,-2.1966,-1.824,0.0,0.0,-1.6665,-1.9613,-2.1979,-2.3642,-2.5069,-2.6241,-2.7128,-2.6871,-2.6739,-2.6675,-2.6354,-2.5989,-2.5496,-2.5034,-2.4249,-2.3159,-2.147,-1.9653,0.0,0.0,0.0,0.0,0.0,0.0,0.0,0.0,0.0,0.0,0.0,-1.3652,-1.1486,0.0,0.0,0.0,-1.5933,-1.7965,-1.9761,-2.0745,0.0,0.0,0.0,0.0,0.0,0.0,0.0,-2.3762,-2.5142,-2.6533,-2.8176,-3.0209,-3.1182,-3.0396,-3.2855,-3.434,-3.3338,0.0,-3.5604,-3.5964,-3.5993,-3.6065,-3.6251,-3.5809,-3.5542,-3.5845,-3.6199,-3.6445,-3.6283,-3.6079,-3.5583,-3.4839,-3.4339,-3.4316,-3.5156,-3.4383,-3.3892,-3.4673,-3.4675,-3.4665,-3.4865,-3.4891,-3.5143,-2.6421,-2.5223,-1.9848,-1.8598,-2.0179,-2.054,-2.2031,-2.4298,-2.3962,-2.3892,-2.4058,-2.4004,-2.3092,-2.1611,-2.0616,0.0,-2.1631,-2.1985,-2.2632,-2.3683,-2.395,-2.3994,-2.4062,-2.5427,-2.5968,-2.5793,-2.6597,-2.7463,-2.8281,-2.6584,-2.5429,-2.4804,-2.2536,-2.124,-2.0943,-2.1712,-2.2979,-2.4861,-2.5561,-2.6162,-2.6782,-2.6744,-2.6882,-2.7234,-2.6658,-2.6408,-2.6427,-2.5829,-2.5389,-2.4971,-2.31,-2.1297,-1.9659,0.0,0.0,0.0,0.0,0.0,0.0,0.0,0.0,0.0,0.0,0.0,0.0,0.0,0.0,0.0,-1.9488,0.0,-2.3094,-2.3389,0.0,0.0,0.0,-2.1844,-2.309,-2.3659,-2.4542,-2.6099,0.0,0.0,-2.9557,0.0,-3.3557,-3.3417,-3.5138,-3.6211,-3.5788,-3.6372,-3.6814,-3.6238,-3.6317,-3.6454,-3.6606,-3.6954,-3.7455,-3.792,-3.824,-3.806,-3.7682,-3.7132,-3.6324,-3.5288,-3.4561,-3.4502,-3.552,-3.5751,-3.6195,-3.6734,-3.698,-3.6972,-3.6332,-3.6163,-3.6352,-2.6986,-2.6687,-2.5567,-2.4794,-2.4339,-2.443,-2.5153,-2.6256,-2.5972,-2.5978,-2.6038,-2.558,-2.4818,-2.3718,-2.3256,-2.327,-2.377,-2.384,-2.412,-2.4526,-2.4386,-2.4316,-2.4357,-2.5531,-2.6624,-2.7588,-2.8544,-2.9661,-3.0798,-2.9865,-2.8957,-2.8163,-2.7253,-2.5124,-2.2016,-2.3624,-2.4945,-2.5736,-2.6191,-2.6591,-2.694,-2.6921,-2.7084,-2.7302,-2.6654,-2.6371,-2.6673,-2.5648,-2.5085,-2.5167,-2.3836,-2.2486,-2.1343,-1.8379,0.0,0.0,0.0,0.0,0.0,0.0,0.0,0.0,0.0,-1.6896,-1.4095,0.0,-1.7518,0.0,-2.133,-2.3063,-2.3371,-2.3484,0.0,0.0,-2.4055,-2.4459,-2.6586,-2.6866,-2.7404,-2.8737,-2.9238,-2.9838,-3.0803,-3.2672,-3.4066,-3.4395,-3.5527,-3.5999,-3.5235,-3.629,-3.7171,-3.7084,-3.7382,-3.7738,-3.7709,-3.7994,-3.8251,-3.8427,-3.8538,-3.8627,-3.8517,-3.8024,-3.7169,-3.6005,-3.5868,-3.5922,-3.5763,-3.6489,-3.7169,-3.7297,-3.7101,-3.6646,-3.5953,-3.5789,-3.5855,-2.8497,-2.8406,-2.8451,-2.803,-2.7203,-2.7068,-2.7105,-2.7333,-2.7305,-2.7198,-2.6968,-2.673,-2.6078,-2.5399,-2.5356,-2.544,-2.5598,-2.5469,-2.5498,-2.5641,-2.5941,-2.5983,-2.5903,-2.7791,-2.9006,-2.9639,-3.0836,-3.1612,-3.1965,-3.1446,-3.0816,-3.0111,-2.9582,-2.7977,-2.5465,-2.598,-2.6231,-2.618,-2.6509,-2.6875,-2.7152,-2.7037,-2.6849,-2.682,-2.6351,-2.5984,-2.5819,-2.5091,-2.4679,-2.4609,-2.3583,-2.2629,-2.1743,-1.9527,-1.7888,0.0,0.0,0.0,0.0,0.0,0.0,0.0,0.0,0.0,0.0,0.0,-1.993,-2.0991,-2.3126,-2.4723,-2.54,-2.5707,-2.6308,-2.7226,-2.7016,-2.7476,-2.9038,-2.9151,-2.9438,-3.0407,-3.0507,-3.0809,-3.1678,-3.3265,-3.4539,-3.5071,-3.6297,-3.6945,-3.6502,-3.7152,-3.7709,-3.7738,-3.7999,-3.824,-3.8315,-3.8501,-3.8612,-3.8649,-3.8723,-3.8833,-3.8907,-3.844,-3.7747,-3.7147,-3.6985,-3.694,-3.6884,-3.7391,-3.7953,-3.8187,-3.7801,-3.6979,-3.5908,-3.5678,-3.5678,-3.0281,-3.0043,-2.9677,-2.9383,-2.9156,-2.8903,-2.8452,-2.7931,-2.8035,-2.7889,-2.7459,-2.7469,-2.7176,-2.6659,-2.6983,-2.7086,-2.7027,-2.6966,-2.689,-2.6959,-2.7834,-2.8164,-2.8199,-3.0593,-3.1624,-3.1469,-3.2891,-3.3148,-3.2378,-3.209,-3.1637,-3.1123,-3.0479,-2.987,-2.9317,-2.8233,-2.7311,-2.6539,-2.6695,-2.6986,-2.7381,-2.7002,-2.6584,-2.6167,-2.5894,-2.5429,-2.464,-2.4431,-2.4141,-2.3711,-2.3008,-2.2372,-2.1768,-2.0478,-1.9329,0.0,-1.7427,0.0,0.0,0.0,0.0,0.0,0.0,0.0,0.0,-2.2493,-2.3054,-2.3215,-2.5003,-2.6706,-2.8014,-2.8637,-2.9277,-2.9829,-2.9955,-3.0181,-3.0658,-3.0834,-3.106,-3.1461,-3.1486,-3.1687,-3.2156,-3.3697,-3.4939,-3.5613,-3.7028,-3.8072,-3.8289,-3.8269,-3.8219,-3.8277,-3.8277,-3.8389,-3.8501,-3.8723,-3.8833,-3.8833,-3.8907,-3.8943,-3.9119,-3.868,-3.8302,-3.8302,-3.7955,-3.781,-3.8241,-3.8334,-3.8645,-3.9082,-3.8699,-3.7878,-3.6587,-3.61,-3.5985,-3.034,-3.0181,-3.011,-3.0062,-3.0103,-3.003,-2.9636,-2.8859,-2.8482,-2.8368,-2.8535,-2.8322,-2.8133,-2.7987,-2.7815,-2.7627,-2.7452,-2.8612,-2.9136,-2.9194,-2.9114,-2.9646,-3.0661,-3.0632,-3.1027,-3.1753,-3.2906,-3.3155,-3.2669,-3.2669,-3.2044,-3.0976,-3.0781,-3.02,-2.922,0.0,0.0,0.0,-2.6933,-2.6959,-2.7209,-2.6877,-2.6525,-2.6353,-2.5625,0.0,-2.4477,-2.4095,-2.3711,-2.3364,-2.3299,0.0,0.0,0.0,0.0,0.0,0.0,0.0,0.0,0.0,0.0,0.0,-2.3005,-2.2967,-2.2902,-2.5382,-2.6593,-2.5707,-2.7668,-2.9126,-2.9414,-2.9515,-2.9854,-3.0407,-3.0834,-3.1135,-3.126,-3.2039,-3.2491,-3.2089,-3.2039,-3.2047,-3.2256,-3.353,-3.4817,-3.575,-3.7135,-3.8388,-3.9148,-3.8748,-3.853,-3.8649,-3.8686,-3.8723,-3.876,-3.8907,-3.9017,-3.9083,-3.9192,-3.9265,-3.9301,-3.9277,-3.8928,-3.8555,-3.8712,-3.8746,-3.8427,-3.8761,-3.9121,-3.9288,-3.9183,-3.8825,-3.7911,-3.725,-3.6679,-3.1335,0.0,-3.1155,-3.1617,0.0,-3.2258,-3.2441,-3.2475,-3.0115,-2.9193,-2.9269,-2.9105,-2.8879,-2.8715,-2.8372,-2.8729,-2.9497,-2.9881,-3.0568,-3.1483,-3.1389,-3.176,-3.2459,-3.2562,-3.2829,-3.3126,-3.3867,-3.3803,-3.301,-3.3168,-3.2732,-3.1662,-3.1662,-3.1307,-3.0758,-3.0495,-2.962,-2.818,-2.7564,-2.7386,-2.7718,-2.7331,-2.6929,-2.6387,0.0,0.0,0.0,0.0,0.0,0.0,0.0,0.0,0.0,0.0,0.0,-2.1857,-2.1056,-2.0683,-2.0909,-2.1486,-2.2569,-2.4342,-2.5747,-2.6348,-2.597,-2.7764,-2.8775,-2.8434,-2.9535,-3.0432,-3.0934,-3.0984,-3.121,-3.1763,-3.2064,-3.2256,-3.2307,-3.2717,-3.2842,-3.234,-3.2215,-3.2315,-3.2616,-3.3746,-3.5148,-3.6607,-3.7901,-3.9011,-3.9542,-3.9135,-3.8686,-3.8797,-3.8907,-3.8943,-3.898,-3.909,-3.9228,-3.9265,-3.9337,-3.9403,-3.9403,-3.9403,-3.9264,-3.8987,-3.9151,-3.9153,-3.8914,-3.9078,-3.9315,-3.9315,-3.9315,-3.9216,-3.8758,-3.8162,-3.7433,-3.3314,-3.2927,-3.2995,-3.3742,-3.4718,-3.4635,-3.5234,-3.5887,0.0,0.0,0.0,-3.0523,-3.0351,-3.0021,-2.9723,-3.0412,-3.1739,-3.1439,-3.2121,-3.3637,-3.3704,-3.3841,-3.4085,-3.4547,-3.4722,-3.4506,-3.4785,-3.4383,-3.3276,-3.3538,-3.3236,-3.2512,-3.2351,-3.2311,-3.227,-3.1449,-3.0498,-2.9207,-2.8363,-2.8068,-2.8323,-2.7931,-2.7393,-2.6556,-2.5864,-2.4947,-2.3859,-2.3574,-2.3299,-2.2957,-2.2978,-2.3102,-2.3349,-2.3268,-2.331,-2.3536,-2.3474,-2.3474,-2.3577,-2.4632,-2.5508,-2.6013,-2.8269,-2.9544,-2.9351,-2.988,-3.0407,-3.0859,-3.0984,-3.1411,-3.2265,-3.2365,-3.2541,-3.3086,-3.3136,-3.3111,-3.3111,-3.3237,-3.3111,-3.2659,-3.2709,-3.2928,-3.3536,-3.4562,-3.5904,-3.7646,-3.893,-3.9708,-3.9963,-3.9432,-3.8943,-3.8943,-3.9053,-3.9156,-3.9192,-3.9265,-3.9403,-3.9373,-3.9373,-3.9403,-3.9403,-3.9403,-3.9329,-3.914,-3.9244,-3.9216,-3.9172,-3.9209,-3.9255,-3.9149,-3.9249,-3.9249,-3.9116,-3.8725,-3.8162,-3.7153,-3.6431,-3.6459,-3.6567,-3.6737,-3.6483,-3.623,-3.6106,-3.5064,-3.4481,-3.4157,-3.4157,-3.3874,-3.3509,-3.3457,-3.3238,-3.2966,-3.4064,-3.477,0.0,-3.4699,-3.5145,-3.6207,-3.4525,-3.4044,-3.4735,-3.4629,-3.4242,-3.3699,-3.3357,-3.2934,-3.253,-3.2069,-3.1888,-3.1828,-3.1365,-3.0806,-3.0269,-2.9407,-2.8805,-2.8485,-2.8064,-2.7633,-2.7111,-2.6287,-2.5571,-2.4987,-2.4634,-2.4371,-2.4311,-2.4506,-2.4778,-2.5169,-2.4605,-2.4444,-2.4838,-2.4528,-2.4487,-2.4902,-2.5873,-2.753,-2.9853,-3.1111,-3.1589,-3.1094,-3.1562,-3.1913,-3.2014,-3.2416,-3.2792,-3.2943,-3.2968,-3.3018,-3.3136,-3.3136,-3.3136,-3.3187,-3.3564,-3.3834,-3.3951,-3.4407,-3.4724,-3.5091,-3.6245,-3.7467,-3.8723,-3.9852,-4.0437,-4.0262,-3.9755,-3.9361,-3.9301,-3.9337,-3.9337,-3.9337,-3.9373,-3.9403,-3.9403,-3.9403,-3.9403,-3.9403,-3.9403,-3.9204,-3.8647,-3.8994,-3.9026,-3.8656,-3.8942,-3.897,-3.8659,-3.8858,-3.9116,-3.8593,-3.8725,-3.8858,-3.8275,-3.7596,-3.7816,-3.8451,-3.9359,-3.9568,-3.9618,-3.9434,-3.867,-3.7257,-3.5589,-3.5372,-3.4974,-3.4595,-3.4379,-3.4571,-3.5065,-3.5413,-3.6181,-3.7137,-3.6515,-3.6449,-3.6635,-3.5468,-3.4979,-3.519,-3.4984,-3.4759,-3.4329,-3.3859,-3.3409,-3.298,-3.253,-3.2326,-3.2305,-3.2064,-3.1774,-3.1324,-3.012,-2.9293,-2.885,-2.8649,-2.8327,-2.7884,-2.7409,-2.6939,-2.652,-2.5987,-2.5665,-2.5665,-2.553,-2.5554,-2.5739,-2.5458,-2.5357,-2.5564,-2.5378,-2.5482,-2.5937,-2.7117,-2.8925,-3.1444,-3.2069,-3.2599,-3.3151,-3.3144,-3.3119,-3.3144,-3.3646,-3.3972,-3.3972,-3.3972,-3.3972,-3.3972,-3.3972,-3.4016,-3.4174,-3.435,-3.466,-3.4882,-3.5156,-3.5456,-3.5897,-3.6649,-3.7891,-3.9403,-4.0732,-4.1381,-4.098,-4.0367,-3.9798,-3.9463,-3.9403,-3.9403,-3.9403,-3.9403,-3.9403,-3.9403,-3.9403,-3.9403,-3.9403,-3.9403,-3.9133,-3.8607,-3.8889,-3.8998,-3.8437,-3.8884,-3.889,-3.8493,-3.8791,-3.8924,-3.8526,-3.8791,-3.8984,-3.9911,-3.9396,-3.9537,-4.0511,-4.1788,-4.2248,-4.2417,-4.2313,-4.1492,-3.9746,-3.7563,-3.6967,-3.6535,-3.6067,-3.5703,-3.6105,-3.6937,-3.6629,-3.724,-3.8517,-3.786,-3.7301,-3.6929,-3.639,-3.5935,-3.5583,-3.5459,-3.5252,-3.4879,-3.4445,-3.3986,-3.3389,-3.2934,-3.2669,-3.2669,-3.2669,-3.2442,-3.1967,-3.0799,-2.9971,-2.9472,-2.9351,-2.9181,-2.8857,-2.8564,-2.8307,-2.7967,-2.7373,-2.7034,-2.7013,-2.6729,-2.6455,-2.6351,-2.633,-2.6289,-2.6252,-2.6231,-2.6668,-2.7572,-2.8566,-3.0284,-3.2696,-3.2925,-3.3437,-3.449,-3.4449,-3.4198,-3.4173,-3.4424,-3.4655,-3.4675,-3.4745,-3.4771,-3.4771,-3.4861,-3.5021,-3.5283,-3.5378,-3.5519,-3.5865,-3.5936,-3.6187,-3.6812,-3.7348,-3.8546,-4.0647,-4.1946,-4.2273,-4.1534,-4.0905,-4.0367,-3.9642,-3.9403,-3.9403,-3.9403,-3.9403,-3.9403,-3.9403,-3.9403,-3.9403,-3.9403,-3.9403,-3.902,-3.8447,-3.882,-3.8842,-3.8426,-3.8817,-3.8917,-3.846,-3.8791,-3.9116,-3.8659,-3.8725,-3.8758,-4.3664,-4.3553,-4.3063,-4.3351,-4.3794,-4.3088,-4.2785,-4.2659,-4.2137,-4.1806,-4.1197,-4.0749,-4.0105,-3.9695,-3.9155,-3.8794,-3.8541,-3.8176,-3.8079,-3.8212,-3.7736,-3.7467,-3.7343,-3.6535,-3.6101,-3.5976,-3.5625,-3.5397,-3.5314,-3.4879,-3.4238,-3.343,-3.2954,-3.269,-3.2669,-3.2669,-3.2499,-3.1988,-3.1492,-3.1037,-3.0582,-3.0148,-2.9921,-2.9828,-2.9425,-2.9177,-2.9095,-2.869,-2.8421,-2.8421,-2.8338,-2.8152,-2.7779,-2.7717,-2.7552,-2.7226,-2.7185,-2.8109,-3.0304,-3.0697,-3.1853,-3.4144,-3.4445,-3.4495,-3.4756,-3.5107,-3.5132,-3.4826,-3.4726,-3.4801,-3.4726,-3.4956,-3.5167,-3.5218,-3.5366,-3.5622,-3.6083,-3.6186,-3.6482,-3.7206,-3.7175,-3.7691,-3.847,-3.9355,-4.0746,-4.2123,-4.2771,-4.2731,-4.1713,-4.1362,-4.0786,-3.9798,-3.9403,-3.9403,-3.9403,-3.9403,-3.9343,-3.9373,-3.9409,-3.9284,-3.9194,-3.9194,-3.9014,-3.8082,-3.8473,-3.8748,-3.8291,-3.8367,-3.8943,-3.846,-3.8692,-3.9183,-3.9116,-3.8785,-3.8195,-4.4871,-4.4579,-4.4592,-4.4688,-4.4774,-4.3955,-4.3531,-4.3431,-4.3007,-4.2769,-4.263,-4.2349,-4.1741,-4.0808,-4.0138,-3.961,-3.9104,-3.8512,-3.8191,-3.8171,-3.7984,-3.7757,-3.7446,-3.6846,-3.639,-3.608,-3.5645,-3.5418,-3.5355,-3.4962,-3.43,-3.3472,-3.3203,-3.2996,-3.269,-3.2669,-3.2566,-3.238,-3.1946,-3.1547,-3.1071,-3.0387,-2.9994,-2.9973,-2.9808,-2.9704,-2.9663,-2.927,-2.9021,-2.9001,-2.8752,-2.8545,-2.8289,-2.8338,-2.8255,-2.8139,-2.8661,-3.0024,-3.2205,-3.2344,-3.3138,-3.5015,-3.5157,-3.5282,-3.5655,-3.5906,-3.5952,-3.5915,-3.5865,-3.5865,-3.5886,-3.6095,-3.6305,-3.6305,-3.6371,-3.661,-3.6979,-3.7005,-3.7226,-3.7664,-3.7762,-3.7874,-3.8504,-3.9694,-4.0817,-4.1811,-4.2508,-4.2901,-4.2141,-4.1692,-4.1025,-4.0187,-3.9679,-3.9403,-3.9403,-3.9403,-3.926,-3.8931,-3.8811,-3.8751,-3.8392,-3.8631,-3.8452,-3.7554,-3.8279,-3.8653,-3.8209,-3.8219,-3.8592,-3.8309,-3.793,-3.8195,-3.9083,-3.8771,-3.8066,-4.561,-4.5352,-4.563,-4.5704,-4.5661,-4.4888,-4.4487,-4.425,-4.3916,-4.3626,-4.3419,-4.3397,-4.2944,-4.209,-4.1087,-4.0345,-3.9833,-3.9034,-3.8629,-3.8458,-3.8458,-3.8336,-3.7916,-3.7392,-3.6871,-3.6414,-3.5832,-3.5562,-3.5376,-3.4817,-3.4277,-3.3637,-3.343,-3.3161,-3.2711,-3.2669,-3.2669,-3.2685,-3.2215,-3.1878,-3.1485,-3.0657,-3.0139,-3.0015,-2.9994,-2.9994,-2.9994,-2.9684,-2.9497,-2.9477,-2.9166,-2.8938,-2.8814,-2.8814,-2.8853,-2.9105,-3.0046,-3.147,-3.338,-3.3498,-3.4159,-3.554,-3.5827,-3.6024,-3.6398,-3.6546,-3.6687,-3.6777,-3.6849,-3.6871,-3.6875,-3.7062,-3.7201,-3.7201,-3.7273,-3.7413,-3.7551,-3.7598,-3.769,-3.7854,-3.7854,-3.8175,-3.88,-4.026,-4.1532,-4.1728,-4.2548,-4.309,-4.256,-4.1961,-4.1384,-4.0546,-4.0014,-3.9685,-3.9469,-3.9403,-3.911,-3.8631,-3.8422,-3.8242,-3.7614,-3.8003,-3.8252,-3.7751,-3.8175,-3.8397,-3.8427,-3.8473,-3.864,-3.8547,-3.8233,-3.8159,-3.9242,-3.8961,-3.852,-4.6664,-4.6544,-4.6522,-4.6522,-4.6477,-4.6014,-4.5528,-4.5042,-4.498,-4.4651,-4.4295,-4.4273,-4.4181,-4.4023,-4.2504,-4.1568,-4.1047,-4.0216,-3.9569,-3.9207,-3.9165,-3.9144,-3.9101,-3.8308,-3.7716,-3.7212,-3.6477,-3.5894,-3.5438,-3.4629,-3.4093,-3.409,-3.3696,-3.324,-3.2809,-3.2804,-3.2727,-3.2742,-3.2313,-3.1967,-3.1899,-3.1112,-3.047,-3.0077,-2.9994,-2.9994,-2.9994,-2.9973,-2.9953,-2.9953,-2.9891,-2.9704,-2.9332,-2.927,-2.9518,-3.0204,-3.1134,-3.244,-3.3861,-3.4194,-3.4791,-3.6088,-3.6492,-3.6637,-3.6709,-3.6875,-3.7015,-3.7062,-3.7273,-3.732,-3.7155,-3.7341,-3.7459,-3.7505,-3.769,-3.7808,-3.7854,-3.7854,-3.79,-3.79,-3.7992,-3.8621,-4.0173,-4.2058,-4.2739,-4.29,-4.321,-4.312,-4.2689,-4.2449,-4.182,-4.1018,-4.0581,-4.0347,-3.9625,-3.9511,-3.9182,-3.8582,-3.8262,-3.8098,-3.7978,-3.7828,-3.7837,-3.8047,-3.8463,-3.8714,-3.8798,-3.8958,-3.9216,-3.9256,-3.9239,-3.9425,-3.9473,-3.9584,-3.9175,-4.7195,-4.7355,-4.7112,-4.7134,-4.7332,-4.6933,-4.6396,-4.5872,-4.5811,-4.5479,-4.5028,-4.5028,-4.5006,-4.4937,-4.414,-4.3235,-4.2318,-4.1127,-4.0472,-4.0343,-4.0083,-3.9866,-3.9736,-3.9045,-3.8445,-3.7869,-3.7128,-3.6497,-3.6034,-3.5402,-3.5167,-3.5023,-3.4623,-3.418,-3.3738,-3.3422,-3.3296,-3.3218,-3.2937,-3.2636,-3.2344,-3.1823,-3.1195,-3.047,-3.016,-2.9994,-2.9994,-2.9994,-2.9994,-2.9994,-2.9994,-2.9911,-2.9766,-2.9746,-3.0466,-3.1932,-3.2502,-3.3571,-3.5252,-3.5702,-3.5965,-3.6496,-3.6828,-3.6968,-3.6968,-3.7062,-3.7155,-3.7341,-3.7459,-3.7505,-3.7644,-3.7716,-3.7762,-3.7762,-3.7854,-3.79,-3.79,-3.79,-3.79,-3.7992,-3.8349,-3.9282,-4.0432,-4.1728,-4.2496,-4.2699,-4.317,-4.3407,-4.3421,-4.3098,-4.2546,-4.21,-4.1412,-4.0813,-4.0559,-4.0009,-3.9496,-3.862,-3.8016,-3.7503,-3.7201,-3.7741,-3.7899,-3.8243,-3.8685,-3.9404,-3.9589,-4.0005,-4.0192,-4.0074,-4.0065,-3.9755,-3.9603,-3.9613,-3.9269,-4.7721,-4.7941,-4.7721,-4.7721,-4.7941,-4.7721,-4.7155,-4.6555,-4.651,-4.6079,-4.5507,-4.5438,-4.5438,-4.537,-4.5074,-4.4573,-4.3668,-4.226,-4.1507,-4.1331,-4.0868,-4.0582,-4.0473,-3.993,-3.9387,-3.8779,-3.7708,-3.7007,-3.6707,-3.6235,-3.602,-3.5977,-3.5655,-3.5205,-3.4705,-3.4282,-3.4089,-3.3883,-3.3636,-3.3297,-3.2966,-3.2441,-3.192,-3.1425,-3.0891,-3.039,-3.0015,-2.9994,-2.9994,-2.9994,-2.9994,-2.9994,-2.9994,-3.0339,-3.1249,-3.275,-3.3549,-3.4532,-3.6001,-3.664,-3.6803,-3.6803,-3.7062,-3.7248,-3.7273,-3.7294,-3.7459,-3.7551,-3.7624,-3.7716,-3.7854,-3.79,-3.79,-3.79,-3.79,-3.79,-3.79,-3.79,-3.79,-3.8057,-3.897,-3.9869,-4.0603,-4.1728,-4.2456,-4.2739,-4.3329,-4.3754,-4.3858,-4.3623,-4.3198,-4.2955,-4.2088,-4.1456,-4.0999,-4.0482,-3.9803,-3.8918,-3.8216,-3.7461,-3.719,-3.7707,-3.8135,-3.8479,-3.9098,-3.9908,-4.0538,-4.1012,-4.1082,-4.0963,-4.0598,-4.0246,-3.9918,-3.9539,-3.943,-4.8377,-4.84,-4.8377,-4.8328,-4.8305,-4.8305,-4.7803,-4.6952,-4.6885,-4.6334,-4.553,-4.5461,-4.5438,-4.5438,-4.537,-4.5347,-4.4914,-4.3533,-4.2614,-4.2165,-4.1607,-4.136,-4.1293,-4.0926,-4.0378,-3.9825,-3.8236,-3.7478,-3.7352,-3.6975,-3.6734,-3.6734,-3.6691,-3.6209,-3.5312,-3.5269,-3.5006,-3.4544,-3.4233,-3.4065,-3.3966,-3.3098,-3.2656,-3.2674,-3.2129,-3.1303,-3.0223,-3.0109,-3.014,-3.0047,-3.0151,-3.0047,-3.0443,-3.1176,-3.1942,-3.2828,-3.419,-3.5331,-3.6001,-3.6734,-3.7134,-3.7257,-3.7392,-3.7635,-3.7785,-3.7898,-3.799,-3.8063,-3.8037,-3.8004,-3.8004,-3.7978,-3.7952,-3.79,-3.79,-3.79,-3.79,-3.7946,-3.7946,-3.833,-3.959,-4.0518,-4.1029,-4.214,-4.321,-4.3488,-4.3675,-4.3871,-4.4065,-4.3982,-4.3692,-4.3214,-4.2694,-4.2224,-4.1526,-4.0826,-4.0047,-3.9303,-3.8656,-3.8047,-3.7897,-3.8235,-3.8605,-3.8984,-3.9829,-4.0672,-4.1694,-4.2088,-4.1957,-4.1741,-4.1253,-4.0754,-4.0383,-4.0113,-4.0028,-4.8377,-4.8377,-4.8377,-4.8377,-4.8377,-4.8377,-4.801,-4.739,-4.7046,-4.6495,-4.5898,-4.5507,-4.5438,-4.5438,-4.5438,-4.5438,-4.5301,-4.4456,-4.3752,-4.3228,-4.275,-4.2317,-4.2002,-4.1614,-4.0908,-3.9869,-3.8653,-3.8118,-3.797,-3.7629,-3.7458,-3.7725,-3.748,-3.6991,-3.6449,-3.6092,-3.5669,-3.5135,-3.4869,-3.4702,-3.4646,-3.4013,-3.3497,-3.3231,-3.3005,-3.2565,-3.1881,-3.1307,-3.0884,-3.061,-3.1249,-3.1971,-3.2605,-3.2982,-3.3578,-3.4435,-3.4993,-3.5833,-3.6687,-3.716,-3.7619,-3.7924,-3.8215,-3.8543,-3.8856,-3.9003,-3.9024,-3.905,-3.9076,-3.8945,-3.8553,-3.8449,-3.8318,-3.7952,-3.79,-3.79,-3.7992,-3.844,-3.906,-3.9738,-4.0817,-4.1728,-4.2345,-4.329,-4.3636,-4.3871,-4.4026,-4.4181,-4.4374,-4.4343,-4.4419,-4.4082,-4.3543,-4.2892,-4.2283,-4.1546,-4.0738,-3.9994,-3.9283,-3.8821,-3.8702,-3.8644,-3.9048,-3.9722,-4.0567,-4.1469,-4.2495,-4.2981,-4.282,-4.2591,-4.2226,-4.1651,-4.1068,-4.0798,-4.0756,-4.8707,-4.84,-4.8377,-4.8377,-4.8377,-4.8377,-4.8102,-4.7597,-4.7092,-4.6586,-4.6081,-4.5576,-4.5438,-4.5438,-4.5438,-4.5438,-4.5392,-4.5025,-4.4497,-4.3831,-4.3303,-4.2821,-4.2321,-4.2061,-4.1461,-4.0542,-3.9643,-3.9168,-3.9024,-3.8512,-3.8399,-3.8602,-3.8399,-3.7992,-3.7517,-3.7076,-3.6522,-3.6014,-3.5512,-3.5312,-3.5146,-3.4758,-3.4348,-3.4119,-3.4021,-3.3781,-3.3431,-3.2942,-3.236,-3.1949,-3.2576,-3.3577,-3.4413,-3.4537,-3.4934,-3.5673,-3.6185,-3.667,-3.7486,-3.8037,-3.8423,-3.8782,-3.8955,-3.9181,-3.952,-3.9625,-3.9625,-3.9625,-3.9573,-3.9468,-3.9128,-3.905,-3.8867,-3.8606,-3.8135,-3.7926,-3.8011,-3.8684,-3.9387,-4.0145,-4.1239,-4.2263,-4.29,-4.3527,-4.3832,-4.4065,-4.422,-4.4381,-4.4534,-4.4572,-4.461,-4.4456,-4.3895,-4.3371,-4.3002,-4.2263,-4.1463,-4.072,-4.0009,-3.9668,-3.9453,-3.9269,-3.9459,-4.0466,-4.1339,-4.2106,-4.3069,-4.3613,-4.3741,-4.3436,-4.3031,-4.2489,-4.188,-4.1644,-4.1474,-4.9179,-4.8473,-4.8473,-4.8523,-4.8546,-4.8523,-4.8292,-4.7666,-4.7254,-4.6748,-4.6173,-4.5691,-4.5484,-4.5438,-4.5438,-4.5438,-4.5415,-4.5392,-4.4796,-4.3992,-4.3418,-4.2913,-4.2344,-4.2275,-4.1891,-4.1427,-4.0968,-4.0487,-3.9914,-3.9501,-3.9331,-3.9226,-3.9121,-3.9055,-3.847,-3.8045,-3.7507,-3.6822,-3.619,-3.5876,-3.5808,-3.5312,-3.5146,-3.5323,-3.508,-3.488,-3.4665,-3.4746,-3.4339,-3.3489,-3.4109,-3.4974,-3.5608,-3.5785,-3.6271,-3.6847,-3.737,-3.7888,-3.8503,-3.9006,-3.9473,-3.9577,-3.9603,-3.9677,-3.9834,-3.9939,-3.9939,-3.9913,-3.986,-3.9782,-3.9703,-3.9651,-3.9599,-3.9468,-3.8783,-3.826,-3.8162,-3.8944,-3.9777,-4.0189,-4.1295,-4.2508,-4.2911,-4.3576,-4.3996,-4.4189,-4.4305,-4.4419,-4.4534,-4.461,-4.461,-4.4394,-4.4086,-4.3747,-4.334,-4.294,-4.2109,-4.1247,-4.0632,-4.0385,-4.0043,-3.9862,-3.9972,-4.1012,-4.1885,-4.2675,-4.3406,-4.3891,-4.4125,-4.3842,-4.3436,-4.3064,-4.276,-4.2489,-4.2117,-4.941,-4.9221,-4.9221,-4.9221,-4.9221,-4.9221,-4.8959,-4.8557,-4.8071,-4.7351,-4.6702,-4.615,-4.5737,-4.537,-4.5438,-4.5438,-4.5438,-4.5438,-4.5048,-4.4405,-4.3854,-4.3142,-4.2477,-4.2252,-4.2086,-4.1627,-4.1397,-4.0915,-4.0172,-3.9965,-3.9652,-3.9308,-3.9308,-3.9078,-3.8619,-3.8436,-3.7885,-3.7094,-3.6809,-3.6457,-3.6128,-3.5808,-3.5643,-3.5698,-3.5643,-3.5576,-3.5604,-3.6318,-3.6197,-3.5069,-3.5699,-3.6592,-3.7568,-3.8114,-3.8509,-3.8681,-3.89,-3.9117,-3.9288,-3.9507,-3.9808,-4.0148,-4.02,-4.0334,-4.0827,-4.0853,-4.0853,-4.088,-4.0853,-4.0644,-4.0305,-4.02,-4.0092,-3.9891,-3.9528,-3.9321,-3.9698,-4.0576,-4.1282,-4.1827,-4.279,-4.3379,-4.3654,-4.3918,-4.4258,-4.4335,-4.445,-4.4496,-4.4572,-4.461,-4.461,-4.461,-4.4394,-4.4055,-4.3716,-4.3371,-4.2756,-4.1771,-4.1247,-4.097,-4.0597,-4.0259,-4.0637,-4.1329,-4.1981,-4.2738,-4.341,-4.4021,-4.4024,-4.4113,-4.4079,-4.3809,-4.3436,-4.3098,-4.276,-4.9864,-4.9509,-4.9509,-4.9509,-4.9509,-4.9509,-4.9365,-4.9105,-4.8403,-4.7866,-4.726,-4.6381,-4.5827,-4.5574,-4.5506,-4.5438,-4.5438,-4.5438,-4.5071,-4.4543,-4.3831,-4.3074,-4.2477,-4.2252,-4.2178,-4.1903,-4.1673,-4.126,-4.077,-4.0356,-3.9905,-3.9629,-3.94,-3.9147,-3.8918,-3.8642,-3.8321,-3.7701,-3.7311,-3.6874,-3.6622,-3.6205,-3.6059,-3.6004,-3.6004,-3.6004,-3.6168,-3.6989,-3.7268,-3.7104,-3.7704,-3.8617,-3.9492,-4.0011,-4.0331,-4.0331,-4.0331,-4.0282,-4.0331,-4.0331,-4.0461,-4.0723,-4.0801,-4.0958,-4.1193,-4.1324,-4.1324,-4.1272,-4.1324,-4.1141,-4.0906,-4.0874,-4.0939,-4.0971,-4.0865,-4.0742,-4.0676,-4.1343,-4.2094,-4.2765,-4.3467,-4.4181,-4.4258,-4.4343,-4.4381,-4.445,-4.4496,-4.4572,-4.461,-4.461,-4.461,-4.461,-4.461,-4.4332,-4.4055,-4.3747,-4.3439,-4.2509,-4.1678,-4.1432,-4.097,-4.0601,-4.0823,-4.1295,-4.2013,-4.2675,-4.3251,-4.3843,-4.4344,-4.4479,-4.4581,-4.4479,-4.4012,-4.3741,-4.3369,-5.0412,-4.9652,-4.9652,-4.9652,-4.9652,-4.9652,-4.9652,-4.9392,-4.8639,-4.8098,-4.7677,-4.6606,-4.6097,-4.5957,-4.5754,-4.5574,-4.5574,-4.5619,-4.5091,-4.4515,-4.3802,-4.3023,-4.2321,-4.2275,-4.2247,-4.2109,-4.1788,-4.1558,-4.1145,-4.054,-4.0195,-3.9905,-3.9538,-3.9331,-3.917,-3.8872,-3.8665,-3.8367,-3.7747,-3.7186,-3.6943,-3.6567,-3.636,-3.6223,-3.6223,-3.6223,-3.6472,-3.7203,-3.793,-3.8715,-3.9647,-4.016,-4.0919,-4.1121,-4.1246,-4.1193,-4.1141,-4.1167,-4.1246,-4.1141,-4.1246,-4.1246,-4.1246,-4.1324,-4.1324,-4.1324,-4.1324,-4.1324,-4.1324,-4.1272,-4.1345,-4.1571,-4.1838,-4.2026,-4.2328,-4.2167,-4.1696,-4.1962,-4.2649,-4.3099,-4.4009,-4.4435,-4.4534,-4.461,-4.4572,-4.4496,-4.4572,-4.4572,-4.461,-4.461,-4.461,-4.461,-4.461,-4.461,-4.4363,-4.4117,-4.3809,-4.3285,-4.2294,-4.174,-4.1093,-4.0793,-4.082,-4.1133,-4.1563,-4.217,-4.281,-4.3473,-4.4197,-4.4581,-4.4581,-4.4581,-4.4513,-4.4282,-4.4012,-5.1034,-5.0483,-5.0483,-5.0483,-5.0483,-5.0412,-5.0246,-4.989,-4.9274,-4.8589,-4.7979,-4.723,-4.6646,-4.6271,-4.6227,-4.6227,-4.6136,-4.6022,-4.5602,-4.4476,-4.4291,-4.3401,-4.2563,-4.2316,-4.2109,-4.1903,-4.2063,-4.1742,-4.1099,-4.0823,-4.0433,-4.0103,-3.9652,-3.9308,-3.9285,-3.917,-3.8941,-3.8619,-3.8321,-3.7793,-3.7163,-3.6989,-3.6691,-3.6369,-3.6332,-3.6309,-3.6634,-3.7737,-3.8582,-3.8948,-3.9647,-4.0338,-4.0593,-4.0997,-4.1274,-4.1324,-4.1324,-4.1324,-4.1324,-4.1324,-4.1324,-4.1324,-4.1324,-4.1324,-4.1324,-4.1324,-4.1324,-4.1324,-4.1324,-4.1398,-4.1696,-4.2069,-4.2387,-4.2776,-4.3368,-4.3929,-4.4059,-4.4109,-4.433,-4.482,-4.5078,-4.5149,-4.4695,-4.4603,-4.461,-4.461,-4.461,-4.461,-4.4579,-4.4548,-4.4517,-4.4456,-4.4572,-4.4572,-4.4517,-4.4332,-4.4148,-4.3809,-4.2971,-4.2171,-4.1555,-4.0878,-4.087,-4.0894,-4.0945,-4.163,-4.2472,-4.3178,-4.3914,-4.4236,-4.4581,-4.4581,-4.4581,-4.4581,-4.4609,-5.096,-5.072,-5.0696,-5.0696,-5.0696,-5.0696,-5.0554,-5.0245,-4.9551,-4.8935,-4.8415,-4.7546,-4.6957,-4.663,-4.6473,-4.6405,-4.6405,-4.6382,-4.5798,-4.4827,-4.444,-4.3734,-4.2622,-4.2149,-4.1811,-4.1627,-4.1811,-4.1604,-4.1306,-4.1122,-4.0915,-4.041,-3.9905,-3.9538,-3.9331,-3.9308,-3.917,-3.8941,-3.8688,-3.8275,-3.7839,-3.7494,-3.715,-3.6755,-3.6719,-3.6742,-3.6472,-3.8319,-3.9,-3.9208,-3.9955,-4.0643,-4.0694,-4.1047,-4.1248,-4.1324,-4.1324,-4.1324,-4.1324,-4.1324,-4.1324,-4.1324,-4.1324,-4.1324,-4.1324,-4.1324,-4.1374,-4.1448,-4.1547,-4.1647,-4.219,-4.2435,-4.2825,-4.3328,-4.4106,-4.4881,-4.5374,-4.5449,-4.5548,-4.5877,-4.5702,-4.5464,-4.5157,-4.4849,-4.4603,-4.461,-4.461,-4.4579,-4.424,-4.4209,-4.424,-4.4271,-4.4449,-4.4541,-4.461,-4.4517,-4.4456,-4.4117,-4.3593,-4.2848,-4.2202,-4.1524,-4.0847,-4.0817,-4.0778,-4.1532,-4.2359,-4.3012,-4.3706,-4.4265,-4.4615,-4.4581,-4.4609,-4.4665,-4.4692,-5.0768,-5.0696,-5.0696,-5.0696,-5.0696,-5.0696,-5.0624,-5.0383,-4.9517,-4.8992,-4.8772,-4.7571,-4.7079,-4.7032,-4.6764,-4.6607,-4.6607,-4.656,-4.6064,-4.506,-4.4747,-4.3945,-4.2979,-4.2163,-4.1692,-4.1653,-4.1644,-4.1512,-4.1443,-4.1512,-4.1283,-4.0869,-4.0295,-3.9859,-3.9515,-3.9331,-3.9285,-3.9193,-3.8941,-3.8642,-3.8459,-3.8091,-3.7678,-3.7261,-3.738,-3.7331,-3.7338,-3.868,-3.975,-3.9156,-4.0491,-4.1147,-4.1324,-4.1324,-4.1324,-4.1324,-4.1324,-4.1324,-4.1324,-4.1324,-4.1324,-4.1324,-4.1324,-4.1298,-4.1348,-4.1398,-4.1574,-4.1746,-4.1895,-4.219,-4.2825,-4.3067,-4.3328,-4.3871,-4.473,-4.5553,-4.6153,-4.6437,-4.6728,-4.6609,-4.6449,-4.6142,-4.5588,-4.5157,-4.4849,-4.4603,-4.461,-4.4486,-4.4148,-4.4055,-4.4178,-4.4271,-4.4449,-4.4541,-4.461,-4.461,-4.4548,-4.4469,-4.4068,-4.3611,-4.2926,-4.235,-4.1643,-4.0746,-4.0807,-4.1499,-4.2171,-4.2853,-4.3518,-4.4259,-4.4699,-4.4748,-4.4748,-4.4776,-4.4803,-5.1105,-5.0696,-5.0696,-5.0696,-5.0696,-5.0696,-5.0455,-4.995,-4.9373,-4.882,-4.8387,-4.7719,-4.7364,-4.7364,-4.7364,-4.7298,-4.7232,-4.7117,-4.655,-4.5497,-4.5113,-4.4441,-4.32,-4.2186,-4.1789,-4.1751,-4.1607,-4.1383,-4.123,-4.1329,-4.1637,-4.1322,-4.0609,-4.014,-3.9933,-3.9538,-3.9367,-3.9367,-3.917,-3.8964,-3.8688,-3.8459,-3.816,-3.7768,-3.8092,-3.8129,-3.8233,-3.922,-4.0032,-3.9955,-4.0795,-4.1198,-4.1324,-4.1324,-4.1324,-4.1324,-4.1324,-4.1324,-4.1324,-4.1324,-4.1324,-4.1324,-4.1298,-4.1474,-4.1547,-4.1647,-4.1845,-4.2141,-4.2484,-4.2825,-4.3163,-4.3594,-4.4134,-4.4805,-4.5644,-4.6491,-4.7189,-4.7637,-4.7782,-4.7486,-4.7188,-4.685,-4.6234,-4.5588,-4.5157,-4.4849,-4.4702,-4.4517,-4.4209,-4.424,-4.4425,-4.4486,-4.4579,-4.461,-4.461,-4.461,-4.4617,-4.4805,-4.4601,-4.4396,-4.3842,-4.3287,-4.2544,-4.1554,-4.0999,-4.1337,-4.2012,-4.2727,-4.3602,-4.4519,-4.4776,-4.4913,-4.4913,-4.4913,-4.494,-5.0936,-5.072,-5.0696,-5.0696,-5.0696,-5.0696,-5.0383,-4.99,-4.9301,-4.8772,-4.8267,-4.7762,-4.7497,-4.7497,-4.7497,-4.7497,-4.7497,-4.7497,-4.6765,-4.5868,-4.5412,-4.4785,-4.3467,-4.2353,-4.1915,-4.1677,-4.1434,-4.1359,-4.1405,-4.2188,-4.2242,-4.2001,-4.135,-4.0884,-4.0476,-3.9916,-3.959,-3.9567,-3.9403,-3.9193,-3.8941,-3.8757,-3.8413,-3.8503,-3.8935,-3.9145,-3.9135,-4.0402,-4.0875,-4.0696,-4.1001,-4.125,-4.1374,-4.145,-4.15,-4.14,-4.1324,-4.1324,-4.1324,-4.1324,-4.1348,-4.1498,-4.1498,-4.1647,-4.1895,-4.2043,-4.2289,-4.2679,-4.2991,-4.3403,-4.3642,-4.4209,-4.4787,-4.5384,-4.6344,-4.7133,-4.7636,-4.8229,-4.8265,-4.805,-4.7681,-4.7281,-4.688,-4.6234,-4.5557,-4.5126,-4.4856,-4.4548,-4.4302,-4.4394,-4.4579,-4.4493,-4.4493,-4.4631,-4.46,-4.4644,-4.4558,-4.4744,-4.4986,-4.4778,-4.4606,-4.4019,-4.3183,-4.2212,-4.1906,-4.185,-4.2203,-4.307,-4.3905,-4.4625,-4.4852,-4.4995,-4.5022,-4.5049,-4.5069,-5.0696,-5.0696,-5.0696,-5.0696,-5.0696,-5.0576,-5.0191,-4.9686,-4.9133,-4.8603,-4.8098,-4.7714,-4.7497,-4.7497,-4.7497,-4.7497,-4.7497,-4.7497,-4.6896,-4.6038,-4.5653,-4.4976,-4.3802,-4.2776,-4.2039,-4.2029,-4.159,-4.1424,-4.1808,-4.2497,-4.2817,-4.2653,-4.2183,-4.1704,-4.1091,-4.0444,-4.0129,-3.9802,-3.9661,-3.9485,-3.937,-3.9116,-3.9059,-3.9243,-4.0217,-4.0507,-4.0512,-4.1667,-4.2138,-4.1879,-4.1825,-4.1918,-4.1865,-4.2066,-4.2066,-4.1913,-4.1655,-4.1474,-4.1448,-4.1498,-4.1647,-4.1746,-4.1845,-4.1993,-4.2289,-4.2631,-4.2922,-4.3355,-4.3594,-4.3899,-4.4322,-4.4833,-4.5401,-4.6077,-4.6915,-4.7679,-4.7934,-4.8271,-4.8521,-4.8296,-4.8019,-4.7681,-4.7281,-4.6942,-4.6296,-4.5495,-4.5164,-4.4733,-4.4517,-4.4486,-4.4548,-4.4408,-4.4421,-4.462,-4.4663,-4.462,-4.4512,-4.4444,-4.4845,-4.502,-4.4903,-4.4689,-4.3844,-4.3153,-4.3101,-4.3106,-4.3287,-4.338,-4.4083,-4.4659,-4.4906,-4.513,-4.5184,-4.5211,-4.5238,-5.0696,-5.0696,-5.0696,-5.0696,-5.0694,-5.0331,-4.9731,-4.927,-4.8763,-4.8074,-4.7774,-4.7545,-4.7497,-4.7497,-4.7497,-4.7497,-4.7497,-4.7425,-4.692,-4.599,-4.5782,-4.523,-4.4199,-4.3204,-4.2676,-4.2449,-4.2053,-4.1852,-4.2087,-4.247,-4.2903,-4.3059,-4.2767,-4.2282,-4.1824,-4.1093,-4.0634,-4.0282,-4.013,-4.0048,-4.0048,-3.9954,-4.0313,-4.0974,-4.1614,-4.2091,-4.2503,-4.331,-4.3514,-4.3512,-4.351,-4.3586,-4.3613,-4.3613,-4.3766,-4.3496,-4.2885,-4.1993,-4.2149,-4.2229,-4.2256,-4.2431,-4.2449,-4.2587,-4.2933,-4.3293,-4.3629,-4.3832,-4.3974,-4.435,-4.4972,-4.5384,-4.6106,-4.6814,-4.7435,-4.7976,-4.8313,-4.8313,-4.8563,-4.8573,-4.8296,-4.8019,-4.7681,-4.7373,-4.7004,-4.6172,-4.5472,-4.5072,-4.4771,-4.4778,-4.4799,-4.4725,-4.4744,-4.4911,-4.5096,-4.4982,-4.4683,-4.4421,-4.4756,-4.5154,-4.4938,-4.4849,-4.5016,-4.4449,-4.4299,-4.4071,-4.3974,-4.4085,-4.4384,-4.4742,-4.5157,-4.5291,-4.5371,-4.5371,-4.5344,-5.2528,-5.251,-5.2485,-5.231,-5.1967,-5.1761,-5.1163,-5.0265,-4.9478,-4.882,-4.8272,-4.7696,-4.7497,-4.7497,-4.7497,-4.7497,-4.7497,-4.7497,-4.692,-4.6102,-4.5838,-4.5293,-4.4333,-4.3577,-4.3096,-4.2723,-4.2327,-4.2219,-4.24,-4.284,-4.3364,-4.3683,-4.3412,-4.3068,-4.2589,-4.1757,-4.1271,-4.0822,-4.0493,-4.0188,-4.0165,-4.0281,-4.0687,-4.1582,-4.2357,-4.3249,-4.404,-4.4623,-4.4821,-4.4792,-4.4603,-4.4361,-4.4411,-4.4486,-4.4637,-4.4633,-4.4353,-4.3904,-4.3656,-4.3552,-4.3548,-4.3751,-4.3873,-4.4043,-4.4159,-4.4263,-4.4308,-4.4237,-4.463,-4.5092,-4.564,-4.624,-4.6901,-4.7508,-4.7934,-4.8187,-4.848,-4.8521,-4.8604,-4.8604,-4.8573,-4.8296,-4.805,-4.7742,-4.7434,-4.6911,-4.6228,-4.5688,-4.5363,-4.516,-4.5186,-4.5216,-4.5264,-4.5369,-4.5525,-4.5575,-4.5239,-4.4999,-4.5046,-4.5248,-4.49,-4.4807,-4.4939,-4.5011,-4.4756,-4.4576,-4.4556,-4.4865,-4.5241,-4.533,-4.5397,-4.5432,-4.5466,-4.5397,-4.5371,-5.4654,-5.4457,-5.3926,-5.3428,-5.3042,-5.2888,-5.2282,-5.1473,-5.0341,-4.9496,-4.8729,-4.7783,-4.7353,-4.7473,-4.7497,-4.7497,-4.7497,-4.7497,-4.6848,-4.6247,-4.5814,-4.5245,-4.4381,-4.3746,-4.3216,-4.2795,-4.2289,-4.2206,-4.2543,-4.3072,-4.3564,-4.4237,-4.3887,-4.3588,-4.3337,-4.2891,-4.2445,-4.1962,-4.1331,-4.0942,-4.0918,-4.086,-4.1525,-4.2463,-4.3386,-4.4318,-4.5155,-4.5708,-4.5983,-4.5953,-4.5707,-4.5543,-4.5516,-4.5645,-4.5797,-4.5871,-4.5884,-4.5856,-4.5468,-4.5203,-4.5094,-4.5166,-4.5316,-4.5161,-4.5302,-4.5316,-4.5416,-4.5345,-4.5417,-4.5866,-4.6384,-4.7225,-4.7508,-4.7892,-4.8271,-4.848,-4.8573,-4.8543,-4.8543,-4.8604,-4.8604,-4.8604,-4.8358,-4.8081,-4.7804,-4.7536,-4.7009,-4.64,-4.6026,-4.5741,-4.5682,-4.5745,-4.5755,-4.5737,-4.5596,-4.5677,-4.5496,-4.5376,-4.5454,-4.5137,-4.4589,-4.4624,-4.4852,-4.4886,-4.4944,-4.5175,-4.5211,-4.5693,-4.6073,-4.6008,-4.588,-4.5638,-4.5535,-4.5466,-4.5397,-5.643,-5.5963,-5.399,-5.3257,-5.3178,-5.2566,-5.2395,-5.2145,-5.0783,-4.9759,-4.8848,-4.7515,-4.7292,-4.7467,-4.7696,-4.763,-4.7563,-4.7497,-4.7068,-4.64,-4.5838,-4.5561,-4.4787,-4.4135,-4.353,-4.2974,-4.2597,-4.2369,-4.2276,-4.2923,-4.3482,-4.4093,-4.4192,-4.3914,-4.3966,-4.4175,-4.3804,-4.3292,-4.2535,-4.2231,-4.2231,-4.24,-4.3048,-4.4344,-4.5154,-4.5794,-4.6665,-4.6971,-4.7043,-4.7043,-4.6905,-4.685,-4.6846,-4.6846,-4.6948,-4.7101,-4.723,-4.7253,-4.7091,-4.6334,-4.5652,-4.5591,-4.5774,-4.6083,-4.6105,-4.6174,-4.6401,-4.6794,-4.6616,-4.7102,-4.7614,-4.8089,-4.8341,-4.8443,-4.8695,-4.8521,-4.8543,-4.8419,-4.845,-4.8573,-4.8512,-4.8389,-4.8553,-4.8276,-4.8173,-4.7937,-4.7867,-4.7286,-4.6818,-4.6502,-4.6312,-4.6239,-4.6283,-4.6067,-4.553,-4.5509,-4.5677,-4.5389,-4.5203,-4.4656,-4.401,-4.4269,-4.4529,-4.488,-4.4993,-4.544,-4.594,-4.6363,-4.6617,-4.6563,-4.6458,-4.6259,-4.5811,-4.5569,-4.5466,-5.7087,-5.6852,-5.5474,-5.4712,-5.4511,-5.4329,-5.3815,-5.3012,-5.2215,-5.1204,-5.0027,-4.8764,-4.8265,-4.8347,-4.8396,-4.8396,-4.8526,-4.9177,-4.8397,-4.7813,-4.7444,-4.6898,-4.6142,-4.5558,-4.5354,-4.4452,-4.3763,-4.3466,-4.3669,-4.3375,-4.4243,-4.4843,-4.4756,-4.4756,-4.4973,-4.533,-4.4979,-4.4402,-4.3822,-4.3492,-4.3326,-4.3547,-4.4126,-4.5208,-4.5847,-4.6506,-4.7236,-4.7596,-4.775,-4.775,-4.7778,-4.7778,-4.7778,-4.775,-4.7801,-4.7931,-4.7931,-4.7981,-4.8083,-4.7455,-4.7131,-4.7103,-4.7203,-4.7163,-4.6897,-4.6841,-4.6999,-4.7243,-4.7689,-4.8249,-4.8879,-4.9374,-4.9653,-4.9382,-4.9158,-4.8881,-4.8604,-4.8512,-4.805,-4.805,-4.7989,-4.7896,-4.8183,-4.8481,-4.8409,-4.8348,-4.832,-4.8216,-4.7745,-4.7384,-4.7216,-4.7105,-4.7113,-4.6866,-4.6357,-4.6171,-4.5981,-4.553,-4.5077,-4.4593,-4.4107,-4.3783,-4.4107,-4.4547,-4.5006,-4.535,-4.5891,-4.6806,-4.6996,-4.6714,-4.6837,-4.701,-4.6431,-4.5845,-4.5776,-5.7224,-5.7051,-5.6392,-5.5925,-5.5551,-5.5321,-5.4877,-5.4145,-5.3298,-5.244,-5.1256,-4.9964,-4.9453,-4.9554,-4.9475,-4.954,-4.9797,-5.013,-4.9736,-4.9228,-4.8706,-4.8258,-4.7577,-4.7002,-4.6642,-4.593,-4.5177,-4.4808,-4.4612,-4.4105,-4.4744,-4.5421,-4.5639,-4.577,-4.6059,-4.6431,-4.623,-4.5682,-4.519,-4.48,-4.4585,-4.446,-4.5049,-4.5871,-4.6419,-4.6837,-4.7462,-4.788,-4.8032,-4.8032,-4.8032,-4.8083,-4.8083,-4.8083,-4.8083,-4.8083,-4.8083,-4.8083,-4.8083,-4.8083,-4.8106,-4.7864,-4.7943,-4.7746,-4.76,-4.7659,-4.8121,-4.8478,-4.8921,-4.9403,-5.0077,-5.0393,-5.0334,-5.002,-4.9989,-4.9712,-4.9066,-4.8758,-4.7989,-4.7496,-4.7527,-4.765,-4.7719,-4.8078,-4.8652,-4.8662,-4.878,-4.8755,-4.865,-4.8376,-4.8248,-4.8128,-4.8071,-4.769,-4.7311,-4.7117,-4.6726,-4.5822,-4.5369,-4.4981,-4.4561,-4.4172,-4.4006,-4.4594,-4.4946,-4.5192,-4.5728,-4.646,-4.6694,-4.6672,-4.6879,-4.7155,-4.7224,-4.6707,-4.65,-5.6738,-5.6423,-5.6423,-5.625,-5.5875,-5.4993,-5.4848,-5.4902,-5.3742,-5.2846,-5.2145,-5.09,-5.054,-5.0839,-5.0753,-5.0816,-5.0979,-5.1142,-5.0883,-5.039,-4.9985,-4.9204,-4.8625,-4.8146,-4.7959,-4.7205,-4.6404,-4.5745,-4.5448,-4.5015,-4.543,-4.6226,-4.682,-4.716,-4.7254,-4.7858,-4.7985,-4.7646,-4.7109,-4.6545,-4.5981,-4.5579,-4.6211,-4.6679,-4.698,-4.7313,-4.7666,-4.7953,-4.8083,-4.8083,-4.8083,-4.8083,-4.8083,-4.8083,-4.8083,-4.8083,-4.8083,-4.8083,-4.8083,-4.8134,-4.8185,-4.8134,-4.8083,-4.81,-4.8252,-4.8646,-4.9397,-4.9757,-5.0236,-5.0759,-5.1114,-5.1177,-5.0974,-5.0728,-5.0697,-5.0297,-4.962,-4.9127,-4.845,-4.765,-4.7496,-4.7506,-4.7419,-4.765,-4.8559,-4.8993,-4.9149,-4.9299,-4.9367,-4.9432,-4.9337,-4.9014,-4.8889,-4.8505,-4.8155,-4.7961,-4.744,-4.6439,-4.5759,-4.55,-4.5046,-4.4593,-4.4589,-4.484,-4.493,-4.5096,-4.5539,-4.6121,-4.6569,-4.7079,-4.6983,-4.7155,-4.7396,-4.7465,-4.7189,-5.7078,-5.6964,-5.6794,-5.6394,-5.5879,-5.5168,-5.477,-5.4459,-5.3695,-5.3456,-5.37,-5.2668,-5.2112,-5.2236,-5.2227,-5.2253,-5.2412,-5.3173,-5.3018,-5.2074,-5.1588,-5.1014,-5.0335,-4.976,-4.9432,-4.8838,-4.7886,-4.7213,-4.7243,-4.6276,-4.6491,-4.7379,-4.8268,-4.8854,-4.8953,-4.9301,-4.9529,-4.92,-4.8815,-4.8291,-4.7556,-4.7359,-4.7374,-4.76,-4.7577,-4.7651,-4.7875,-4.8055,-4.8083,-4.8083,-4.8083,-4.8083,-4.8083,-4.8083,-4.8083,-4.8134,-4.8134,-4.8083,-4.8258,-4.8459,-4.861,-4.8358,-4.8258,-4.8509,-4.8831,-4.9079,-4.9931,-5.084,-5.1192,-5.1637,-5.2088,-5.2161,-5.1959,-5.1467,-5.119,-5.0605,-5.002,-4.9682,-4.9127,-4.8235,-4.7804,-4.7923,-4.7907,-4.7723,-4.8379,-4.9093,-4.9337,-4.9873,-5.0101,-5.0354,-5.0417,-4.9964,-4.9641,-4.9252,-4.8933,-4.8673,-4.8317,-4.7475,-4.673,-4.6212,-4.5726,-4.5242,-4.5339,-4.5666,-4.5306,-4.5033,-4.5862,-4.6638,-4.7189,-4.7562,-4.7672,-4.7844,-4.8224,-4.8051,-4.7596,-5.7303,-5.7303,-5.7078,-5.6674,-5.5958,-5.5082,-5.4403,-5.3951,-5.3584,-5.3973,-5.4466,-5.375,-5.3392,-5.3386,-5.3516,-5.3658,-5.3779,-5.4314,-5.4552,-5.3615,-5.3021,-5.2438,-5.1886,-5.1316,-5.0823,-5.0215,-4.9253,-4.8433,-4.845,-4.7229,-4.7361,-4.8445,-4.9628,-4.994,-5.0161,-5.0353,-5.0543,-5.0239,-4.9846,-4.9537,-4.89,-4.8506,-4.8224,-4.8103,-4.7953,-4.7802,-4.7999,-4.8083,-4.8083,-4.8055,-4.8083,-4.8083,-4.8083,-4.8134,-4.8134,-4.8134,-4.8409,-4.861,-4.9079,-4.9297,-4.9395,-4.9128,-4.8881,-4.9128,-4.964,-5.0028,-5.0603,-5.1293,-5.1757,-5.217,-5.2563,-5.2729,-5.2513,-5.199,-5.1805,-5.1221,-5.082,-5.0513,-5.0105,-4.918,-4.8337,-4.8466,-4.8286,-4.8198,-4.8219,-4.8865,-4.948,-5.0043,-5.0606,-5.0892,-5.107,-5.0681,-5.0325,-5.0001,-4.9645,-4.9289,-4.89,-4.8411,-4.7767,-4.7022,-4.6738,-4.6318,-4.6419,-4.646,-4.6219,-4.6191,-4.6644,-4.7286,-4.7734,-4.8293,-4.881,-4.8982,-4.9154,-4.881,-4.8321,-5.7245,-5.7245,-5.7245,-5.6839,-5.6092,-5.4651,-5.3922,-5.367,-5.367,-5.3978,-5.4483,-5.4192,-5.4043,-5.4127,-5.4422,-5.4671,-5.4849,-5.4967,-5.4908,-5.4547,-5.3687,-5.3295,-5.2684,-5.1933,-5.1514,-5.112,-5.0288,-4.9241,-4.9342,-4.81,-4.8033,-4.8906,-4.9914,-5.0339,-5.0647,-5.0984,-5.1066,-5.0951,-5.0836,-5.0444,-4.9883,-4.907,-4.8845,-4.8565,-4.8195,-4.7909,-4.7937,-4.805,-4.7999,-4.7999,-4.8078,-4.8055,-4.8134,-4.8106,-4.8134,-4.8409,-4.9029,-4.9542,-5.0028,-5.0191,-5.0412,-5.0268,-5.0412,-5.043,-5.0555,-5.0887,-5.1339,-5.1757,-5.22,-5.2427,-5.2729,-5.2729,-5.2698,-5.2575,-5.2575,-5.2175,-5.1805,-5.1418,-5.1055,-5.0306,-4.9419,-4.9019,-4.8457,-4.8231,-4.8105,-4.8519,-4.9057,-4.9517,-5.0144,-5.0892,-5.107,-5.1172,-5.0843,-5.0746,-5.0357,-4.9872,-4.9515,-4.9094,-4.8512,-4.7867,-4.7584,-4.7435,-4.7406,-4.7347,-4.7225,-4.7295,-4.7629,-4.7844,-4.8086,-4.8741,-4.9396,-4.9568,-4.9568,-4.9671,-4.9424,-5.6403,-5.5968,-5.5968,-5.5591,-5.4956,-5.3888,-5.3371,-5.3329,-5.3357,-5.3585,-5.395,-5.4343,-5.4397,-5.448,-5.501,-5.5205,-5.5292,-5.5379,-5.5379,-5.4874,-5.3948,-5.3696,-5.3108,-5.2295,-5.1872,-5.1311,-5.0637,-4.9774,-4.9575,-4.8621,-4.8009,-4.8504,-4.9651,-5.0101,-5.0607,-5.1227,-5.1367,-5.1534,-5.145,-5.1112,-5.0772,-5.0101,-4.9707,-4.9117,-4.8644,-4.8246,-4.7769,-4.7937,-4.783,-4.76,-4.7937,-4.8106,-4.8106,-4.8631,-4.9079,-4.9688,-5.0028,-5.022,-5.043,-5.0934,-5.1186,-5.1326,-5.1635,-5.1665,-5.1572,-5.1526,-5.1926,-5.2246,-5.2427,-5.2608,-5.2729,-5.2729,-5.2729,-5.2729,-5.2729,-5.2544,-5.2281,-5.226,-5.1896,-5.1409,-5.0476,-4.9827,-4.919,-4.8174,-4.8107,-4.8289,-4.859,-4.9115,-4.9733,-5.0547,-5.107,-5.1205,-5.1172,-5.101,-5.0778,-5.0357,-5.0098,-4.9742,-4.9231,-4.886,-4.8651,-4.853,-4.8395,-4.8267,-4.8065,-4.818,-4.8443,-4.8568,-4.8499,-4.9189,-4.9809,-4.9942,-5.0011,-5.0011,-5.0011,-5.6171,-5.5794,-5.5503,-5.5068,-5.4405,-5.3608,-5.3259,-5.3197,-5.3063,-5.3325,-5.3979,-5.4262,-5.4402,-5.4459,-5.4823,-5.4962,-5.4709,-5.4653,-5.4653,-5.44,-5.381,-5.3416,-5.2883,-5.2377,-5.1899,-5.1337,-5.0772,-4.9932,-4.9647,-4.8836,-4.8083,-4.8195,-4.9174,-4.9651,-5.0185,-5.0888,-5.1478,-5.1646,-5.1702,-5.1562,-5.1309,-5.1028,-5.0354,-4.9848,-4.9426,-4.8499,-4.7684,-4.7881,-4.7516,-4.7362,-4.7807,-4.8354,-4.8567,-4.9297,-5.0076,-5.065,-5.084,-5.0943,-5.1118,-5.1682,-5.1759,-5.188,-5.2274,-5.2306,-5.2246,-5.2155,-5.2337,-5.2594,-5.2639,-5.2729,-5.2729,-5.2729,-5.2729,-5.2729,-5.2729,-5.2774,-5.2833,-5.2966,-5.2704,-5.232,-5.1684,-5.0993,-5.0032,-4.8886,-4.8196,-4.853,-4.8727,-4.8957,-4.9641,-5.0487,-5.094,-5.1205,-5.1237,-5.1172,-5.0978,-5.0927,-5.0774,-5.0558,-5.0311,-4.9934,-4.9721,-4.9558,-4.9403,-4.9161,-4.8958,-4.9063,-4.9085,-4.8879,-4.8879,-4.9597,-5.0011,-5.0011,-5.0011,-5.0011,-5.0011,-5.6258,-5.6026,-5.5503,-5.4865,-5.4371,-5.3796,-5.3516,-5.3193,-5.3095,-5.3391,-5.4141,-5.4203,-5.4148,-5.4176,-5.4488,-5.4459,-5.429,-5.4205,-5.4234,-5.3782,-5.3304,-5.2994,-5.2797,-5.2124,-5.1731,-5.1309,-5.0688,-4.9816,-4.9426,-4.8724,-4.8083,-4.8111,-4.8729,-4.9398,-5.0069,-5.0716,-5.1253,-5.1731,-5.1787,-5.1702,-5.159,-5.1281,-5.0888,-5.0635,-4.9848,-4.8864,-4.8106,-4.765,-4.7278,-4.744,-4.7995,-4.8663,-4.9407,-4.9919,-5.0662,-5.1056,-5.1166,-5.1228,-5.1316,-5.1693,-5.1874,-5.1949,-5.2223,-5.2424,-5.2426,-5.2473,-5.2639,-5.2684,-5.2729,-5.2729,-5.2729,-5.2729,-5.2729,-5.2774,-5.2819,-5.2863,-5.2997,-5.317,-5.3263,-5.2944,-5.2558,-5.1876,-5.1135,-4.9978,-4.8752,-4.8925,-4.8929,-4.8994,-4.9451,-5.0297,-5.0853,-5.121,-5.1205,-5.128,-5.1401,-5.1382,-5.1496,-5.1343,-5.1196,-5.0985,-5.0694,-5.0544,-5.0397,-5.0125,-4.9854,-4.9677,-4.9631,-4.9424,-4.9355,-4.97,-5.0011,-5.0011,-5.0011,-5.0011,-5.0011,-5.5068,-5.4197,-5.4023,-5.3878,-5.382,-5.4139,-5.4202,-5.4178,-5.4124,-5.3658,-5.3391,-5.3913,-5.4169,-5.3941,-5.4286,-5.426,-5.4202,-5.3948,-5.4231,-5.3948,-5.3355,-5.2933,-5.2878,-5.2232,-5.1727,-5.0972,-5.0322,-4.9615,-4.8883,-4.8381,-4.8134,-4.819,-4.8644,-4.9258,-4.9928,-5.0519,-5.1217,-5.1753,-5.2085,-5.2085,-5.1974,-5.1755,-5.1393,-5.1082,-5.035,-4.9413,-4.8776,-4.8446,-4.7604,-4.7128,-4.8428,-4.9363,-5.0176,-5.0391,-5.0608,-5.0842,-5.0961,-5.0971,-5.101,-5.1251,-5.1405,-5.1652,-5.1898,-5.2267,-5.2513,-5.2637,-5.2698,-5.2698,-5.2729,-5.2729,-5.2729,-5.2729,-5.2729,-5.2819,-5.2908,-5.2997,-5.3131,-5.3471,-5.3755,-5.3563,-5.327,-5.2699,-5.2049,-5.1027,-4.9831,-4.9252,-4.9058,-4.9094,-4.9394,-5.0046,-5.0876,-5.1234,-5.121,-5.1317,-5.1545,-5.1846,-5.1996,-5.2146,-5.2059,-5.19,-5.1692,-5.1634,-5.1459,-5.1034,-5.0705,-5.0562,-5.0321,-4.9942,-4.9942,-5.0149,-5.0011,-5.0011,-5.0011,-5.0011,-5.0011,-5.5656,-5.4923,-5.4318,-5.4075,-5.4029,-5.4065,-5.4081,-5.4139,-5.4371,-5.3979,-5.3226,-5.3866,-5.4073,-5.3786,-5.4049,-5.3937,-5.3823,-5.3709,-5.354,-5.34,-5.34,-5.3034,-5.2698,-5.242,-5.2247,-5.1569,-5.0719,-4.9841,-4.8714,-4.8308,-4.8336,-4.8364,-4.8709,-4.908,-4.9723,-5.0473,-5.1331,-5.19,-5.2476,-5.2808,-5.2677,-5.2298,-5.2026,-5.1658,-5.1303,-5.0492,-5.0177,-4.9823,-4.8846,-4.8284,-4.9001,-4.9689,-5.0305,-5.0573,-5.0642,-5.0677,-5.0685,-5.0543,-5.042,-5.0482,-5.079,-5.1159,-5.1251,-5.1498,-5.2452,-5.2575,-5.2483,-5.2483,-5.2698,-5.2729,-5.2729,-5.2729,-5.2788,-5.2953,-5.3042,-5.3175,-5.3627,-5.4168,-5.4379,-5.4438,-5.4115,-5.3728,-5.2909,-5.1679,-5.0617,-5.0098,-4.9807,-4.961,-4.9808,-5.0043,-5.0838,-5.1434,-5.1561,-5.1586,-5.1806,-5.217,-5.2527,-5.267,-5.2842,-5.2804,-5.2652,-5.2663,-5.2563,-5.1977,-5.1533,-5.1429,-5.1183,-5.0735,-5.0528,-5.0631,-5.0321,-5.0011,-5.0011,-5.008,-5.0114,-5.6909,-5.6677,-5.548,-5.4887,-5.4815,-5.4266,-5.4042,-5.413,-5.4597,-5.4463,-5.392,-5.4086,-5.4099,-5.3913,-5.3751,-5.3242,-5.307,-5.3292,-5.3066,-5.2984,-5.2902,-5.2905,-5.2877,-5.268,-5.2455,-5.1966,-5.1184,-5.0319,-4.9366,-4.9215,-4.91,-4.8831,-4.8773,-4.8871,-4.9592,-5.0542,-5.1708,-5.2587,-5.3311,-5.4024,-5.3675,-5.2996,-5.2832,-5.279,-5.2683,-5.2435,-5.2032,-5.1501,-5.0496,-4.9905,-4.9644,-4.9954,-5.0184,-5.0371,-5.023,-5.0236,-5.0082,-4.9897,-4.9774,-4.9928,-5.0371,-5.0679,-5.0648,-5.111,-5.2109,-5.2418,-5.2294,-5.2524,-5.2709,-5.2788,-5.2788,-5.2833,-5.2966,-5.3144,-5.3277,-5.3528,-5.4146,-5.4697,-5.4874,-5.5017,-5.4761,-5.4438,-5.3635,-5.241,-5.1739,-5.122,-5.0815,-5.0615,-5.0535,-5.0808,-5.1276,-5.1881,-5.2217,-5.2246,-5.2345,-5.2594,-5.3044,-5.3212,-5.3372,-5.3528,-5.3613,-5.357,-5.3253,-5.2666,-5.2356,-5.2252,-5.1912,-5.1464,-5.1326,-5.1252,-5.0769,-5.0424,-5.039,-5.0424,-5.0321,-5.7168,-5.6598,-5.6134,-5.6005,-5.5998,-5.6134,-5.6254,-5.6284,-5.6293,-5.6017,-5.5264,-5.4672,-5.4273,-5.3651,-5.3598,-5.3453,-5.3664,-5.35,-5.3343,-5.3372,-5.3319,-5.316,-5.316,-5.3366,-5.2497,-5.2047,-5.1701,-5.1,-5.075,-5.0677,-5.0573,-5.0585,-5.0526,-5.0696,-5.1305,-5.2021,-5.2456,-5.3298,-5.3963,-5.4571,-5.4666,-5.4193,-5.4045,-5.3957,-5.398,-5.3259,-5.2743,-5.2789,-5.1832,-5.0985,-5.0391,-5.0266,-5.0082,-4.9982,-4.9735,-4.9592,-4.9427,-4.9304,-4.9284,-4.9345,-4.9727,-5.0689,-5.0751,-5.1053,-5.184,-5.2362,-5.2499,-5.2885,-5.3028,-5.3108,-5.3139,-5.3246,-5.3409,-5.3509,-5.3714,-5.4189,-5.4739,-5.4989,-5.5122,-5.5093,-5.4964,-5.476,-5.4619,-5.3667,-5.309,-5.2609,-5.2103,-5.182,-5.0992,-5.1294,-5.1697,-5.2169,-5.2674,-5.318,-5.3382,-5.3315,-5.3615,-5.3736,-5.3857,-5.3989,-5.4124,-5.4293,-5.3977,-5.3356,-5.308,-5.2942,-5.2597,-5.2326,-5.2084,-5.1942,-5.1326,-5.0947,-5.0907,-5.0907,-5.0907]},{"header":{"parameterUnit":"m.s-1","parameterCategory":1,"la1":31.0,"la2":29.5877,"lo1":-88.7671,"lo2":-86.6584,"dy":0.0162,"dx":0.0185,"nx":115,"ny":88,"refTime":"2026-04-29T00:00:00:Z","depth":0,"parameterNumber":3,"parameterNumberName":"V-component_of_WINDS"},"data":[0.0,0.0,0.0,0.0,0.0,0.0,0.0,0.0,0.0,0.0,0.0,0.0,0.0,0.0,0.0,0.0,0.0,0.0,0.0,0.0,0.0,0.0,0.0,0.0,0.0,0.0,0.0,0.0,0.0,0.0,0.0,0.0,0.0,0.0,0.0,0.0,0.0,0.0,0.0,0.0,0.0,0.0,0.0,0.0,0.0,0.0,0.0,0.0,0.0,0.0,0.0,0.0,0.0,0.0,0.0,0.0,0.0,0.0,0.0,0.0,0.0,0.0,0.0,0.0,0.0,0.0,0.0,0.0,0.0,0.0,0.0,0.0,0.0,0.0,0.0,0.0,0.0,0.0,0.0,0.0,0.0,0.0,0.0,0.0,0.0,0.0,0.0,0.0,0.0,0.0,0.0,0.0,0.0,0.0,0.0,0.0,0.0,0.0,0.0,0.0,0.0,0.0,0.0,0.0,0.0,0.0,0.0,0.0,0.0,0.0,0.0,0.0,0.0,0.0,0.0,0.0,0.0,0.0,0.0,0.0,0.0,0.0,0.0,0.0,0.0,0.0,0.0,0.0,0.0,0.0,0.0,0.0,0.0,0.0,0.0,0.0,0.0,0.0,0.0,0.0,0.0,0.0,0.0,0.0,0.0,0.0,0.0,0.0,0.0,0.0,0.0,0.0,0.0,0.0,0.0,0.0,0.0,0.0,0.0,0.0,0.0,0.0,0.0,0.0,0.0,0.0,0.0,0.0,0.0,0.0,0.0,0.0,0.0,0.0,0.0,0.0,0.0,0.0,0.0,0.0,0.0,0.0,0.0,0.0,0.0,0.0,0.0,0.0,0.0,0.0,0.0,0.0,0.0,0.0,0.0,0.0,0.0,0.0,0.0,0.0,0.0,0.0,0.0,0.0,0.0,0.0,0.0,0.0,0.0,0.0,0.0,0.0,0.0,0.0,0.0,0.0,0.0,0.0,0.0,0.0,0.0,0.0,0.0,0.0,0.0,0.0,0.0,0.0,0.0,0.0,0.0,0.0,0.0,0.0,0.0,0.0,0.0,0.0,0.0,0.0,0.0,0.0,0.0,0.0,0.0,0.0,0.0,0.0,0.0,0.0,0.0,0.0,0.0,0.0,0.0,0.0,0.0,0.0,0.0,0.0,0.0,0.0,0.0,0.0,0.0,0.0,0.0,0.0,0.0,0.0,0.0,0.0,0.0,0.0,0.0,0.0,0.0,0.0,0.0,0.0,0.0,0.0,0.0,0.0,0.0,0.0,0.0,0.0,0.0,0.0,0.0,0.0,0.0,0.0,0.0,0.0,0.0,0.0,0.0,0.0,0.0,0.0,0.0,0.0,0.0,0.0,0.0,0.0,0.0,0.0,0.0,0.0,0.0,0.0,0.0,0.0,0.0,0.0,0.0,0.0,0.0,0.0,0.0,0.0,0.0,0.0,0.0,0.0,0.0,0.0,0.0,0.0,0.0,0.0,0.0,0.0,0.0,0.0,0.0,0.0,0.0,0.0,0.0,0.0,0.0,0.0,0.0,0.0,0.0,0.0,0.0,0.0,0.0,0.0,0.0,0.0,0.0,0.0,0.0,0.0,0.0,0.0,0.0,0.0,0.0,0.0,0.0,0.0,0.0,0.0,0.0,0.0,0.0,0.0,0.0,0.0,0.0,0.0,0.0,0.0,0.0,0.0,0.0,0.0,0.0,0.0,0.0,0.0,0.0,0.0,0.0,0.0,0.0,0.0,0.0,0.0,0.0,0.0,0.0,0.0,0.0,0.0,0.0,0.0,0.0,0.0,0.0,0.0,0.0,0.0,0.0,0.0,0.0,0.0,0.0,0.0,0.0,0.0,0.0,0.0,0.0,0.0,0.0,0.0,0.0,0.0,0.0,0.0,0.0,0.0,0.0,0.0,0.0,0.0,0.0,0.0,0.0,0.0,0.0,0.0,0.0,0.0,0.0,0.0,0.0,0.0,0.0,0.0,0.0,0.0,0.0,0.0,0.0,0.0,0.0,0.0,0.0,0.0,0.0,0.0,0.0,0.0,0.0,0.0,0.0,0.0,0.0,0.0,0.0,0.0,0.0,0.0,0.0,0.0,0.0,0.0,0.0,0.0,0.0,0.0,0.0,0.0,0.0,0.0,0.0,0.0,0.0,0.0,0.0,0.0,0.0,0.0,0.0,0.0,0.0,0.0,0.0,0.0,0.0,0.0,0.0,0.0,0.0,0.0,0.0,0.0,0.0,0.0,0.0,0.0,0.0,0.0,0.0,0.0,0.0,0.0,0.0,0.0,0.0,0.0,0.0,0.0,0.0,0.0,0.0,0.0,0.0,0.0,0.0,0.0,0.0,0.0,0.0,0.0,0.0,0.0,0.0,0.0,0.0,0.0,0.0,0.0,0.0,0.0,0.0,0.0,0.0,0.0,0.0,0.0,0.0,0.0,0.0,0.0,0.0,0.0,0.0,0.0,0.0,0.0,0.0,0.0,0.0,0.0,0.0,0.0,0.0,0.0,0.0,0.0,0.0,0.0,0.0,0.0,0.0,0.0,0.0,0.0,0.0,0.0,0.0,0.0,0.0,0.0,0.0,0.0,0.0,0.0,0.0,0.0,0.0,0.0,0.0,0.0,0.0,0.0,0.0,0.0,0.0,0.0,0.0,0.0,0.0,0.0,0.0,0.0,0.0,0.0,0.0,0.0,0.0,0.0,0.0,0.0,0.0,0.0,0.0,0.0,0.0,0.0,0.0,0.0,0.0,0.0,0.0,0.0,0.0,0.0,0.0,0.0,0.0,0.0,0.0,0.0,0.0,0.0,0.0,0.0,0.0,0.0,0.0,0.0,0.0,0.0,0.0,0.0,0.0,0.0,0.0,0.0,0.0,0.0,0.0,0.0,0.0,0.0,0.0,0.0,0.0,0.0,0.0,0.0,0.0,0.0,0.0,0.0,0.0,0.0,0.0,0.0,0.0,0.0,0.0,0.0,0.0,0.0,0.0,0.0,0.0,0.0,0.0,0.0,0.0,0.0,0.0,0.0,0.0,0.0,0.0,0.0,0.0,0.0,0.0,0.0,0.0,0.0,0.0,0.0,0.0,0.0,0.0,0.0,0.0,0.0,0.0,0.0,0.0,0.0,0.0,0.0,0.0,0.0,0.0,0.0,0.0,0.0,0.0,0.0,0.0,0.0,0.0,0.0,0.0,0.0,0.0,0.0,0.0,0.0,0.0,0.0,0.0,0.0,0.0,0.0,0.0,0.0,0.0,0.0,0.0,0.0,0.0,0.0,0.0,0.0,0.0,0.0,0.0,0.0,0.0,0.0,0.0,0.0,0.0,0.0,0.0,0.0,0.0,0.0,0.0,0.0,0.0,0.0,0.0,0.0,0.0,0.0,0.0,0.0,0.0,0.0,0.0,0.0,0.0,0.0,0.0,0.0,0.0,0.0,0.0,0.0,0.0,0.0,0.0,0.0,0.0,0.0,0.0,0.0,0.0,0.0,0.0,0.0,0.0,0.0,0.0,0.0,0.0,0.0,0.0,0.0,0.0,0.0,0.0,0.0,0.0,0.0,0.0,0.0,0.0,0.0,0.0,0.0,0.0,0.0,0.0,0.0,0.0,0.0,0.0,0.0,0.0,0.0,0.0,0.0,0.0,0.0,0.0,0.0,0.0,0.0,0.0,0.0,0.0,0.0,0.0,0.0,0.0,0.0,0.0,0.0,0.0,0.0,0.0,0.0,0.0,0.0,0.0,0.0,0.0,0.0,0.0,0.0,0.0,0.0,0.0,0.0,0.0,0.0,0.0,0.0,0.0,0.0,0.0,0.0,0.0,0.0,0.0,0.0,0.0,0.0,0.0,0.0,0.0,0.0,0.0,0.0,0.0,0.0,0.0,0.0,0.0,0.0,0.0,0.0,0.0,0.0,0.0,0.0,0.0,0.0,0.0,0.0,0.0,0.0,0.0,0.0,0.0,0.0,0.0,0.0,0.0,0.0,0.0,0.0,0.0,0.0,0.0,0.0,0.0,0.0,0.0,0.0,0.0,0.0,0.0,0.0,0.0,0.0,0.0,0.0,0.0,0.0,0.0,0.0,0.0,0.0,0.0,0.0,0.0,0.0,0.0,0.0,0.0,0.0,0.0,0.0,0.0,0.0,0.0,0.0,0.0,0.0,0.0,0.0,0.0,0.0,0.0,0.0,0.0,0.0,0.0,0.0,0.0,0.0,0.0,0.0,0.0,0.0,0.0,0.0,0.0,0.0,0.0,0.0,0.0,0.0,2.6512,0.0,0.0,0.0,0.0,0.0,0.0,0.0,0.0,0.0,0.0,0.0,0.0,0.0,0.0,0.0,0.0,0.0,0.0,0.0,0.0,0.0,0.0,0.0,0.0,0.0,0.0,0.0,0.0,0.0,0.0,0.0,0.0,0.0,0.0,0.0,0.0,0.0,0.0,0.0,0.0,0.0,0.0,0.0,0.0,0.0,0.0,0.0,0.0,0.0,0.0,0.0,0.0,0.0,0.0,0.0,0.0,0.0,0.0,0.0,0.0,0.0,0.0,0.0,0.0,0.0,0.0,0.0,0.0,0.0,0.0,0.0,0.0,0.0,0.0,0.0,0.0,0.0,0.0,0.0,0.0,0.0,0.0,0.0,0.0,0.0,0.0,0.0,0.0,0.0,0.0,0.0,0.0,0.0,0.0,0.0,0.0,0.0,0.0,0.0,0.0,0.0,0.0,0.0,0.0,0.0,0.0,0.0,0.0,0.0,0.0,2.8786,2.8094,2.8757,2.8158,2.6153,0.0,0.0,0.0,0.0,0.0,0.0,0.0,0.0,0.0,0.0,0.0,0.0,0.0,0.0,0.0,0.0,0.0,0.0,0.0,0.0,0.0,0.0,0.0,0.0,0.0,0.0,0.0,0.0,0.0,0.0,0.0,0.0,0.0,0.0,0.0,0.0,0.0,0.0,0.0,0.0,0.0,0.0,0.0,0.0,0.0,0.0,0.0,0.0,0.0,0.0,0.0,0.0,0.0,0.0,0.0,0.0,0.0,0.0,0.0,0.0,0.0,0.0,0.0,0.0,0.0,0.0,0.0,0.0,0.0,0.0,0.0,0.0,0.0,0.0,0.0,0.0,0.0,0.0,0.0,0.0,0.0,0.0,0.0,0.0,0.0,0.0,0.0,0.0,0.0,0.0,0.0,0.0,0.0,0.0,0.0,0.0,0.0,0.0,0.0,0.0,0.0,0.0,0.0,0.0,0.0,0.0,0.0,0.0,0.0,0.0,0.0,0.0,2.9739,2.9078,2.6602,0.0,0.0,0.0,0.0,0.0,0.0,0.0,0.0,0.0,0.0,0.0,0.0,0.0,0.0,0.0,0.0,0.0,0.0,0.0,0.0,0.0,0.0,0.0,0.0,0.0,0.0,0.0,0.0,0.0,0.0,0.0,0.0,0.0,0.0,0.0,0.0,0.0,0.0,0.0,0.0,0.0,0.0,0.0,0.0,0.0,0.0,0.0,0.0,0.0,0.0,0.0,0.0,0.0,0.0,0.0,0.0,0.0,0.0,0.0,0.0,0.0,0.0,0.0,0.0,0.0,0.0,0.0,0.0,0.0,0.0,0.0,0.0,0.0,0.0,0.0,0.0,0.0,0.0,0.0,0.0,0.0,0.0,0.0,0.0,0.0,0.0,0.0,0.0,0.0,0.0,0.0,0.0,0.0,0.0,0.0,0.0,0.0,0.0,0.0,0.0,0.0,0.0,0.0,0.0,0.0,0.0,0.0,0.0,0.0,0.0,2.9792,3.206,3.2242,0.0,2.9348,0.0,0.0,0.0,0.0,0.0,0.0,0.0,0.0,0.0,0.0,0.0,0.0,0.0,0.0,0.0,0.0,0.0,0.0,0.0,0.0,0.0,0.0,0.0,0.0,0.0,0.0,0.0,0.0,0.0,0.0,0.0,0.0,0.0,0.0,0.0,0.0,0.0,0.0,0.0,0.0,0.0,0.0,0.0,0.0,0.0,0.0,0.0,0.0,0.0,0.0,0.0,0.0,0.0,0.0,0.0,0.0,0.0,0.0,0.0,0.0,0.0,0.0,0.0,0.0,0.0,0.0,0.0,0.0,0.0,0.0,0.0,0.0,0.0,0.0,0.0,0.0,0.0,0.0,0.0,0.0,0.0,0.0,0.0,0.0,0.0,0.0,0.0,0.0,0.0,0.0,0.0,0.0,0.0,0.0,0.0,0.0,0.0,0.0,0.0,0.0,0.0,0.0,0.0,0.0,0.0,0.0,0.0,0.0,0.0,0.0,3.1732,3.2432,3.1646,3.0854,0.0,0.0,0.0,0.0,0.0,0.0,0.0,0.0,0.0,0.0,0.0,0.0,0.0,0.0,0.0,0.0,0.0,0.0,0.0,0.0,0.0,0.0,0.0,0.0,0.0,0.0,0.0,0.0,0.0,0.0,0.0,0.0,0.0,0.0,0.0,0.0,0.0,0.0,0.0,0.0,0.0,0.0,0.0,0.0,0.0,0.0,0.0,0.0,0.0,0.0,0.0,0.0,0.0,0.0,0.0,0.0,0.0,0.0,0.0,0.0,0.0,0.0,0.0,0.0,0.0,0.0,0.0,0.0,0.0,0.0,0.0,0.0,0.0,0.0,0.0,0.0,0.0,0.0,0.0,0.0,0.0,0.0,0.0,0.0,0.0,0.0,0.0,0.0,0.0,0.0,0.0,0.0,0.0,0.0,0.0,0.0,0.0,0.0,0.0,0.0,0.0,0.0,0.0,0.0,0.0,0.0,0.0,0.0,0.0,0.0,3.2145,0.0,3.3067,3.1974,3.1014,3.0192,0.0,0.0,0.0,0.0,0.0,0.0,0.0,0.0,0.0,0.0,0.0,0.0,0.0,0.0,0.0,0.0,0.0,0.0,0.0,0.0,0.0,0.0,0.0,0.0,0.0,0.0,0.0,0.0,0.0,0.0,0.0,0.0,0.0,0.0,0.0,0.0,0.0,0.0,0.0,0.0,0.0,0.0,0.0,0.0,0.0,0.0,0.0,0.0,0.0,0.0,0.0,0.0,0.0,0.0,0.0,0.0,0.0,0.0,0.0,0.0,0.0,0.0,0.0,0.0,0.0,0.0,0.0,0.0,0.0,0.0,0.0,0.0,0.0,0.0,0.0,0.0,0.0,0.0,0.0,0.0,0.0,0.0,0.0,0.0,0.0,0.0,0.0,0.0,0.0,0.0,0.0,0.0,0.0,0.0,0.0,0.0,0.0,0.0,0.0,0.0,0.0,0.0,0.0,0.0,0.0,0.0,0.0,0.0,0.0,3.3566,3.3278,3.511,3.4428,3.2739,0.0,0.0,0.0,0.0,0.0,0.0,0.0,0.0,0.0,0.0,0.0,0.0,0.0,0.0,0.0,0.0,0.0,0.0,0.0,0.0,0.0,0.0,0.0,0.0,0.0,0.0,0.0,0.0,0.0,0.0,0.0,0.0,0.0,0.0,0.0,0.0,0.0,0.0,0.0,0.0,0.0,0.0,0.0,0.0,0.0,0.0,0.0,0.0,0.0,0.0,0.0,0.0,0.0,0.0,0.0,0.0,0.0,0.0,0.0,0.0,0.0,0.0,0.0,0.0,0.0,0.0,0.0,0.0,0.0,0.0,0.0,0.0,0.0,0.0,0.0,0.0,0.0,0.0,0.0,0.0,0.0,0.0,0.0,0.0,0.0,0.0,0.0,0.0,0.0,0.0,0.0,0.0,0.0,0.0,0.0,0.0,0.0,0.0,0.0,0.0,0.0,0.0,0.0,0.0,0.0,0.0,0.0,0.0,0.0,3.2075,3.2867,3.4783,3.7727,3.446,3.2527,0.0,0.0,0.0,0.0,0.0,0.0,0.0,0.0,0.0,0.0,0.0,0.0,0.0,0.0,0.0,0.0,0.0,0.0,0.0,0.0,0.0,0.0,0.0,0.0,0.0,0.0,0.0,0.0,0.0,0.0,0.0,0.0,0.0,0.0,0.0,0.0,0.0,0.0,0.0,0.0,0.0,0.0,0.0,0.0,0.0,0.0,0.0,0.0,0.0,0.0,0.0,0.0,0.0,0.0,0.0,0.0,0.0,0.0,0.0,0.0,0.0,0.0,0.0,0.0,0.0,0.0,0.0,0.0,0.0,0.0,0.0,0.0,0.0,0.0,0.0,0.0,0.0,0.0,0.0,0.0,0.0,0.0,0.0,0.0,0.0,0.0,0.0,0.0,0.0,0.0,0.0,0.0,0.0,0.0,0.0,0.0,0.0,0.0,0.0,0.0,0.0,0.0,0.0,0.0,0.0,0.0,0.0,0.0,0.0,3.2089,0.0,3.6679,0.0,3.4746,3.2559,0.0,0.0,0.0,0.0,0.0,0.0,0.0,0.0,0.0,0.0,0.0,0.0,0.0,0.0,0.0,0.0,0.0,0.0,0.0,0.0,0.0,0.0,0.0,0.0,0.0,0.0,0.0,0.0,0.0,0.0,0.0,0.0,0.0,0.0,0.0,0.0,0.0,0.0,0.0,0.0,0.0,0.0,0.0,0.0,0.0,0.0,0.0,0.0,0.0,0.0,0.0,0.0,0.0,0.0,0.0,0.0,0.0,0.0,0.0,0.0,0.0,0.0,0.0,0.0,0.0,0.0,0.0,0.0,0.0,0.0,0.0,0.0,0.0,0.0,0.0,0.0,0.0,0.0,0.0,0.0,0.0,0.0,0.0,0.0,0.0,0.0,0.0,0.0,0.0,0.0,0.0,0.0,0.0,0.0,0.0,0.0,0.0,0.0,0.0,0.0,0.0,0.0,0.0,0.0,0.0,0.0,0.0,0.0,3.2634,3.665,3.8775,3.8777,3.6519,3.5531,3.2976,0.0,0.0,0.0,0.0,0.0,0.0,0.0,0.0,0.0,0.0,0.0,0.0,0.0,0.0,0.0,0.0,0.0,0.0,0.0,0.0,0.0,0.0,0.0,0.0,0.0,0.0,0.0,0.0,0.0,0.0,0.0,0.0,0.0,0.0,0.0,0.0,0.0,0.0,0.0,0.0,0.0,0.0,0.0,0.0,0.0,0.0,0.0,0.0,0.0,0.0,0.0,0.0,0.0,0.0,0.0,0.0,0.0,0.0,0.0,0.0,0.0,0.0,0.0,0.0,0.0,0.0,0.0,0.0,0.0,0.0,0.0,0.0,0.0,0.0,0.0,0.0,0.0,0.0,0.0,0.0,0.0,0.0,0.0,0.0,0.0,0.0,0.0,0.0,0.0,0.0,0.0,0.0,0.0,0.0,0.0,0.0,0.0,0.0,0.0,0.0,0.0,0.0,0.0,0.0,0.0,0.0,0.0,0.0,0.0,3.5992,3.8605,4.0368,4.0884,3.6679,3.4393,0.0,0.0,0.0,0.0,0.0,0.0,0.0,0.0,0.0,0.0,0.0,0.0,0.0,0.0,0.0,0.0,0.0,0.0,0.0,0.0,0.0,0.0,0.0,0.0,0.0,0.0,0.0,0.0,0.0,0.0,0.0,0.0,0.0,0.0,0.0,0.0,0.0,0.0,0.0,0.0,0.0,0.0,0.0,0.0,0.0,0.0,0.0,0.0,0.0,0.0,0.0,0.0,0.0,0.0,0.0,0.0,0.0,0.0,0.0,0.0,0.0,0.0,0.0,0.0,0.0,0.0,0.0,0.0,0.0,0.0,0.0,0.0,0.0,0.0,0.0,0.0,0.0,0.0,0.0,0.0,0.0,0.0,0.0,0.0,0.0,0.0,0.0,0.0,0.0,0.0,0.0,0.0,0.0,0.0,0.0,0.0,0.0,0.0,0.0,0.0,0.0,0.0,0.0,0.0,0.0,0.0,0.0,0.0,0.0,4.0417,4.2229,4.3615,4.4376,3.9378,3.6474,3.6028,0.0,0.0,0.0,0.0,0.0,0.0,0.0,0.0,0.0,0.0,0.0,0.0,0.0,0.0,0.0,0.0,0.0,0.0,0.0,0.0,0.0,0.0,0.0,0.0,0.0,0.0,0.0,0.0,0.0,0.0,0.0,0.0,0.0,0.0,0.0,0.0,0.0,0.0,0.0,0.0,0.0,0.0,0.0,0.0,0.0,0.0,0.0,0.0,0.0,0.0,0.0,0.0,0.0,0.0,0.0,0.0,0.0,0.0,0.0,0.0,0.0,0.0,0.0,0.0,0.0,0.0,0.0,0.0,0.0,0.0,0.0,0.0,0.0,0.0,0.0,0.0,0.0,0.0,0.0,0.0,0.0,0.0,0.0,0.0,0.0,0.0,0.0,0.0,0.0,0.0,0.0,0.0,0.0,0.0,0.0,0.0,0.0,0.0,0.0,0.0,0.0,0.0,0.0,0.0,0.0,0.0,0.0,0.0,4.8588,4.9121,4.8638,4.709,4.346,3.9366,0.0,0.0,0.0,0.0,0.0,0.0,0.0,0.0,0.0,0.0,0.0,0.0,0.0,0.0,0.0,0.0,0.0,0.0,0.0,0.0,0.0,0.0,0.0,0.0,0.0,0.0,0.0,0.0,0.0,0.0,0.0,0.0,0.0,0.0,0.0,0.0,0.0,0.0,0.0,0.0,0.0,0.0,0.0,0.0,0.0,0.0,0.0,0.0,0.0,0.0,0.0,0.0,0.0,0.0,0.0,0.0,0.0,0.0,0.0,0.0,0.0,0.0,0.0,0.0,0.0,0.0,0.0,0.0,0.0,0.0,0.0,0.0,0.0,0.0,0.0,0.0,0.0,0.0,0.0,0.0,0.0,0.0,0.0,0.0,0.0,0.0,0.0,0.0,0.0,0.0,0.0,0.0,0.0,0.0,0.0,0.0,0.0,0.0,0.0,0.0,0.0,0.0,0.0,0.0,0.0,0.0,0.0,0.0,0.0,5.1645,5.548,5.6571,5.4542,4.8502,4.3923,0.0,0.0,0.0,0.0,0.0,0.0,0.0,0.0,0.0,0.0,0.0,0.0,0.0,0.0,0.0,0.0,0.0,0.0,0.0,0.0,0.0,0.0,0.0,0.0,0.0,0.0,0.0,0.0,0.0,0.0,0.0,0.0,0.0,0.0,0.0,0.0,0.0,0.0,0.0,0.0,0.0,0.0,0.0,0.0,0.0,0.0,0.0,0.0,0.0,0.0,0.0,0.0,0.0,0.0,0.0,0.0,0.0,0.0,0.0,0.0,0.0,0.0,0.0,0.0,0.0,0.0,0.0,0.0,0.0,0.0,0.0,0.0,0.0,0.0,0.0,0.0,0.0,0.0,0.0,0.0,0.0,0.0,0.0,0.0,0.0,0.0,0.0,0.0,0.0,0.0,0.0,0.0,0.0,0.0,0.0,0.0,0.0,0.0,0.0,0.0,0.0,0.0,0.0,0.0,0.0,0.0,0.0,0.0,5.0422,5.4852,5.9988,6.2037,6.0859,5.3721,4.7859,0.0,0.0,0.0,0.0,0.0,0.0,0.0,0.0,0.0,0.0,0.0,0.0,0.0,0.0,0.0,0.0,0.0,0.0,0.0,0.0,0.0,0.0,0.0,0.0,0.0,0.0,0.0,0.0,0.0,0.0,0.0,0.0,0.0,0.0,0.0,0.0,0.0,0.0,0.0,0.0,0.0,0.0,0.0,0.0,0.0,0.0,0.0,0.0,0.0,0.0,0.0,0.0,0.0,0.0,0.0,0.0,0.0,0.0,0.0,0.0,0.0,0.0,0.0,0.0,0.0,0.0,0.0,0.0,0.0,0.0,0.0,0.0,0.0,0.0,0.0,0.0,0.0,0.0,0.0,0.0,0.0,0.0,0.0,0.0,0.0,0.0,0.0,0.0,0.0,0.0,0.0,0.0,0.0,0.0,0.0,0.0,0.0,0.0,0.0,0.0,0.0,0.0,0.0,0.0,0.0,0.0,0.0,0.0,5.3387,5.7722,6.2839,6.5457,6.5144,5.8359,5.1254,0.0,0.0,0.0,0.0,0.0,0.0,0.0,0.0,0.0,0.0,0.0,0.0,0.0,0.0,0.0,0.0,0.0,0.0,0.0,0.0,0.0,0.0,0.0,0.0,0.0,0.0,0.0,0.0,0.0,0.0,0.0,0.0,0.0,0.0,0.0,0.0,0.0,0.0,0.0,0.0,0.0,0.0,0.0,0.0,0.0,0.0,0.0,0.0,0.0,0.0,0.0,0.0,0.0,0.0,0.0,0.0,0.0,0.0,0.0,0.0,0.0,0.0,0.0,0.0,0.0,0.0,0.0,0.0,0.0,0.0,0.0,0.0,0.0,0.0,0.0,0.0,0.0,0.0,0.0,0.0,0.0,0.0,0.0,0.0,0.0,0.0,0.0,0.0,0.0,0.0,0.0,0.0,0.0,0.0,0.0,0.0,0.0,0.0,0.0,0.0,0.0,0.0,0.0,0.0,0.0,0.0,0.0,0.0,5.4845,5.8367,6.3468,6.5784,6.5166,5.918,5.3337,0.0,0.0,0.0,0.0,0.0,0.0,0.0,0.0,0.0,0.0,0.0,0.0,0.0,0.0,0.0,0.0,0.0,0.0,0.0,0.0,0.0,0.0,0.0,0.0,0.0,0.0,0.0,0.0,0.0,0.0,0.0,0.0,0.0,0.0,0.0,0.0,0.0,0.0,0.0,0.0,0.0,0.0,0.0,0.0,0.0,0.0,0.0,0.0,2.7538,0.0,0.0,0.0,0.0,0.0,0.0,0.0,0.0,0.0,0.0,0.0,0.0,0.0,0.0,0.0,0.0,0.0,0.0,0.0,0.0,0.0,0.0,0.0,0.0,0.0,0.0,0.0,0.0,0.0,0.0,0.0,0.0,0.0,0.0,0.0,0.0,0.0,0.0,0.0,0.0,0.0,0.0,0.0,0.0,0.0,0.0,0.0,0.0,0.0,0.0,0.0,0.0,0.0,0.0,0.0,0.0,0.0,0.0,0.0,5.6331,5.971,6.3985,6.6018,6.5413,6.0638,5.524,0.0,0.0,0.0,0.0,0.0,0.0,0.0,0.0,0.0,0.0,0.0,0.0,0.0,0.0,0.0,0.0,0.0,0.0,0.0,0.0,0.0,0.0,0.0,0.0,0.0,0.0,0.0,0.0,0.0,0.0,0.0,0.0,0.0,0.0,0.0,0.0,0.0,0.0,0.0,0.0,0.0,0.0,0.0,0.0,0.0,0.0,0.0,0.0,0.0,0.0,0.0,0.0,0.0,0.0,0.0,0.0,0.0,0.0,0.0,0.0,0.0,0.0,0.0,0.0,0.0,0.0,0.0,0.0,0.0,0.0,0.0,0.0,0.0,0.0,0.0,0.0,0.0,0.0,0.0,0.0,0.0,0.0,0.0,0.0,0.0,0.0,0.0,0.0,0.0,0.0,0.0,0.0,0.0,0.0,0.0,0.0,0.0,0.0,0.0,0.0,0.0,0.0,0.0,0.0,0.0,0.0,0.0,5.2175,5.7412,6.1223,6.4416,6.5974,6.579,6.1861,5.6606,5.0067,0.0,0.0,0.0,0.0,0.0,0.0,0.0,0.0,0.0,0.0,0.0,0.0,0.0,0.0,0.0,0.0,0.0,0.0,0.0,0.0,0.0,0.0,0.0,0.0,0.0,0.0,0.0,0.0,0.0,0.0,0.0,0.0,0.0,0.0,0.0,0.0,0.0,0.0,2.8026,2.9324,0.0,0.0,0.0,0.0,0.0,0.0,0.0,0.0,2.6621,0.0,0.0,0.0,0.0,0.0,0.0,0.0,0.0,0.0,0.0,0.0,0.0,0.0,0.0,0.0,0.0,0.0,0.0,0.0,0.0,0.0,0.0,0.0,0.0,0.0,0.0,0.0,0.0,0.0,0.0,0.0,0.0,0.0,0.0,0.0,0.0,0.0,0.0,0.0,0.0,0.0,0.0,0.0,0.0,0.0,0.0,0.0,0.0,0.0,0.0,0.0,0.0,0.0,0.0,0.0,0.0,5.065,5.2721,5.6647,6.2592,6.4667,6.5359,6.4642,6.126,5.6274,4.9721,0.0,0.0,0.0,0.0,0.0,0.0,0.0,0.0,0.0,0.0,0.0,0.0,0.0,0.0,0.0,0.0,0.0,0.0,0.0,0.0,0.0,0.0,0.0,0.0,0.0,0.0,0.0,0.0,0.0,0.0,0.0,0.0,0.0,0.0,0.0,0.0,0.0,0.0,0.0,3.2145,3.2193,0.0,0.0,0.0,0.0,0.0,0.0,0.0,0.0,2.6991,0.0,0.0,0.0,0.0,0.0,0.0,0.0,0.0,0.0,0.0,0.0,0.0,0.0,0.0,0.0,0.0,0.0,0.0,0.0,0.0,0.0,0.0,0.0,0.0,0.0,0.0,0.0,0.0,0.0,0.0,0.0,0.0,0.0,0.0,0.0,0.0,0.0,0.0,0.0,0.0,0.0,0.0,0.0,0.0,0.0,0.0,0.0,0.0,0.0,0.0,0.0,0.0,0.0,0.0,0.0,4.9401,5.362,5.7877,6.2238,6.3968,6.444,6.3584,5.9171,5.4303,0.0,0.0,0.0,0.0,0.0,0.0,0.0,0.0,0.0,0.0,0.0,0.0,0.0,0.0,0.0,0.0,0.0,0.0,0.0,0.0,0.0,0.0,0.0,0.0,0.0,0.0,0.0,0.0,0.0,0.0,0.0,0.0,0.0,0.0,0.0,0.0,0.0,0.0,0.0,0.0,3.2533,3.2809,3.4904,0.0,0.0,0.0,0.0,0.0,0.0,2.8185,2.7495,0.0,0.0,0.0,0.0,0.0,0.0,0.0,0.0,0.0,0.0,0.0,0.0,0.0,0.0,0.0,0.0,0.0,0.0,0.0,0.0,0.0,0.0,0.0,0.0,0.0,0.0,0.0,0.0,0.0,0.0,0.0,0.0,0.0,0.0,0.0,0.0,0.0,0.0,0.0,0.0,0.0,0.0,0.0,0.0,0.0,0.0,0.0,0.0,0.0,0.0,0.0,0.0,0.0,0.0,0.0,4.7338,5.3747,5.854,6.1523,6.3023,6.3398,6.2518,5.7393,5.2548,0.0,0.0,0.0,0.0,0.0,0.0,0.0,0.0,0.0,0.0,0.0,0.0,0.0,0.0,0.0,0.0,0.0,0.0,0.0,0.0,0.0,0.0,0.0,0.0,0.0,0.0,0.0,0.0,0.0,0.0,0.0,0.0,0.0,0.0,0.0,0.0,0.0,0.0,0.0,0.0,0.0,3.3339,3.5632,3.3128,0.0,0.0,0.0,0.0,2.9377,2.9246,0.0,0.0,0.0,0.0,0.0,0.0,0.0,0.0,0.0,0.0,0.0,0.0,0.0,0.0,0.0,0.0,0.0,0.0,0.0,0.0,0.0,0.0,0.0,0.0,0.0,0.0,0.0,0.0,0.0,0.0,0.0,0.0,0.0,0.0,0.0,0.0,0.0,0.0,0.0,0.0,0.0,0.0,0.0,0.0,0.0,0.0,0.0,0.0,0.0,0.0,0.0,0.0,0.0,0.0,0.0,0.0,4.7033,5.1828,5.6613,6.108,6.2222,6.2296,6.1474,5.7323,5.2531,0.0,0.0,0.0,0.0,0.0,0.0,0.0,0.0,0.0,0.0,0.0,0.0,0.0,0.0,0.0,0.0,0.0,0.0,0.0,0.0,0.0,0.0,0.0,0.0,0.0,0.0,0.0,0.0,0.0,0.0,0.0,0.0,0.0,0.0,0.0,0.0,0.0,0.0,0.0,0.0,0.0,3.4355,3.4611,3.2947,3.1477,0.0,0.0,3.1355,3.106,3.1978,0.0,0.0,0.0,0.0,0.0,0.0,0.0,0.0,0.0,0.0,0.0,0.0,0.0,0.0,0.0,0.0,0.0,0.0,0.0,0.0,0.0,0.0,0.0,0.0,0.0,0.0,0.0,0.0,0.0,0.0,0.0,0.0,0.0,0.0,0.0,0.0,0.0,0.0,0.0,0.0,0.0,0.0,0.0,0.0,0.0,0.0,0.0,0.0,0.0,0.0,0.0,0.0,0.0,0.0,0.0,4.1954,4.6742,5.2805,5.7449,6.0444,6.1366,6.1366,6.0554,5.4896,4.9843,0.0,0.0,0.0,0.0,0.0,0.0,0.0,0.0,0.0,0.0,0.0,0.0,0.0,0.0,0.0,0.0,0.0,0.0,0.0,0.0,0.0,0.0,0.0,0.0,0.0,0.0,0.0,0.0,0.0,0.0,0.0,0.0,0.0,0.0,0.0,0.0,0.0,0.0,0.0,0.0,0.0,0.0,3.5423,3.4579,0.0,0.0,0.0,3.2881,3.2025,0.0,0.0,0.0,0.0,0.0,0.0,0.0,0.0,0.0,0.0,0.0,0.0,0.0,0.0,0.0,0.0,0.0,0.0,0.0,0.0,0.0,0.0,0.0,0.0,0.0,0.0,0.0,0.0,0.0,0.0,0.0,0.0,0.0,0.0,0.0,0.0,0.0,0.0,0.0,0.0,0.0,0.0,0.0,0.0,0.0,0.0,0.0,0.0,0.0,0.0,0.0,0.0,0.0,0.0,0.0,0.0,0.0,4.6397,5.3506,5.7959,5.9561,6.018,6.0216,5.9525,5.3372,0.0,0.0,0.0,0.0,0.0,0.0,0.0,0.0,0.0,0.0,0.0,0.0,0.0,0.0,0.0,0.0,0.0,0.0,0.0,0.0,0.0,0.0,0.0,0.0,0.0,0.0,0.0,2.0764,0.0,0.0,0.0,0.0,0.0,0.0,0.0,0.0,0.0,0.0,0.0,0.0,0.0,0.0,3.3137,3.5291,3.5344,3.5087,0.0,0.0,3.3948,3.282,3.3517,3.2792,0.0,0.0,0.0,0.0,0.0,0.0,0.0,0.0,0.0,0.0,0.0,0.0,0.0,0.0,0.0,0.0,0.0,0.0,0.0,0.0,0.0,0.0,0.0,0.0,0.0,0.0,0.0,0.0,0.0,0.0,0.0,0.0,0.0,0.0,0.0,0.0,0.0,0.0,0.0,0.0,0.0,0.0,0.0,0.0,0.0,0.0,0.0,0.0,0.0,0.0,0.0,0.0,0.0,0.0,0.0,4.6301,5.274,5.6912,5.8445,5.8554,5.8554,5.8445,5.446,4.972,0.0,0.0,0.0,0.0,0.0,0.0,0.0,0.0,0.0,0.0,0.0,0.0,0.0,0.0,0.0,0.0,0.0,0.0,0.0,0.0,0.0,0.0,0.0,0.0,0.0,0.0,0.0,0.0,0.0,0.0,0.0,0.0,0.0,0.0,0.0,0.0,0.0,0.0,0.0,0.0,0.0,3.2784,3.2762,3.3958,3.5204,0.0,0.0,3.4505,3.3806,3.526,3.4433,2.8425,0.0,0.0,0.0,0.0,0.0,0.0,0.0,0.0,0.0,0.0,0.0,0.0,0.0,0.0,0.0,0.0,0.0,0.0,0.0,0.0,0.0,0.0,0.0,0.0,0.0,0.0,0.0,0.0,0.0,0.0,0.0,0.0,0.0,0.0,0.0,0.0,0.0,0.0,0.0,0.0,0.0,0.0,0.0,0.0,0.0,0.0,0.0,0.0,0.0,0.0,0.0,0.0,0.0,4.2902,4.6214,5.2682,5.679,5.8311,5.842,5.842,5.8383,5.4508,4.9784,0.0,0.0,0.0,0.0,0.0,0.0,0.0,0.0,0.0,0.0,0.0,0.0,0.0,0.0,0.0,0.0,0.0,0.0,0.0,0.0,0.0,0.0,0.0,0.0,0.0,0.0,0.0,0.0,2.3713,2.3815,2.3342,0.0,0.0,0.0,0.0,0.0,0.0,0.0,0.0,0.0,0.0,3.2195,3.462,3.5283,0.0,0.0,3.5827,3.5321,3.4682,3.3967,3.2335,2.8877,2.6375,0.0,0.0,0.0,0.0,0.0,0.0,0.0,0.0,0.0,0.0,0.0,0.0,0.0,0.0,0.0,0.0,0.0,0.0,0.0,0.0,0.0,0.0,0.0,0.0,0.0,0.0,0.0,0.0,0.0,0.0,0.0,0.0,0.0,0.0,0.0,0.0,0.0,0.0,0.0,0.0,0.0,0.0,0.0,0.0,0.0,0.0,0.0,0.0,0.0,0.0,0.0,0.0,4.2828,4.6111,5.2294,5.6303,5.7893,5.7929,5.7929,5.782,5.4434,5.0167,0.0,0.0,0.0,0.0,0.0,0.0,0.0,0.0,0.0,0.0,0.0,0.0,0.0,0.0,0.0,0.0,0.0,0.0,0.0,0.0,0.0,0.0,0.0,0.0,0.0,0.0,0.0,0.0,2.4381,2.4127,2.3271,0.0,0.0,0.0,0.0,0.0,0.0,0.0,0.0,0.0,0.0,3.2234,3.5193,3.5827,3.5898,3.5714,3.5544,3.516,3.4345,3.2709,3.0834,2.8743,0.0,0.0,0.0,0.0,0.0,0.0,0.0,0.0,0.0,0.0,0.0,0.0,0.0,0.0,0.0,0.0,0.0,0.0,0.0,0.0,0.0,0.0,0.0,0.0,0.0,0.0,0.0,0.0,0.0,0.0,3.5857,0.0,0.0,0.0,0.0,0.0,0.0,0.0,0.0,0.0,0.0,0.0,0.0,0.0,0.0,0.0,0.0,0.0,0.0,0.0,0.0,0.0,0.0,4.2647,4.5937,5.1574,5.523,5.6776,5.6848,5.6848,5.6812,5.4511,5.1275,4.699,0.0,0.0,0.0,0.0,0.0,0.0,0.0,0.0,0.0,0.0,0.0,0.0,0.0,0.0,0.0,0.0,0.0,0.0,0.0,0.0,0.0,0.0,0.0,0.0,0.0,0.0,2.3918,2.3566,2.3032,0.0,0.0,0.0,0.0,0.0,0.0,0.0,0.0,0.0,0.0,3.1172,3.3022,3.3623,3.4921,3.5638,3.5032,3.4498,3.3716,3.2513,3.1854,3.0636,0.0,0.0,0.0,0.0,0.0,0.0,0.0,0.0,0.0,0.0,0.0,0.0,0.0,0.0,0.0,0.0,0.0,0.0,0.0,0.0,0.0,0.0,0.0,0.0,0.0,0.0,0.0,4.4,4.2082,0.0,0.0,0.0,0.0,0.0,0.0,0.0,0.0,0.0,0.0,0.0,4.7102,4.7056,0.0,0.0,0.0,0.0,0.0,0.0,0.0,0.0,0.0,0.0,0.0,0.0,4.2664,4.6523,5.163,5.5014,5.6474,5.6519,5.6519,5.6519,5.4651,5.0706,4.4543,0.0,0.0,0.0,0.0,0.0,0.0,0.0,0.0,0.0,0.0,0.0,0.0,0.0,0.0,0.0,0.0,0.0,0.0,0.0,0.0,0.0,0.0,0.0,0.0,0.0,2.3703,0.0,0.0,0.0,0.0,0.0,0.0,0.0,0.0,0.0,0.0,0.0,2.7838,2.931,3.1044,3.2507,3.3331,3.4214,3.474,0.0,0.0,0.0,0.0,0.0,0.0,0.0,0.0,0.0,0.0,0.0,0.0,0.0,0.0,2.4039,2.0462,1.9264,1.8892,1.9149,0.0,0.0,0.0,0.0,0.0,0.0,0.0,0.0,0.0,0.0,0.0,0.0,0.0,0.0,4.7734,0.0,4.5246,0.0,0.0,0.0,0.0,0.0,0.0,0.0,0.0,4.9279,5.1324,5.2567,5.2289,5.1733,0.0,4.899,4.4854,0.0,0.0,0.0,0.0,0.0,0.0,0.0,0.0,4.3032,4.6937,5.1634,5.475,5.6138,5.6189,5.6055,5.5735,5.3548,4.971,4.4295,4.0459,3.6841,0.0,0.0,0.0,0.0,0.0,0.0,0.0,0.0,0.0,0.0,0.0,0.0,0.0,0.0,0.0,0.0,0.0,0.0,0.0,0.0,0.0,0.0,0.0,2.4108,0.0,0.0,0.0,0.0,0.0,0.0,0.0,0.0,0.0,2.5257,2.734,2.9364,3.0805,3.1998,3.2899,3.3256,0.0,0.0,0.0,0.0,0.0,0.0,0.0,2.8832,2.8212,2.7205,2.6454,2.6578,2.7241,2.7479,2.6722,0.0,0.0,2.266,2.1519,2.1197,2.124,2.0439,2.0141,2.1469,2.1016,2.0542,0.0,0.0,0.0,0.0,0.0,0.0,0.0,0.0,5.1639,5.0772,0.0,4.9597,0.0,0.0,0.0,0.0,0.0,0.0,0.0,0.0,5.5628,5.7891,5.7168,5.643,5.5692,5.4917,5.4872,5.2086,4.6769,4.183,0.0,0.0,0.0,0.0,0.0,0.0,4.364,4.7232,5.1525,5.4426,5.5738,5.5694,5.5219,5.4472,5.1275,4.8531,4.6295,4.3126,4.0022,3.7001,3.3226,0.0,0.0,0.0,0.0,0.0,0.0,0.0,0.0,0.0,0.0,0.0,0.0,0.0,0.0,0.0,0.0,0.0,0.0,0.0,0.0,2.5755,0.0,0.0,0.0,0.0,0.0,0.0,0.0,0.0,0.0,0.0,2.7914,2.9135,3.0866,3.2883,0.0,0.0,0.0,0.0,3.4251,3.25,3.2156,3.1619,3.0427,3.0361,3.0181,2.9654,0.0,0.0,2.8943,2.9092,2.8716,2.6585,2.7059,2.7367,2.6688,2.5393,2.4573,2.4468,2.3001,2.2372,2.3213,2.2605,2.2246,6.2583,0.0,0.0,0.0,0.0,5.633,5.7972,6.0319,6.0094,5.8819,5.676,5.5007,0.0,0.0,0.0,0.0,0.0,0.0,5.2079,5.4965,5.7192,5.8929,6.0294,6.0167,5.9745,5.9091,5.7494,5.5013,5.1607,4.8442,4.3293,3.6318,0.0,0.0,0.0,0.0,4.4423,4.8163,5.0982,5.3057,5.4454,5.3871,5.3212,5.2479,5.0878,4.9194,4.7482,4.5355,4.2797,3.9755,3.6477,0.0,0.0,0.0,0.0,0.0,0.0,0.0,0.0,0.0,0.0,0.0,0.0,0.0,0.0,0.0,0.0,0.0,0.0,0.0,2.4144,2.4978,2.4956,0.0,0.0,0.0,0.0,0.0,0.0,0.0,0.0,0.0,3.1868,3.2227,3.2557,0.0,0.0,3.26,3.2427,3.2946,3.3219,3.2833,0.0,0.0,0.0,3.142,3.0871,3.064,3.1142,3.1418,3.0947,3.0999,3.0764,2.9712,2.9119,2.8562,2.784,2.6377,2.5102,2.4271,2.3243,2.2757,2.3189,2.3112,2.3054,7.0303,6.4428,6.186,6.1007,6.145,6.1563,6.3065,6.5315,6.5041,6.3799,6.1957,6.0492,5.7138,5.2531,5.0785,0.0,0.0,0.0,5.5427,5.8637,5.943,6.0579,6.1823,6.1733,6.1256,6.0575,5.9075,5.7048,5.4606,5.2448,4.8199,4.2076,0.0,0.0,3.9986,4.2789,4.5822,4.8879,5.0834,5.2345,5.3385,5.2596,5.1917,5.1379,5.0224,4.9136,4.8204,4.6591,4.4662,4.2542,3.9236,3.5822,0.0,0.0,0.0,0.0,0.0,0.0,0.0,0.0,0.0,0.0,0.0,2.2008,1.9211,0.0,0.0,0.0,2.3129,2.4898,2.5753,2.6374,0.0,0.0,0.0,0.0,0.0,0.0,0.0,2.9213,3.091,3.2547,3.4332,3.4296,3.4104,3.413,3.3434,3.2874,3.2618,0.0,3.3129,3.3027,3.3053,3.2975,3.2712,3.2385,3.2214,3.2346,3.2594,3.2671,3.2384,3.2202,3.1759,3.0891,2.9982,2.905,2.8027,2.6863,2.5772,2.4846,2.4167,2.3769,2.3683,2.3645,2.376,7.6462,7.3776,6.7819,6.5943,6.6783,6.5896,6.6566,6.8141,6.7432,6.6544,6.5653,6.5506,6.2803,5.8187,5.5139,0.0,5.7094,5.7837,5.9346,6.1496,6.2188,6.2506,6.248,6.1768,6.0991,6.0216,5.9737,5.8395,5.6261,5.4355,5.2137,4.9614,4.6333,4.453,4.4281,4.5776,4.7508,4.9323,5.0851,5.1904,5.2422,5.1651,5.1094,5.0952,4.9354,4.8512,4.8546,4.6959,4.5685,4.4934,4.146,3.8127,3.5104,0.0,0.0,0.0,0.0,0.0,0.0,0.0,0.0,0.0,0.0,0.0,0.0,0.0,0.0,0.0,2.5862,0.0,2.9098,2.9012,0.0,0.0,0.0,2.6795,2.8198,2.8893,3.0038,3.1944,0.0,0.0,3.5776,0.0,3.5362,3.5601,3.4909,3.4138,3.3446,3.3622,3.366,3.3133,3.2988,3.2895,3.296,3.3273,3.3651,3.4069,3.4356,3.397,3.3338,3.278,3.1925,3.0676,2.9845,2.895,2.7565,2.6941,2.654,2.5721,2.5297,2.4821,2.4162,2.3993,2.4061,7.7548,7.5624,7.3988,7.2519,7.1189,7.0951,7.1029,7.117,7.0401,6.9482,6.8499,6.7294,6.5077,6.2193,6.0781,6.0817,6.1922,6.2105,6.2834,6.3892,6.3527,6.3345,6.3245,6.2021,6.1048,6.0361,5.9179,5.8057,5.7019,5.5436,5.3751,5.2004,5.0587,4.8134,4.4892,4.649,4.7919,4.8916,4.9913,5.0408,5.04,5.0233,5.0012,4.9894,4.8333,4.782,4.8367,4.639,4.5138,4.4824,4.2346,3.9744,3.7248,3.2238,0.0,0.0,0.0,0.0,0.0,0.0,0.0,0.0,0.0,2.4931,2.1447,0.0,2.5972,0.0,2.7057,2.8672,2.8926,2.8935,0.0,0.0,2.9376,2.9803,3.1896,3.2375,3.3096,3.4476,3.5076,3.5797,3.6873,3.5812,3.5199,3.5695,3.4233,3.3277,3.3804,3.3767,3.3616,3.3537,3.3732,3.3979,3.3953,3.3986,3.3991,3.4147,3.4021,3.3801,3.363,3.3126,3.2382,3.1161,2.9568,2.8319,2.7442,2.6268,2.5367,2.5039,2.4557,2.3969,2.346,2.3353,2.3396,7.8295,7.6997,7.6606,7.5471,7.3985,7.3619,7.2981,7.2144,7.2071,7.1318,7.0025,6.8735,6.7061,6.5104,6.4575,6.4584,6.4984,6.4657,6.4729,6.5093,6.4005,6.3313,6.2924,6.1514,6.0473,5.9774,5.9077,5.8221,5.7224,5.644,5.545,5.4322,5.3231,5.1261,4.8529,4.8477,4.8564,4.8724,4.9079,4.937,4.9619,4.9282,4.8939,4.8509,4.7295,4.6516,4.634,4.4688,4.362,4.3165,4.1367,3.9393,3.7378,3.3651,3.0673,0.0,0.0,0.0,0.0,0.0,0.0,0.0,0.0,0.0,0.0,0.0,2.7431,2.7172,2.8622,2.9991,3.0951,3.1255,3.1772,3.2736,3.2555,3.3036,3.4683,3.4895,3.5317,3.6237,3.6357,3.6716,3.7669,3.6382,3.5611,3.6238,3.4671,3.3632,3.4113,3.4043,3.3953,3.3979,3.4214,3.4356,3.4272,3.4063,3.3937,3.3894,3.381,3.3683,3.3598,3.3122,3.2311,3.0963,2.9618,2.8217,2.6921,2.5939,2.518,2.4681,2.4198,2.3671,2.3097,2.2949,2.2949,7.8628,7.7757,7.7061,7.6295,7.5462,7.4806,7.364,7.2292,7.2796,7.2182,7.0841,6.9957,6.877,6.7462,6.7207,6.704,6.6895,6.6119,6.5728,6.5488,6.4015,6.2888,6.2057,6.0695,5.9633,5.8875,5.9033,5.8441,5.7082,5.7154,5.6781,5.586,5.4564,5.3473,5.2618,5.0673,4.9398,4.8752,4.8533,4.8685,4.927,4.8587,4.7836,4.7085,4.6119,4.4946,4.3552,4.2637,4.1813,4.1068,3.9851,3.8458,3.7047,3.4678,3.2408,0.0,2.872,0.0,0.0,0.0,0.0,0.0,0.0,0.0,0.0,2.8278,2.9179,2.9847,3.067,3.1898,3.3757,3.4356,3.4891,3.5549,3.5699,3.5968,3.6537,3.6746,3.7015,3.7494,3.7524,3.7764,3.8237,3.7098,3.6419,3.6637,3.5602,3.4658,3.4476,3.4382,3.4262,3.4314,3.4314,3.4189,3.4063,3.381,3.3683,3.3683,3.3598,3.3556,3.3411,3.2963,3.2139,3.0535,2.9587,2.8427,2.6221,2.5735,2.5337,2.4659,2.424,2.3784,2.3196,2.2943,2.276,7.8271,7.6865,7.6683,7.6072,7.5215,7.5034,7.4518,7.3733,7.2538,7.1786,7.1298,7.0542,7.0071,6.9709,6.9062,6.838,6.7734,6.6998,6.6217,6.5379,6.3701,6.2505,6.1665,6.0281,5.9286,5.8634,5.8309,5.7717,5.687,5.687,5.5923,5.4059,5.372,5.2973,5.1777,0.0,0.0,0.0,4.8714,4.8387,4.8337,4.7627,4.6884,4.5992,4.4609,0.0,4.261,4.1839,4.1068,4.0366,3.9952,0.0,0.0,0.0,0.0,0.0,0.0,0.0,0.0,0.0,0.0,0.0,3.1956,3.0967,2.9051,3.1066,3.2549,3.2609,3.3789,3.4711,3.5132,3.5252,3.5579,3.6237,3.6746,3.7105,3.7255,3.8182,3.8721,3.8242,3.8182,3.8277,3.8357,3.7982,3.7501,3.694,3.6333,3.5641,3.4864,3.4432,3.4089,3.3894,3.3852,3.381,3.3768,3.3598,3.3471,3.3454,3.3326,3.324,3.3197,3.3104,3.2304,3.0531,2.9437,2.828,2.6225,2.5232,2.4743,2.455,2.4425,2.426,2.3805,2.3389,2.2976,7.8046,0.0,7.6391,7.5397,0.0,7.4189,7.3511,7.2513,7.2257,7.158,7.0662,7.0265,6.9936,6.9539,6.8708,6.8094,6.7637,6.6527,6.5741,6.509,6.2786,6.1502,6.1047,5.9661,5.8621,5.7959,5.8073,5.7386,5.6039,5.6309,5.5568,5.3751,5.3751,5.3415,5.2741,5.1899,5.0918,4.9807,4.8719,4.8282,4.8497,4.7819,4.6878,4.5703,0.0,0.0,0.0,0.0,0.0,0.0,0.0,0.0,0.0,0.0,0.0,3.558,3.4193,3.3505,3.3871,3.3971,3.4341,3.5171,3.5275,3.4337,3.1999,3.3457,3.4598,3.4879,3.5591,3.6267,3.6866,3.6926,3.7195,3.7853,3.8212,3.8357,3.8417,3.899,3.914,3.8542,3.8392,3.8512,3.8871,3.8311,3.794,3.7578,3.7002,3.6061,3.4831,3.417,3.3852,3.3725,3.3598,3.3556,3.3513,3.3386,3.3283,3.324,3.3154,3.3136,3.3136,3.3136,3.2511,3.0804,2.9569,2.8251,2.662,2.5317,2.4507,2.4507,2.4507,2.4445,2.4219,2.3846,2.3391,7.7307,7.641,7.5657,7.447,7.3199,7.3023,7.2041,7.0623,0.0,0.0,0.0,6.9575,6.9182,6.8431,6.7751,6.7316,6.6917,6.5545,6.4778,6.4445,6.1753,6.0427,6.0245,5.8942,5.793,5.7285,5.7892,5.7222,5.5381,5.5816,5.5314,5.4109,5.3841,5.3774,5.3707,5.2469,5.1262,5.0208,4.8757,4.825,4.8689,4.8014,4.6971,4.565,4.4018,4.2246,4.0303,3.9428,3.8681,3.8112,3.8054,3.807,3.8102,3.7785,3.7668,3.7665,3.7566,3.7566,3.7639,3.766,3.764,3.7673,3.7685,3.6894,3.5135,3.5609,3.6237,3.6776,3.6926,3.7434,3.8452,3.8571,3.8781,3.9343,3.9403,3.9373,3.9373,3.9523,3.9373,3.8835,3.8895,3.9068,3.9526,3.8894,3.825,3.8309,3.7512,3.6226,3.4587,3.3827,3.3556,3.3556,3.3428,3.3368,3.3326,3.324,3.3136,3.3111,3.3111,3.3136,3.3136,3.3136,3.2493,3.0925,2.964,2.8297,2.6797,2.5402,2.4529,2.4404,2.4466,2.4466,2.4383,2.4198,2.3846,7.4927,7.3672,7.3527,7.3342,7.3083,7.238,7.1106,6.9545,6.9945,6.9538,6.8695,6.8695,6.8313,6.7578,6.7473,6.6665,6.5404,6.4574,6.3707,0.0,6.1019,5.9814,5.9085,5.832,5.7652,5.7101,5.7348,5.6988,5.6084,5.5515,5.4812,5.4006,5.3372,5.3071,5.297,5.22,5.1397,5.0626,4.9184,4.8178,4.7642,4.6938,4.6103,4.5232,4.3858,4.2557,4.1586,4.0796,4.0361,4.0261,4.0188,4.0434,4.0972,3.9761,3.9309,3.9846,3.9348,3.9282,3.9852,3.9369,3.9044,3.9082,3.8591,3.7897,3.7139,3.7614,3.8033,3.8153,3.8631,3.908,3.926,3.929,3.9349,3.9403,3.9403,3.9403,3.9463,3.9911,4.0144,3.9839,4.0375,4.0567,4.0456,4.0166,3.9568,3.8892,3.7735,3.641,3.4539,3.3507,3.3248,3.3197,3.3154,3.3154,3.3154,3.3111,3.3136,3.3136,3.3136,3.3136,3.3136,3.3136,3.2461,3.0604,2.9518,2.816,2.6444,2.5168,2.447,2.4157,2.4281,2.4383,2.4115,2.4198,2.4281,7.4316,7.2996,7.2838,7.2506,7.1928,7.0293,6.9141,6.8301,6.7658,6.7734,6.8185,6.7769,6.7184,6.6456,6.6041,6.5189,6.408,6.3397,6.2826,6.2266,6.0772,5.9625,5.8913,5.8163,5.7501,5.6867,5.6949,5.6583,5.5884,5.5118,5.4386,5.3687,5.2955,5.2622,5.2589,5.2324,5.1723,5.0991,4.9758,4.8751,4.8015,4.768,4.7144,4.6407,4.528,4.4286,4.3489,4.2304,4.1677,4.1677,4.1255,4.1194,4.1493,4.084,4.058,4.0912,4.0613,4.0779,4.1508,4.1262,4.0928,4.0519,4.0226,3.9899,3.9595,3.9499,3.9469,3.9499,4.0098,4.0487,4.0487,4.0487,4.0487,4.0487,4.0487,4.0449,4.0368,4.0576,4.0672,4.0482,4.071,4.0967,4.1204,4.1062,4.0456,3.9317,3.7652,3.5814,3.4539,3.3872,3.3395,3.3187,3.3136,3.3136,3.3136,3.3136,3.3136,3.3136,3.3136,3.3136,3.3136,3.3136,3.2546,3.1403,2.9976,2.8464,2.7102,2.5615,2.4597,2.4053,2.424,2.4322,2.4074,2.424,2.4301,7.3317,7.1996,7.1696,7.124,7.0589,6.844,6.7553,6.7387,6.5919,6.5985,6.7073,6.669,6.608,6.5402,6.4576,6.3815,6.302,6.234,6.1977,6.179,6.0589,5.9694,5.9098,5.8237,5.7508,5.6945,5.6746,5.6415,5.5819,5.5123,5.4258,5.3434,5.2705,5.2409,5.2409,5.2409,5.2045,5.1282,5.0259,4.9391,4.8689,4.8488,4.8089,4.7554,4.6726,4.5967,4.5305,4.4019,4.3264,4.323,4.2671,4.2336,4.217,4.2137,4.2071,4.191,4.1877,4.2063,4.2458,4.255,4.2262,4.1474,4.1393,4.1383,4.1378,4.1055,4.0756,4.0726,4.1025,4.1392,4.1324,4.1316,4.1346,4.1346,4.127,4.1186,4.1219,4.124,4.1222,4.1077,4.1067,4.1263,4.1336,4.1117,4.0266,3.8657,3.6948,3.555,3.4851,3.4324,3.3872,3.3338,3.3136,3.3136,3.3136,3.3136,3.3136,3.3136,3.3136,3.3136,3.3136,3.3136,3.2742,3.1905,3.0193,2.8676,2.779,2.5998,2.4555,2.4033,2.424,2.4383,2.4157,2.4198,2.4219,7.0733,6.9699,6.9083,6.9041,6.9409,6.7961,6.732,6.7122,6.5509,6.4839,6.5135,6.5371,6.5126,6.4461,6.3739,6.2997,6.2282,6.1542,6.1235,6.1152,6.039,5.996,5.9761,5.8469,5.7773,5.7574,5.7011,5.6647,5.6514,5.5819,5.4792,5.35,5.2738,5.2442,5.2409,5.2409,5.2009,5.1315,5.052,4.979,4.9061,4.8365,4.8,4.7967,4.7205,4.6807,4.6674,4.5914,4.5483,4.5483,4.5351,4.5052,4.4456,4.4357,4.4092,4.3466,4.34,4.318,4.2583,4.2542,4.2174,4.1512,4.1415,4.1475,4.1512,4.1931,4.1961,4.1504,4.1384,4.1474,4.1384,4.1292,4.1267,4.1326,4.1045,4.0978,4.1509,4.1627,4.1783,4.2239,4.2111,4.186,4.0984,4.0135,3.8836,3.7514,3.6773,3.5855,3.5002,3.463,3.4223,3.3395,3.3136,3.3136,3.3136,3.3136,3.3086,3.3111,3.3068,3.3036,3.296,3.296,3.281,3.1672,3.0194,2.8672,2.7376,2.5757,2.4512,2.4033,2.4178,2.4425,2.4383,2.4177,2.3867,6.9927,6.914,6.8666,6.865,6.8781,6.8009,6.7352,6.6719,6.5596,6.477,6.4254,6.4439,6.4276,6.3902,6.3309,6.2626,6.1976,6.1333,6.1119,6.1086,6.0788,6.0423,5.9926,5.8966,5.8237,5.774,5.7044,5.668,5.6581,5.5951,5.4891,5.3566,5.3135,5.2804,5.2442,5.2409,5.2243,5.1945,5.1249,5.0485,4.9723,4.863,4.8001,4.7968,4.7703,4.7537,4.7471,4.6841,4.6444,4.6411,4.6013,4.5682,4.5381,4.5351,4.5218,4.4922,4.4452,4.3685,4.2544,4.2439,4.2319,4.2008,4.1991,4.2141,4.2491,4.2791,4.2751,4.2425,4.2365,4.2365,4.2296,4.2169,4.2041,4.2041,4.1932,4.193,4.2074,4.2104,4.2169,4.2199,4.2216,4.2063,4.1381,4.013,3.8988,3.7978,3.7196,3.6078,3.5282,3.4906,3.4424,3.3721,3.3294,3.3136,3.3136,3.3136,3.2943,3.2667,3.2566,3.2516,3.2215,3.2416,3.2265,3.1512,3.0313,2.9061,2.7888,2.639,2.5062,2.4347,2.3701,2.3867,2.4363,2.4051,2.3556,6.9401,6.8682,6.8451,6.8401,6.8336,6.7818,6.7053,6.6225,6.5415,6.4527,6.377,6.3738,6.3667,6.344,6.3117,6.2574,6.1928,6.1419,6.1075,6.0952,6.0952,6.0613,6.0093,5.9407,5.872,5.7992,5.7342,5.6912,5.6614,5.5719,5.4721,5.3831,5.35,5.3069,5.2475,5.2409,5.2409,5.2307,5.168,5.1015,5.0386,4.9061,4.8233,4.8034,4.8001,4.8001,4.8001,4.7504,4.7206,4.7173,4.6676,4.6311,4.6113,4.6113,4.595,4.5466,4.4756,4.3815,4.2725,4.2683,4.2657,4.2638,4.2602,4.2742,4.3091,4.317,4.305,4.2871,4.286,4.279,4.289,4.2729,4.2607,4.2607,4.2596,4.2474,4.2351,4.231,4.2228,4.2133,4.2133,4.1843,4.1156,3.9563,3.8225,3.8069,3.715,3.6157,3.5633,3.5132,3.4726,3.4022,3.3502,3.3226,3.3119,3.3136,3.2817,3.2416,3.224,3.2089,3.1562,3.1888,3.1955,3.1397,3.057,2.9463,2.7855,2.6504,2.5274,2.4262,2.3659,2.3556,2.4106,2.3817,2.349,6.8696,6.788,6.7848,6.7848,6.7783,6.7107,6.6398,6.5689,6.4688,6.3917,6.326,6.3228,6.3244,6.3164,6.3163,6.2802,6.2163,6.1633,6.1076,6.0519,6.0453,6.042,6.0355,5.9843,5.9202,5.8411,5.7813,5.7303,5.6575,5.5284,5.456,5.4423,5.3794,5.3066,5.2506,5.2371,5.2373,5.2272,5.1711,5.1282,5.1048,4.979,4.8763,4.8133,4.8001,4.8001,4.8001,4.7968,4.7934,4.7934,4.7835,4.7537,4.6941,4.6841,4.6222,4.4885,4.4054,4.3541,4.334,4.3278,4.3252,4.3199,4.3011,4.2991,4.2981,4.289,4.2769,4.2729,4.2596,4.2555,4.2648,4.2485,4.2433,4.2392,4.2228,4.2175,4.2133,4.2133,4.2092,4.2092,4.2009,4.1325,3.9651,3.7704,3.6989,3.6803,3.6499,3.6182,3.5662,3.5462,3.4936,3.419,3.3676,3.3408,3.3176,3.3007,3.2732,3.2231,3.1822,3.1897,3.1797,3.1671,3.1539,3.1224,3.0458,2.9305,2.7674,2.6278,2.5104,2.4233,2.3811,2.3806,2.3953,2.3844,2.3539,6.7715,6.7317,6.7439,6.7471,6.7285,6.7183,6.6415,6.5208,6.4821,6.3907,6.2837,6.2692,6.2661,6.271,6.2892,6.276,6.2299,6.1406,6.0857,6.052,6.013,5.9946,5.9892,5.9412,5.8778,5.8174,5.7584,5.7014,5.629,5.5303,5.4804,5.4711,5.4086,5.3395,5.2704,5.2211,5.2013,5.2017,5.1825,5.16,5.1138,5.0681,4.9922,4.8763,4.8266,4.8001,4.8001,4.8001,4.8001,4.8001,4.8001,4.7868,4.7636,4.7603,4.6913,4.5498,4.5045,4.445,4.3532,4.3214,4.3148,4.3111,4.293,4.2809,4.2809,4.2729,4.2648,4.2485,4.2433,4.2392,4.2269,4.2257,4.2216,4.2216,4.2133,4.2092,4.2092,4.2092,4.2092,4.2009,4.1577,4.0589,3.9387,3.8069,3.7268,3.7036,3.6546,3.6021,3.5635,3.5291,3.4916,3.4474,3.3835,3.3271,3.3212,3.2835,3.2413,3.1695,3.1199,3.0778,3.053,3.1042,3.1034,3.1107,3.0429,2.9558,2.8044,2.6042,2.4872,2.4317,2.3954,2.3711,2.3737,2.3567,2.3305,6.7057,6.6901,6.7057,6.7057,6.6901,6.7057,6.6262,6.4818,6.4755,6.3861,6.2635,6.2396,6.2396,6.2446,6.2612,6.2634,6.2364,6.1345,6.0677,6.0419,5.9742,5.9464,5.9443,5.9198,5.8669,5.7901,5.6971,5.6311,5.5854,5.5136,5.4809,5.4744,5.4254,5.3569,5.2682,5.2165,5.1871,5.168,5.1794,5.1641,5.1251,5.1168,5.0712,4.9685,4.896,4.8398,4.8034,4.8001,4.8001,4.8001,4.8001,4.8001,4.8001,4.7737,4.71,4.602,4.5442,4.4699,4.3576,4.309,4.29,4.29,4.2729,4.2566,4.2596,4.2526,4.2433,4.2351,4.2339,4.2257,4.2133,4.2092,4.2092,4.2092,4.2092,4.2092,4.2092,4.2092,4.2092,4.1897,4.0887,3.9956,3.921,3.8069,3.7315,3.6989,3.6358,3.5908,3.5595,3.5325,3.4981,3.4785,3.3931,3.3346,3.2979,3.2563,3.216,3.1515,3.1016,3.0335,3.0049,3.0466,3.0744,3.0814,3.0409,2.9666,2.8188,2.6065,2.499,2.4431,2.3974,2.3648,2.3513,2.3232,2.311,6.6586,6.6617,6.6586,6.667,6.6638,6.6638,6.5796,6.4772,6.4532,6.3773,6.2667,6.2428,6.2396,6.2396,6.2446,6.2414,6.2246,6.1456,6.0718,6.0078,5.942,5.9068,5.8972,5.9133,5.8751,5.7946,5.6288,5.5433,5.5377,5.4689,5.4333,5.4333,5.4268,5.3556,5.223,5.2165,5.1777,5.1334,5.1355,5.1466,5.1438,5.1211,5.0892,5.0555,5.007,4.9254,4.8134,4.8067,4.8001,4.7968,4.7902,4.7968,4.7671,4.7101,4.6585,4.5917,4.4962,4.412,4.3576,4.301,4.2718,4.2765,4.2544,4.2538,4.2614,4.2461,4.2378,4.2366,4.2337,4.2208,4.2208,4.2179,4.215,4.2092,4.2092,4.2092,4.2092,4.2051,4.2051,4.1647,4.0287,3.9299,3.8765,3.7612,3.6499,3.6168,3.6003,3.5764,3.5524,3.5378,3.5302,3.4838,3.4113,3.3511,3.2883,3.2257,3.1855,3.1473,3.1094,3.0604,3.0416,3.0619,3.0845,3.087,3.0355,2.955,2.7597,2.5666,2.49,2.4342,2.3938,2.3708,2.3492,2.3334,2.3169,6.6586,6.6586,6.6586,6.6586,6.6586,6.6586,6.608,6.5227,6.4753,6.3994,6.3173,6.2635,6.2396,6.2396,6.2396,6.2396,6.2351,6.1612,6.0916,6.0186,5.952,5.8917,5.8614,5.8746,5.8288,5.7204,5.5718,5.4948,5.4861,5.4241,5.4122,5.4507,5.4154,5.3447,5.254,5.2027,5.1417,5.0884,5.0972,5.1086,5.1124,5.1266,5.1092,5.0566,5.034,4.9788,4.8975,4.8555,4.8131,4.7703,4.71,4.6518,4.6028,4.571,4.5274,4.4675,4.4289,4.3663,4.305,4.2747,4.2708,4.296,4.2911,4.3089,4.3439,4.3412,4.334,4.3369,4.3398,4.3253,4.2818,4.2702,4.2557,4.215,4.2092,4.2092,4.2009,4.1493,4.0802,4.0087,3.8988,3.8069,3.7381,3.6405,3.6051,3.5764,3.5572,3.538,3.5138,3.5114,3.5017,3.4751,3.4173,3.3737,3.3184,3.2605,3.2115,3.1671,3.1247,3.0949,3.0785,3.067,3.0852,3.0687,3.0155,2.897,2.7007,2.5698,2.4972,2.459,2.4441,2.4108,2.3711,2.3555,2.3471,6.6732,6.6617,6.6586,6.6586,6.6586,6.6586,6.6207,6.5511,6.4816,6.4121,6.3426,6.273,6.2396,6.2396,6.2396,6.2396,6.2333,6.1972,6.1245,6.0329,5.9602,5.8938,5.8384,5.8427,5.7992,5.6969,5.5834,5.5165,5.4836,5.4242,5.4083,5.4369,5.4083,5.3509,5.284,5.2099,5.1439,5.0841,5.0717,5.0666,5.0781,5.1048,5.1043,5.0584,5.0556,5.02,4.9447,4.9069,4.866,4.8042,4.7287,4.6534,4.5772,4.5728,4.5425,4.4947,4.4586,4.4188,4.3601,4.3277,4.3144,4.3452,4.3454,4.3515,4.3892,4.4008,4.4008,4.4008,4.395,4.3834,4.3456,4.3369,4.3166,4.2876,4.2353,4.2121,4.1939,4.1212,4.0432,3.9623,3.8541,3.7474,3.6803,3.6121,3.5812,3.5524,3.5332,3.5066,3.4872,3.4823,3.4775,3.4655,3.4294,3.3885,3.3597,3.302,3.2394,3.1886,3.1399,3.1202,3.1033,3.0888,3.0898,3.0355,2.9828,2.8804,2.6978,2.6012,2.5254,2.5078,2.4844,2.4531,2.418,2.4043,2.3945,6.6919,6.6565,6.6565,6.648,6.6512,6.648,6.6165,6.5606,6.4891,6.4196,6.3552,6.2888,6.2459,6.2396,6.2396,6.2396,6.2365,6.2333,6.1656,6.055,5.976,5.9064,5.8415,5.8321,5.7923,5.715,5.6518,5.5854,5.5063,5.4494,5.4134,5.4114,5.4094,5.3755,5.307,5.2365,5.1742,5.1032,5.062,5.0412,5.0317,5.0666,5.0781,5.0563,5.0685,5.0396,4.9737,4.9393,4.9155,4.884,4.793,4.7157,4.6827,4.6741,4.6217,4.5808,4.5535,4.5053,4.4684,4.4089,4.3935,4.4051,4.408,4.4066,4.424,4.4356,4.4356,4.4327,4.4269,4.4182,4.4095,4.4037,4.3979,4.3834,4.2979,4.2399,4.2013,4.1128,4.0213,3.9579,3.8424,3.7196,3.673,3.6001,3.5548,3.5307,3.5163,3.5017,3.4872,3.4775,3.4775,3.4607,3.4366,3.4102,3.3861,3.3549,3.2899,3.2226,3.1745,3.1553,3.1356,3.1144,3.0811,3.0209,2.9465,2.838,2.7321,2.6308,2.5604,2.5312,2.5078,2.4863,2.4687,2.4531,2.4316,6.6018,6.5915,6.5915,6.5915,6.5915,6.5915,6.6013,6.5922,6.5261,6.4578,6.4133,6.352,6.2807,6.2446,6.2396,6.2396,6.2396,6.2396,6.2003,6.1119,6.036,5.938,5.8464,5.8289,5.7927,5.7295,5.6979,5.6315,5.5165,5.4881,5.4577,5.4103,5.4103,5.3787,5.3155,5.2902,5.2144,5.1173,5.0897,5.0525,5.0184,5.0317,5.0434,5.0395,5.0434,5.0338,5.0031,4.9418,4.8584,4.7718,4.7053,4.6312,4.5675,4.5221,4.4988,4.4892,4.465,4.4408,4.4309,4.4167,4.4211,4.4589,4.4647,4.4894,4.5343,4.5372,4.5372,4.5401,4.5372,4.514,4.4763,4.4647,4.4429,4.382,4.3517,4.2912,4.1651,4.0576,3.9519,3.8076,3.6871,3.6238,3.5906,3.5644,3.5284,3.5187,3.5042,3.492,3.4823,3.4775,3.4775,3.4775,3.4607,3.4342,3.4078,3.3885,3.3404,3.2635,3.2226,3.201,3.1789,3.1524,3.0971,3.0373,2.9396,2.8355,2.7389,2.632,2.5932,2.5469,2.5449,2.5293,2.5078,2.4883,2.4687,6.5872,6.57,6.57,6.57,6.57,6.57,6.5808,6.5759,6.4967,6.4393,6.4015,6.3255,6.2644,6.2297,6.2347,6.2396,6.2396,6.2396,6.2035,6.1308,6.0329,5.9286,5.8464,5.8289,5.8053,5.7674,5.7358,5.6789,5.5986,5.5418,5.4925,5.4545,5.4229,5.3882,5.3566,5.3186,5.2744,5.1891,5.1353,5.0753,5.0405,5.0177,5.0089,5.0129,5.0129,5.0129,5.001,4.9309,4.8459,4.7598,4.6874,4.6124,4.543,4.5026,4.4792,4.4792,4.4792,4.4836,4.4792,4.4792,4.4937,4.5227,4.5314,4.5488,4.575,4.5895,4.5895,4.5837,4.5895,4.5692,4.543,4.5196,4.4873,4.4419,4.4305,4.3405,4.1302,4.0187,3.8826,3.7257,3.6071,3.538,3.5284,3.5114,3.5066,3.5042,3.492,3.4823,3.4775,3.4775,3.4775,3.4775,3.4775,3.4558,3.4342,3.4102,3.3862,3.3212,3.2563,3.237,3.201,3.1721,3.1113,3.0418,2.9418,2.838,2.7421,2.6539,2.5926,2.5615,2.5674,2.5615,2.541,2.5254,2.5039,6.5996,6.5592,6.5592,6.5592,6.5592,6.5592,6.5592,6.5397,6.4399,6.3828,6.3558,6.2555,6.2154,6.1966,6.2116,6.2297,6.2297,6.2216,6.1779,6.099,6.0012,5.9081,5.8384,5.8321,5.8148,5.7958,5.7516,5.72,5.6631,5.567,5.5197,5.4925,5.4419,5.4134,5.3913,5.3502,5.3218,5.2807,5.1954,5.1299,5.0848,5.0445,5.0161,4.9971,4.9971,4.9971,4.9741,4.9147,4.844,4.7916,4.7249,4.6608,4.6048,4.5972,4.5808,4.575,4.5692,4.5721,4.5808,4.5692,4.5808,4.5808,4.5808,4.5895,4.5895,4.5895,4.5895,4.5895,4.5895,4.5837,4.5718,4.5566,4.5161,4.4772,4.4702,4.3286,4.1333,3.9995,3.874,3.681,3.5718,3.5187,3.4872,3.4775,3.4823,3.492,3.4823,3.4823,3.4775,3.4775,3.4775,3.4775,3.4775,3.4775,3.4583,3.439,3.415,3.3742,3.3044,3.2611,3.2106,3.1728,3.1181,3.0506,2.9784,2.878,2.7603,2.6771,2.6099,2.5674,2.5674,2.5674,2.5635,2.5566,2.541,6.5615,6.5053,6.5053,6.5053,6.5053,6.5108,6.5187,6.5313,6.4505,6.3898,6.3526,6.2819,6.2183,6.1683,6.1765,6.1765,6.1784,6.1772,6.1208,6.0243,5.9992,5.9192,5.8449,5.8243,5.7958,5.7674,5.7895,5.7453,5.6568,5.6189,5.5651,5.507,5.4577,5.4103,5.4071,5.3913,5.3597,5.3155,5.2744,5.2017,5.1268,5.0911,5.05,5.0058,4.9892,4.986,4.9622,4.8738,4.8072,4.7776,4.7249,4.6712,4.6491,4.6135,4.594,4.5895,4.5895,4.5895,4.5895,4.5895,4.5895,4.5895,4.5895,4.5895,4.5895,4.5895,4.5895,4.5895,4.5895,4.5776,4.5504,4.5213,4.4862,4.449,4.3748,4.2514,4.0728,4.0154,3.8791,3.6701,3.5696,3.5354,3.4919,3.4847,3.4775,3.4775,3.4775,3.4775,3.4751,3.4727,3.4703,3.4655,3.4823,3.4823,3.4703,3.4558,3.4414,3.415,3.3573,3.2947,3.2466,3.1937,3.1502,3.0956,3.0367,2.9217,2.7979,2.7243,2.6648,2.6187,2.5674,2.5674,2.5674,2.5674,2.5625,6.5226,6.4918,6.4888,6.4888,6.4888,6.4888,6.4998,6.4892,6.3996,6.3485,6.3096,6.2384,6.1752,6.1461,6.1531,6.1582,6.1582,6.1551,6.0915,6.0031,5.9784,5.9238,5.8262,5.7881,5.7548,5.7295,5.7548,5.7263,5.6852,5.6599,5.6315,5.562,5.4925,5.4419,5.4134,5.4103,5.3913,5.3597,5.325,5.2681,5.208,5.1606,5.1132,5.0357,4.985,4.9541,4.9741,4.8282,4.7734,4.7563,4.6989,4.6447,4.6403,4.609,4.5911,4.5895,4.5895,4.5895,4.5895,4.5895,4.5895,4.5895,4.5895,4.5895,4.5895,4.5895,4.585,4.573,4.564,4.5549,4.5046,4.4815,4.4443,4.3899,4.306,4.1852,4.0676,3.9945,3.8816,3.6574,3.5787,3.5521,3.528,3.504,3.4847,3.4775,3.4775,3.4751,3.4486,3.4462,3.4486,3.451,3.4727,3.4799,3.4775,3.4703,3.4655,3.439,3.3982,3.3477,3.2971,3.2442,3.1913,3.125,3.0589,2.9693,2.8571,2.7866,2.6914,2.6139,2.5693,2.5674,2.5625,2.5528,2.5479,6.498,6.4888,6.4888,6.4888,6.4888,6.4888,6.4795,6.4487,6.3379,6.2848,6.2425,6.1577,6.1216,6.1155,6.1359,6.143,6.143,6.1368,6.0714,5.9661,5.9652,5.8984,5.795,5.7241,5.6861,5.6937,5.7186,5.7137,5.7042,5.7137,5.6821,5.6252,5.5462,5.4861,5.4387,5.4134,5.4071,5.3945,5.3597,5.3186,5.2934,5.2428,5.1859,5.1051,4.9944,4.954,4.9437,4.8194,4.7163,4.7606,4.658,4.6001,4.5895,4.5895,4.5895,4.5895,4.5895,4.5895,4.5895,4.5895,4.5895,4.5895,4.5895,4.5866,4.5821,4.5776,4.5669,4.5458,4.5321,4.5046,4.4443,4.4209,4.3899,4.33,4.2355,4.1468,4.0564,3.9399,3.8009,3.6909,3.629,3.605,3.5617,3.528,3.504,3.4847,3.4775,3.4679,3.4414,3.4342,3.4438,3.451,3.4727,3.4799,3.4775,3.4775,3.4727,3.451,3.4198,3.3768,3.3312,3.2717,3.2098,3.1407,3.0681,2.9806,2.8848,2.7896,2.6995,2.6071,2.5547,2.5382,2.5382,2.5333,2.5284,6.5411,6.4888,6.4888,6.4888,6.4888,6.4888,6.458,6.3933,6.3195,6.2487,6.1933,6.1215,6.0897,6.0897,6.0897,6.0949,6.1,6.099,6.0392,5.9427,5.9327,5.8709,5.759,5.6495,5.5962,5.6039,5.6486,5.6699,5.6618,5.6884,5.7046,5.6744,5.5765,5.4995,5.4711,5.4419,5.406,5.406,5.3913,5.3629,5.325,5.2934,5.2523,5.1745,5.0435,4.9916,4.9491,4.8109,4.6975,4.6989,4.6314,4.5956,4.5895,4.5895,4.5895,4.5895,4.5895,4.5895,4.5895,4.5895,4.5895,4.5895,4.5866,4.5759,4.564,4.5549,4.5367,4.5092,4.4769,4.4443,4.4115,4.3689,4.3088,4.2333,4.1369,4.0414,3.9597,3.8748,3.8007,3.7184,3.6867,3.6603,3.6122,3.5617,3.528,3.504,3.4847,3.4703,3.4462,3.4486,3.4631,3.4679,3.4751,3.4775,3.4775,3.4775,3.4702,3.4458,3.4147,3.3836,3.3338,3.2842,3.2205,3.1313,3.0685,2.9964,2.9009,2.7946,2.6785,2.5703,2.5333,2.5088,2.5088,2.5088,2.5039,6.5195,6.4918,6.4888,6.4888,6.4888,6.4888,6.4487,6.3725,6.3102,6.2425,6.1779,6.1132,6.0794,6.0794,6.0794,6.0794,6.0794,6.0794,6.0126,5.924,5.9049,5.8497,5.7291,5.6077,5.5624,5.5559,5.574,5.5893,5.5956,5.6883,5.7086,5.6632,5.5754,5.5126,5.47,5.419,5.3994,5.3962,5.3985,5.3945,5.3597,5.3344,5.287,5.2272,5.0971,5.0217,4.9977,4.8043,4.7125,4.7126,4.6445,4.6014,4.585,4.5834,4.5788,4.5879,4.5895,4.5895,4.5895,4.5895,4.5821,4.5685,4.5685,4.5549,4.5321,4.5184,4.4954,4.4583,4.4228,4.3879,4.3642,4.3067,4.2409,4.1769,4.0642,3.9725,3.9181,3.8449,3.7964,3.7541,3.7252,3.694,3.6627,3.6122,3.5593,3.5256,3.4967,3.4727,3.4534,3.4607,3.4751,3.4606,3.4606,3.4557,3.4533,3.4412,3.4268,3.4024,3.3899,3.359,3.3233,3.2647,3.1808,3.0951,3.0377,2.992,2.887,2.7704,2.6512,2.5441,2.5118,2.4941,2.4892,2.4843,2.4726,6.4888,6.4888,6.4888,6.4888,6.4888,6.4734,6.4241,6.3595,6.2887,6.221,6.1563,6.1071,6.0794,6.0794,6.0794,6.0794,6.0794,6.0794,6.0024,5.9059,5.8962,5.835,5.7084,5.6,5.5285,5.5146,5.4694,5.4722,5.5607,5.6652,5.6949,5.6731,5.6106,5.5343,5.4777,5.4285,5.3984,5.3789,5.3844,5.3974,5.3816,5.347,5.3027,5.2793,5.1015,5.0134,5.0029,4.8145,4.7211,4.7128,4.6758,4.6148,4.609,4.5907,4.5907,4.5941,4.5859,4.5759,4.573,4.5685,4.5549,4.5458,4.5367,4.523,4.4954,4.463,4.435,4.3926,4.3689,4.3328,4.2895,4.236,4.1693,4.0945,3.9981,3.9129,3.8816,3.8396,3.808,3.7733,3.7517,3.7252,3.694,3.6675,3.617,3.5545,3.5207,3.4871,3.4703,3.4679,3.4727,3.4462,3.4317,3.4315,3.4194,3.3929,3.3618,3.3188,3.3108,3.2935,3.2699,3.2394,3.1563,3.0851,3.018,2.9626,2.8516,2.7437,2.6292,2.546,2.502,2.4695,2.4597,2.4548,2.4498,6.4888,6.4888,6.4888,6.4888,6.474,6.4132,6.351,6.2779,6.2134,6.1532,6.0874,6.0855,6.0794,6.0794,6.0794,6.0794,6.0794,6.0701,6.0055,5.8997,5.8862,5.8153,5.6827,5.5423,5.4993,5.4823,5.419,5.4543,5.5347,5.6232,5.6934,5.7012,5.6498,5.5983,5.5252,5.4532,5.4046,5.3577,5.3496,5.3509,5.3509,5.3384,5.3015,5.2209,5.1046,4.994,4.9436,4.7891,4.7176,4.7071,4.6966,4.6843,4.6871,4.6871,4.6728,4.6339,4.5787,4.523,4.5298,4.5384,4.5413,4.5303,4.5125,4.4779,4.4556,4.4152,4.382,4.3451,4.3307,4.2922,4.2213,4.1769,4.0971,4.016,3.9364,3.8764,3.8344,3.8344,3.8027,3.795,3.7733,3.7517,3.7252,3.7012,3.6723,3.6074,3.5447,3.5135,3.4822,3.4749,3.4531,3.4242,3.4024,3.3997,3.3752,3.3513,3.3064,3.2497,3.2368,3.2283,3.198,3.1769,3.1667,3.0979,3.0233,2.9101,2.7813,2.6818,2.6014,2.5314,2.4646,2.4399,2.4251,2.4251,2.4301,6.26,6.3276,6.3246,6.3036,6.2762,6.2375,6.1653,6.0976,6.0964,6.0692,6.028,6.0638,6.0794,6.0794,6.0794,6.0794,6.0794,6.0794,6.0055,5.9008,5.867,5.8104,5.6871,5.5776,5.5161,5.456,5.4176,5.416,5.5008,5.5705,5.6386,5.6929,5.6448,5.5875,5.5504,5.4665,5.4151,5.3806,5.3614,5.3452,5.3421,5.3334,5.3024,5.2276,5.1042,5.0082,4.9126,4.7852,4.7129,4.6995,4.6797,4.6543,4.6494,4.6369,4.6223,4.6118,4.5629,4.5464,4.5703,4.5694,4.559,4.5504,4.5332,4.5112,4.4449,4.407,4.3636,4.3094,4.2631,4.2141,4.1547,4.082,4.0058,3.9337,3.8816,3.8502,3.8133,3.808,3.7974,3.7974,3.795,3.7733,3.7541,3.73,3.706,3.6651,3.5875,3.5296,3.4887,3.4574,3.4282,3.3918,3.3723,3.3648,3.3304,3.3036,3.2567,3.2097,3.1761,3.1609,3.1221,3.1011,3.0958,3.0575,2.9623,2.8467,2.7171,2.6428,2.5857,2.5062,2.4202,2.422,2.4238,2.4202,2.4251,5.9644,6.0614,6.1087,6.1057,6.0616,6.044,5.9879,5.9082,5.9334,5.9381,5.9508,6.0071,6.0609,6.0763,6.0794,6.0794,6.0794,6.0794,5.9963,5.9193,5.8639,5.8042,5.6933,5.5992,5.5315,5.4652,5.4006,5.4022,5.4453,5.513,5.5885,5.6748,5.6426,5.5916,5.5468,5.4775,5.4083,5.3469,5.302,5.2877,5.2846,5.2891,5.2321,5.1512,5.0686,4.9873,4.9063,4.7956,4.7203,4.7069,4.6817,4.665,4.6622,4.655,4.6401,4.6273,4.5984,4.5957,4.6067,4.5999,4.5888,4.5761,4.5613,4.5161,4.4519,4.4338,4.3954,4.3125,4.2538,4.1937,4.1128,3.9979,3.9337,3.8868,3.8396,3.8133,3.795,3.7926,3.7926,3.7974,3.7974,3.7974,3.7781,3.7565,3.7348,3.7056,3.6398,3.5524,3.492,3.439,3.388,3.3465,3.3319,3.3078,3.2673,3.2356,3.2004,3.1699,3.1313,3.0877,3.0502,3.0312,3.0253,2.971,2.8978,2.7955,2.6764,2.6248,2.5736,2.5045,2.4459,2.433,2.4275,2.4238,2.4202,5.643,5.6948,5.8663,5.9277,5.919,5.8637,5.8318,5.7913,5.74,5.7621,5.8344,5.9335,6.026,6.0619,6.0638,6.069,6.0742,6.0794,5.984,5.9123,5.867,5.7794,5.6813,5.5984,5.5217,5.4512,5.3913,5.3745,5.3868,5.4204,5.5404,5.6563,5.6436,5.6207,5.552,5.4552,5.3494,5.2752,5.206,5.1803,5.1803,5.1665,5.1075,4.9902,4.917,4.8574,4.7903,4.7383,4.7146,4.7146,4.7007,4.6952,4.6846,4.6846,4.6743,4.659,4.6514,4.6435,4.6377,4.6031,4.5553,4.5393,4.5376,4.5285,4.4815,4.4688,4.4226,4.3351,4.2622,4.1672,4.0667,3.9553,3.9058,3.862,3.8302,3.808,3.7926,3.7829,3.7853,3.795,3.7902,3.7805,3.7849,3.7632,3.7637,3.7368,3.6564,3.5714,3.4644,3.4019,3.3417,3.2982,3.2785,3.2482,3.1955,3.1644,3.154,3.1268,3.085,3.0334,2.9825,2.972,2.9824,2.9006,2.832,2.7371,2.6523,2.6097,2.5641,2.5085,2.4702,2.4661,2.4422,2.4293,2.4238,5.4529,5.4662,5.5232,5.6041,5.6942,5.6629,5.6094,5.5619,5.5994,5.6868,5.7803,5.9024,5.9735,5.997,6.0031,6.0031,5.9925,5.9392,5.8972,5.839,5.7682,5.7019,5.6224,5.539,5.4291,5.3567,5.3326,5.2963,5.239,5.3088,5.3791,5.4763,5.589,5.614,5.5414,5.3903,5.2664,5.1873,5.1083,5.0698,5.084,5.065,5.0095,4.912,4.8524,4.7948,4.7339,4.6977,4.6821,4.6821,4.6848,4.6848,4.6848,4.6821,4.6769,4.6692,4.6692,4.664,4.6535,4.6229,4.6113,4.6086,4.5983,4.5744,4.5288,4.5234,4.4503,4.3671,4.2658,4.1666,4.0743,3.9893,3.9231,3.8755,3.8407,3.819,3.7974,3.7902,3.7541,3.7541,3.7493,3.7421,3.756,3.7623,3.7652,3.7604,3.6743,3.5841,3.4768,3.3799,3.3292,3.2907,3.2759,3.2361,3.186,3.151,3.1234,3.0855,3.0548,3.0149,2.9751,2.9532,2.9471,2.8585,2.7783,2.6913,2.6295,2.5945,2.5517,2.4969,2.4904,2.4996,2.4753,2.444,2.4404,5.313,5.3201,5.3048,5.3653,5.471,5.4721,5.4281,5.3909,5.4474,5.5623,5.6926,5.8115,5.8806,5.8925,5.9093,5.9039,5.8822,5.8436,5.8105,5.7511,5.6776,5.613,5.5582,5.4789,5.3655,5.2721,5.2546,5.2348,5.1434,5.1869,5.2505,5.3417,5.4511,5.491,5.477,5.3061,5.1569,5.0959,5.0299,4.9756,4.9844,4.9378,4.9055,4.8233,4.7651,4.735,4.6947,4.6744,4.6587,4.6587,4.6587,4.6535,4.6535,4.6535,4.6535,4.6535,4.6535,4.6535,4.6535,4.6535,4.6455,4.6424,4.6399,4.6209,4.5967,4.5624,4.4678,4.365,4.262,4.1638,4.0824,3.9995,3.9503,3.908,3.9056,3.8839,3.8334,3.8094,3.7493,3.7108,3.7132,3.7228,3.6948,3.7059,3.708,3.7003,3.626,3.5504,3.4782,3.3952,3.3315,3.3077,3.2884,3.2471,3.1987,3.1855,3.1666,3.098,3.0674,3.0411,3.0057,2.9794,2.9058,2.8001,2.7207,2.6488,2.5871,2.5357,2.509,2.4882,2.4992,2.5139,2.5176,2.49,2.479,5.2333,5.2615,5.2615,5.2799,5.3139,5.2875,5.3082,5.325,5.2928,5.3659,5.5311,5.6406,5.7251,5.7716,5.8,5.7944,5.7749,5.7552,5.726,5.6705,5.5758,5.525,5.472,5.3943,5.2798,5.2426,5.1991,5.1479,5.0697,5.0769,5.1236,5.1678,5.2457,5.3304,5.4002,5.2573,5.1233,5.0318,4.9643,4.9155,4.8666,4.824,4.7853,4.7397,4.6877,4.6596,4.6739,4.6612,4.6535,4.6535,4.6535,4.6535,4.6535,4.6535,4.6535,4.6535,4.6535,4.6535,4.6535,4.6482,4.643,4.6482,4.6535,4.6348,4.6191,4.5661,4.4673,4.3444,4.2528,4.1472,4.0658,4.0074,3.9826,3.9633,3.9609,3.9296,3.8767,3.8383,3.7853,3.7228,3.7108,3.7032,3.6633,3.6398,3.6426,3.617,3.5627,3.5083,3.4648,3.4213,3.3592,3.3372,3.3209,3.2871,3.2481,3.235,3.2074,3.1323,3.0865,3.069,3.0384,3.0078,2.9095,2.768,2.693,2.6497,2.5569,2.4587,2.4826,2.5032,2.5047,2.5139,2.5267,2.5304,2.5157,5.1846,5.197,5.2156,5.213,5.1995,5.2239,5.2317,5.2133,5.2307,5.3107,5.4408,5.5622,5.6251,5.6508,5.6623,5.6651,5.6451,5.5789,5.5505,5.5965,5.4601,5.4229,5.3742,5.2781,5.1638,5.1017,5.0682,5.0189,4.9028,4.9301,4.9313,4.9601,5.0643,5.1594,5.2039,5.1276,5.0072,4.9957,4.935,4.8714,4.8287,4.7878,4.7477,4.7084,4.655,4.6419,4.6637,4.6508,4.6535,4.6535,4.6535,4.6535,4.6535,4.6535,4.6535,4.6482,4.6482,4.6535,4.6297,4.6086,4.5928,4.6192,4.6297,4.6034,4.5635,4.5368,4.437,4.3326,4.2482,4.1629,4.1063,4.0844,4.0595,4.021,3.9994,3.9537,3.908,3.8815,3.8383,3.7685,3.7348,3.6939,3.6512,3.5718,3.5554,3.5504,3.5029,3.5084,3.4756,3.4527,3.4087,3.3781,3.3562,3.3299,3.3005,3.2831,3.259,3.2022,3.152,3.1171,3.0843,3.0444,2.9303,2.8052,2.729,2.6527,2.5553,2.4863,2.5157,2.5289,2.5414,2.5506,2.5708,2.5617,2.5307,5.1596,5.1596,5.1846,5.1592,5.1276,5.1703,5.174,5.1534,5.1972,5.2693,5.3641,5.4577,5.4928,5.5042,5.5297,5.5323,5.5205,5.479,5.4552,5.5038,5.3486,5.3129,5.2685,5.1766,5.0823,5.0106,4.9685,4.9178,4.8556,4.8061,4.7985,4.834,4.9089,5.0159,5.0601,5.0243,4.9886,4.9694,4.9091,4.868,4.8159,4.7667,4.7286,4.6962,4.6612,4.6263,4.6453,4.6535,4.6535,4.6508,4.6535,4.6535,4.6535,4.6482,4.6482,4.6482,4.6139,4.5928,4.5368,4.5073,4.4966,4.5315,4.5582,4.5315,4.4696,4.4261,4.3602,4.2849,4.2287,4.1777,4.1344,4.1196,4.1028,4.0619,4.0475,4.0018,3.9705,3.9465,3.8971,3.8251,3.7426,3.6938,3.6139,3.534,3.4713,3.4614,3.4486,3.4635,3.4781,3.457,3.4447,3.4185,3.3945,3.3726,3.3486,3.3246,3.2984,3.2731,3.2219,3.1717,3.1229,3.0803,2.9572,2.8401,2.7361,2.64,2.559,2.5142,2.5381,2.5745,2.6021,2.6113,2.6205,2.6021,2.5693,5.1544,5.1544,5.1544,5.1178,5.0839,5.0963,5.1282,5.1715,5.1715,5.2126,5.2729,5.3139,5.3457,5.3539,5.4185,5.4433,5.4254,5.4134,5.4194,5.3837,5.2873,5.2602,5.1999,5.1146,5.0402,4.9799,4.931,4.8813,4.8489,4.7578,4.7202,4.7538,4.8518,4.9145,4.9446,4.9883,4.9855,4.9526,4.9307,4.8926,4.8382,4.7593,4.7376,4.7104,4.6643,4.6265,4.6292,4.6401,4.6453,4.6453,4.6428,4.6508,4.6482,4.6455,4.6482,4.6139,4.5422,4.4804,4.4261,4.4016,4.3823,4.3987,4.3823,4.3742,4.3657,4.327,4.2793,4.2287,4.1802,4.1516,4.1196,4.1196,4.1172,4.1076,4.1076,4.0763,4.0475,4.0082,3.9531,3.8776,3.775,3.6855,3.5449,3.4562,3.3997,3.3816,3.3794,3.3952,3.4142,3.457,3.4447,3.4435,3.4294,3.4229,3.3967,3.3639,3.3399,3.3115,3.2721,3.2211,3.172,3.0952,2.9766,2.852,2.7266,2.6351,2.5659,2.5506,2.5635,2.5984,2.6333,2.6425,2.6425,2.648,2.6279,5.0786,5.0394,5.0394,5.0054,4.9591,4.9488,4.9988,5.0829,5.0856,5.1296,5.2099,5.2593,5.2761,5.2956,5.3588,5.3779,5.3746,5.3713,5.3713,5.3223,5.2439,5.2081,5.151,5.0833,5.0202,4.9659,4.9007,4.8382,4.8083,4.7158,4.6667,4.6942,4.7948,4.8382,4.887,4.9577,4.9713,4.9766,4.9684,4.9359,4.8923,4.8382,4.8002,4.7432,4.7078,4.6591,4.613,4.6292,4.629,4.5967,4.6292,4.6455,4.6455,4.5848,4.5368,4.4642,4.4261,4.4042,4.3742,4.3215,4.2855,4.2687,4.2375,4.24,4.2513,4.2569,4.2142,4.1745,4.1516,4.1287,4.1196,4.1196,4.1196,4.1196,4.1196,4.1052,4.0755,4.0464,3.9911,3.9004,3.8037,3.6618,3.5168,3.3967,3.3451,3.3188,3.3162,3.3363,3.3704,3.4175,3.4447,3.4457,3.4435,3.4326,3.425,3.3967,3.3792,3.3551,3.3051,3.234,3.1519,3.062,2.9729,2.8503,2.7055,2.6364,2.5961,2.5892,2.5855,2.6223,2.6554,2.6554,2.6591,2.6591,2.6591,5.0577,5.0237,4.9976,4.9584,4.9094,4.8694,4.9017,4.9716,4.9917,5.0493,5.1449,5.1944,5.2193,5.2247,5.2826,5.3076,5.2832,5.2778,5.2778,5.2533,5.1964,5.1584,5.1068,5.058,5.0118,4.9576,4.8923,4.8219,4.7839,4.7161,4.6535,4.6643,4.7486,4.7948,4.8463,4.9142,4.9711,4.9874,4.9928,4.9793,4.9549,4.9277,4.8626,4.8138,4.7731,4.6835,4.6048,4.6238,4.5885,4.5538,4.5865,4.5686,4.5688,4.5073,4.4206,4.3547,4.3326,4.2841,4.2326,4.2132,4.1914,4.1638,4.1395,4.1606,4.1745,4.1859,4.1631,4.1369,4.1311,4.1196,4.1196,4.1196,4.1196,4.1196,4.1196,4.1139,4.1,4.0826,4.0077,3.9158,3.7983,3.6541,3.5196,3.3835,3.3047,3.3043,3.31,3.3178,3.3562,3.4054,3.436,3.4457,3.4479,3.4435,3.4304,3.4029,3.3766,3.3384,3.2907,3.2196,3.1296,3.0073,2.8883,2.7814,2.6651,2.6293,2.6168,2.6058,2.6058,2.6371,2.6591,2.6591,2.6591,2.6591,2.6591,5.0655,5.0446,4.9976,4.9401,4.8956,4.8544,4.8504,4.8743,4.908,4.968,5.0709,5.1213,5.1384,5.1411,5.2047,5.2133,5.1971,5.189,5.1917,5.1711,5.125,5.0953,5.0763,5.0335,4.9956,4.9549,4.8842,4.8002,4.7731,4.7052,4.6535,4.6562,4.716,4.7703,4.8246,4.8869,4.9494,4.9956,5.001,4.9928,4.982,4.9521,4.9142,4.8897,4.8138,4.7188,4.6455,4.5915,4.5457,4.5117,4.4756,4.4494,4.4194,4.3971,4.3174,4.2463,4.2084,4.1576,4.1094,4.0934,4.0894,4.0862,4.0893,4.1142,4.1329,4.1459,4.1311,4.1254,4.1196,4.1196,4.1196,4.1196,4.1196,4.1139,4.1081,4.1024,4.085,4.0432,3.9593,3.8643,3.7576,3.624,3.5391,3.4109,3.3272,3.3156,3.3081,3.3124,3.3355,3.3846,3.414,3.4379,3.4457,3.4345,3.4022,3.3767,3.3522,3.3183,3.2616,3.1705,3.0611,2.9329,2.8007,2.7286,2.6718,2.6553,2.6389,2.6279,2.6243,2.6426,2.6591,2.6591,2.6591,2.6591,2.6591,4.9584,4.8799,4.8643,4.8512,4.846,4.8747,4.8911,4.8996,4.9055,4.9276,4.968,5.0495,5.0735,5.0522,5.1067,5.1266,5.11,5.0971,5.1127,5.0971,5.0632,5.0451,5.0509,5.0111,4.9734,4.9223,4.849,4.7704,4.7,4.662,4.6482,4.6537,4.7078,4.7568,4.811,4.8679,4.9137,4.9651,4.9643,4.9643,4.9646,4.9761,4.963,4.9222,4.8517,4.7406,4.649,4.5474,4.4488,4.3565,4.3414,4.3005,4.2478,4.2283,4.1533,4.0623,4.0536,4.0272,4.0033,4.0042,4.0162,4.0355,4.0547,4.0836,4.1028,4.1124,4.1172,4.1172,4.1196,4.1196,4.1196,4.1196,4.1196,4.1081,4.0966,4.085,4.0677,3.9838,3.9055,3.8118,3.7041,3.6219,3.5439,3.458,3.377,3.3299,3.3168,3.3115,3.316,3.3519,3.3754,3.3991,3.4379,3.4289,3.3875,3.3268,3.2886,3.2427,3.1824,3.0877,2.992,2.8916,2.794,2.7493,2.7032,2.6885,2.6756,2.6554,2.6554,2.6664,2.6591,2.6591,2.6591,2.6591,2.6591,4.7851,4.7325,4.7427,4.7527,4.7696,4.8361,4.8695,4.8747,4.8956,4.8924,4.888,4.9685,5.0094,4.9828,5.0292,5.0297,5.0191,5.0084,5.0036,5.0014,5.0014,4.989,4.9791,4.9744,4.9472,4.8938,4.8131,4.7297,4.6329,4.6245,4.6272,4.6299,4.673,4.7189,4.7704,4.8107,4.8393,4.8929,4.8828,4.8815,4.9014,4.9304,4.9478,4.9128,4.8367,4.7291,4.6079,4.4959,4.3884,4.2812,4.2409,4.1601,4.1101,4.0771,4.0373,3.9951,3.9688,3.9489,3.9393,3.9441,3.9681,3.997,4.0042,4.0234,4.098,4.1076,4.1004,4.1004,4.1172,4.1196,4.1196,4.1196,4.1057,4.0908,4.0792,4.0619,3.9954,3.9085,3.8521,3.803,3.7192,3.6582,3.5772,3.494,3.4141,3.3792,3.3595,3.2836,3.2889,3.2888,3.3172,3.3402,3.3564,3.3741,3.3402,3.2758,3.2031,3.1569,3.0971,3.018,2.9336,2.8668,2.7948,2.7636,2.7473,2.7417,2.7215,2.6976,2.6866,2.6921,2.6756,2.6591,2.6591,2.6628,2.6646,4.5981,4.5896,4.6245,4.6465,4.661,4.7486,4.7918,4.7995,4.841,4.8503,4.8231,4.8806,4.914,4.9402,4.9579,4.9324,4.9165,4.9155,4.9054,4.9085,4.9116,4.9227,4.9201,4.9125,4.9022,4.8459,4.7522,4.6616,4.5633,4.5394,4.5288,4.5635,4.5982,4.6276,4.6651,4.672,4.666,4.7143,4.727,4.717,4.7802,4.8669,4.8731,4.8373,4.7853,4.6903,4.5531,4.4474,4.3606,4.2435,4.1472,4.0542,4.0007,3.9709,3.9509,3.9248,3.9128,3.8984,3.8888,3.9008,3.9266,3.9506,3.9482,3.9842,4.053,4.0769,4.0673,4.076,4.0904,4.1057,4.1057,4.1,4.0826,4.0595,4.0421,4.0153,3.9249,3.8477,3.8156,3.7812,3.7286,3.6719,3.6092,3.5185,3.4571,3.4224,3.3634,3.287,3.2272,3.2135,3.2197,3.2262,3.2313,3.2488,3.255,3.2072,3.1245,3.049,2.989,2.9367,2.8883,2.8634,2.8315,2.8003,2.7838,2.7783,2.7675,2.7436,2.7362,2.7251,2.6995,2.6811,2.6793,2.6811,2.6756,4.4967,4.4618,4.4951,4.5049,4.5245,4.6068,4.6475,4.65,4.6611,4.7004,4.7409,4.7317,4.7596,4.8414,4.8472,4.8341,4.8107,4.8172,4.8347,4.8373,4.8431,4.8606,4.8606,4.8262,4.8634,4.7797,4.6552,4.5519,4.4801,4.4053,4.3577,4.3683,4.3632,4.3972,4.4403,4.4529,4.4802,4.532,4.5683,4.5689,4.6484,4.7213,4.7501,4.7424,4.7339,4.6502,4.5547,4.4591,4.33,4.1935,4.0624,3.9715,3.9128,3.8875,3.8683,3.8485,3.8443,3.8347,3.8246,3.8293,3.8503,3.8983,3.903,3.9086,3.9599,3.9817,3.9831,4.0033,4.0232,4.0384,4.0408,4.0397,4.0246,4.0048,3.9837,3.919,3.8418,3.8058,3.7796,3.7424,3.6987,3.6589,3.6237,3.5269,3.4149,3.3597,3.2716,3.1989,3.1172,3.1203,3.1216,3.1037,3.095,3.0936,3.0898,3.1014,3.0334,2.9557,2.909,2.9009,2.9006,2.902,2.87,2.837,2.8223,2.815,2.7967,2.7895,2.7767,2.7618,2.7362,2.716,2.7068,2.7068,2.7068]}]]